[[{"header":{"parameterUnit":"m.s-1","parameterCategory":1,"la1":30.6,"la2":29.2853,"lo1":-89.7004,"lo2":-87.6739,"dy":0.0162,"dx":0.0183,"nx":112,"ny":82,"refTime":"2023-08-08T06:00:00:Z","depth":0,"parameterNumber":2,"parameterNumberName":"U-component_of_WINDS"},"data":[0.0,0.0,0.0,0.0,0.0,0.0,0.0,0.0,0.0,0.0,0.0,0.0,0.0,0.0,0.0,0.0,0.0,0.0,0.0,0.0,0.0,0.0,0.0,0.0,0.0,0.0,0.0,0.0,0.0,0.0,0.0,0.0,0.0,0.0,0.0,0.0,0.0,0.0,0.0,0.0,0.0,0.0,0.0,0.0,0.0,0.0,0.0,0.0,0.0,0.0,0.0,0.0,0.0,0.0,0.0,0.0,0.0,0.0,0.0,0.0,0.0,0.0,0.0,0.0,0.0,0.0,0.0,0.0,0.0,0.0,0.0,0.0,0.0,0.0,0.0,0.0,0.0,0.0,0.0,0.0,0.0,0.0,0.0,0.0,0.0,0.0,0.0,0.0,0.0,0.0,-2.7001,-3.0447,-3.5665,-3.9094,-3.9647,-3.9446,-3.7464,-3.3059,0.0,0.0,0.0,0.0,0.0,0.0,0.0,0.0,0.0,0.0,0.0,0.0,0.0,0.0,0.0,0.0,0.0,0.0,0.0,0.0,0.0,0.0,0.0,0.0,0.0,0.0,0.0,0.0,0.0,0.0,0.0,0.0,0.0,0.0,0.0,0.0,0.0,0.0,0.0,0.0,0.0,0.0,0.0,0.0,0.0,0.0,0.0,0.0,0.0,0.0,0.0,0.0,0.0,0.0,0.0,0.0,0.0,0.0,0.0,0.0,0.0,0.0,0.0,0.0,0.0,0.0,0.0,0.0,0.0,0.0,0.0,0.0,0.0,0.0,0.0,0.0,0.0,0.0,0.0,0.0,0.0,0.0,0.0,0.0,0.0,0.0,0.0,0.0,0.0,0.0,0.0,0.0,0.0,0.0,0.0,0.0,0.0,0.0,0.0,0.0,0.0,0.0,0.0,0.0,-2.8027,-3.3414,-3.696,-3.9094,-3.9647,-3.8391,-3.6235,-3.2984,0.0,0.0,0.0,0.0,0.0,0.0,0.0,0.0,0.0,0.0,0.0,0.0,0.0,0.0,0.0,0.0,0.0,0.0,0.0,0.0,0.0,0.0,0.0,0.0,0.0,0.0,0.0,0.0,0.0,0.0,0.0,0.0,0.0,0.0,0.0,0.0,0.0,0.0,0.0,0.0,0.0,0.0,0.0,0.0,0.0,0.0,0.0,0.0,0.0,0.0,0.0,0.0,0.0,0.0,0.0,0.0,0.0,0.0,0.0,0.0,0.0,0.0,0.0,0.0,0.0,0.0,0.0,0.0,0.0,0.0,0.0,0.0,0.0,0.0,0.0,0.0,0.0,0.0,0.0,0.0,0.0,0.0,0.0,0.0,0.0,0.0,0.0,0.0,0.0,0.0,0.0,0.0,0.0,0.0,0.0,0.0,0.0,0.0,0.0,0.0,0.0,0.0,0.0,-2.7591,-3.0219,-3.5102,-3.7563,-3.9094,-3.9647,-3.8417,-3.6363,-3.3408,-3.2469,0.0,0.0,0.0,0.0,0.0,0.0,0.0,0.0,0.0,0.0,0.0,0.0,0.0,0.0,0.0,0.0,0.0,0.0,0.0,0.0,0.0,0.0,0.0,0.0,0.0,0.0,0.0,0.0,0.0,0.0,0.0,0.0,0.0,0.0,0.0,0.0,0.0,0.0,0.0,0.0,0.0,0.0,0.0,0.0,0.0,0.0,0.0,0.0,0.0,0.0,0.0,0.0,0.0,0.0,0.0,0.0,0.0,0.0,0.0,0.0,0.0,0.0,0.0,0.0,0.0,0.0,0.0,0.0,0.0,0.0,0.0,0.0,0.0,0.0,0.0,0.0,0.0,0.0,0.0,0.0,0.0,0.0,0.0,0.0,0.0,0.0,0.0,0.0,0.0,0.0,0.0,0.0,0.0,0.0,0.0,0.0,0.0,0.0,0.0,0.0,0.0,0.0,-3.0209,-3.2496,-3.6182,-3.8114,-3.922,-3.9672,-3.8417,-3.6463,-3.3756,-3.2123,0.0,0.0,0.0,0.0,0.0,0.0,0.0,0.0,0.0,0.0,0.0,0.0,0.0,0.0,0.0,0.0,0.0,0.0,0.0,0.0,0.0,0.0,0.0,0.0,0.0,0.0,0.0,0.0,0.0,0.0,0.0,0.0,0.0,0.0,0.0,0.0,0.0,0.0,0.0,0.0,0.0,0.0,0.0,0.0,0.0,0.0,0.0,0.0,0.0,0.0,0.0,0.0,0.0,0.0,0.0,0.0,0.0,0.0,0.0,0.0,0.0,0.0,0.0,0.0,0.0,0.0,0.0,0.0,0.0,0.0,0.0,0.0,0.0,0.0,0.0,0.0,0.0,0.0,0.0,0.0,0.0,0.0,0.0,0.0,0.0,0.0,0.0,0.0,0.0,0.0,0.0,0.0,0.0,0.0,0.0,0.0,0.0,0.0,0.0,0.0,0.0,0.0,-3.1638,-3.4345,-3.6885,-3.8642,-3.9647,-3.9697,-3.7739,-3.5662,-3.3707,-3.1405,0.0,0.0,0.0,0.0,0.0,0.0,0.0,0.0,0.0,0.0,0.0,0.0,0.0,0.0,0.0,0.0,0.0,0.0,0.0,0.0,0.0,0.0,0.0,0.0,0.0,0.0,0.0,0.0,0.0,0.0,0.0,0.0,0.0,0.0,0.0,0.0,0.0,0.0,0.0,0.0,0.0,0.0,0.0,0.0,0.0,0.0,0.0,0.0,0.0,0.0,0.0,0.0,0.0,0.0,0.0,0.0,0.0,0.0,0.0,0.0,0.0,0.0,0.0,0.0,0.0,0.0,0.0,0.0,0.0,0.0,0.0,0.0,0.0,0.0,0.0,0.0,0.0,0.0,0.0,0.0,0.0,0.0,0.0,0.0,0.0,0.0,0.0,0.0,0.0,0.0,0.0,0.0,0.0,0.0,0.0,0.0,0.0,0.0,0.0,0.0,0.0,0.0,-3.178,-3.4134,-3.7839,-3.8793,-3.917,-3.917,-3.7941,-3.6146,-3.3756,0.0,0.0,0.0,0.0,0.0,0.0,0.0,0.0,0.0,0.0,0.0,0.0,0.0,0.0,0.0,0.0,0.0,0.0,0.0,0.0,0.0,0.0,0.0,0.0,0.0,0.0,0.0,0.0,0.0,0.0,0.0,0.0,0.0,0.0,0.0,0.0,0.0,0.0,0.0,0.0,0.0,0.0,0.0,0.0,0.0,0.0,0.0,0.0,0.0,0.0,0.0,0.0,0.0,0.0,0.0,0.0,0.0,0.0,0.0,0.0,0.0,0.0,0.0,0.0,0.0,0.0,0.0,0.0,0.0,0.0,0.0,0.0,0.0,0.0,0.0,0.0,0.0,0.0,0.0,0.0,0.0,0.0,0.0,0.0,0.0,0.0,0.0,0.0,0.0,0.0,0.0,0.0,0.0,0.0,0.0,0.0,0.0,0.0,0.0,0.0,0.0,0.0,-3.0696,-3.1978,-3.4145,-3.8317,-3.8592,-3.8567,-3.8742,-3.7443,-3.5705,-3.3623,0.0,0.0,0.0,0.0,0.0,0.0,0.0,0.0,0.0,0.0,0.0,0.0,0.0,0.0,0.0,0.0,0.0,0.0,0.0,0.0,0.0,0.0,0.0,0.0,0.0,0.0,0.0,0.0,0.0,0.0,0.0,0.0,0.0,0.0,0.0,0.0,0.0,0.0,0.0,0.0,0.0,0.0,0.0,0.0,0.0,0.0,0.0,0.0,0.0,0.0,0.0,0.0,0.0,0.0,0.0,0.0,0.0,0.0,0.0,0.0,0.0,0.0,0.0,0.0,0.0,0.0,0.0,0.0,0.0,0.0,0.0,0.0,0.0,0.0,0.0,0.0,0.0,0.0,0.0,0.0,0.0,0.0,0.0,0.0,0.0,0.0,0.0,0.0,0.0,0.0,0.0,0.0,0.0,0.0,0.0,0.0,0.0,0.0,0.0,0.0,0.0,0.0,-3.0894,-3.2391,-3.4533,-3.8015,-3.7916,-3.7817,-3.8439,-3.5953,-3.4049,0.0,0.0,0.0,0.0,0.0,0.0,0.0,0.0,0.0,0.0,0.0,0.0,0.0,0.0,0.0,0.0,0.0,0.0,0.0,0.0,0.0,0.0,0.0,0.0,0.0,0.0,0.0,0.0,0.0,0.0,0.0,0.0,0.0,0.0,0.0,0.0,0.0,0.0,0.0,0.0,0.0,0.0,0.0,0.0,0.0,0.0,0.0,0.0,0.0,0.0,0.0,0.0,0.0,0.0,0.0,0.0,0.0,0.0,0.0,0.0,0.0,0.0,0.0,0.0,0.0,0.0,0.0,0.0,0.0,0.0,0.0,0.0,0.0,0.0,0.0,0.0,0.0,0.0,0.0,0.0,0.0,0.0,0.0,0.0,0.0,0.0,0.0,0.0,0.0,0.0,0.0,0.0,0.0,0.0,0.0,0.0,0.0,0.0,0.0,0.0,0.0,0.0,0.0,-3.1504,-3.2636,-3.4339,-3.7294,-3.7467,-3.727,-3.7023,-3.5473,-3.3977,-3.272,0.0,0.0,0.0,0.0,0.0,0.0,0.0,0.0,0.0,0.0,0.0,0.0,0.0,0.0,0.0,0.0,0.0,0.0,0.0,0.0,0.0,0.0,0.0,0.0,0.0,0.0,0.0,0.0,0.0,0.0,0.0,0.0,0.0,0.0,0.0,0.0,0.0,0.0,0.0,0.0,0.0,0.0,0.0,0.0,0.0,0.0,0.0,0.0,0.0,0.0,0.0,0.0,0.0,0.0,0.0,0.0,0.0,0.0,0.0,0.0,0.0,0.0,0.0,0.0,0.0,0.0,0.0,0.0,0.0,0.0,0.0,0.0,0.0,0.0,0.0,0.0,0.0,0.0,0.0,0.0,0.0,0.0,0.0,0.0,0.0,0.0,0.0,0.0,0.0,0.0,0.0,0.0,0.0,0.0,0.0,0.0,0.0,0.0,0.0,0.0,0.0,0.0,-3.2064,-3.2572,-3.398,-3.7268,-3.6923,-3.6382,-3.6235,-3.4942,-3.3601,-3.2299,0.0,0.0,0.0,0.0,0.0,0.0,0.0,0.0,0.0,0.0,0.0,0.0,0.0,0.0,0.0,0.0,0.0,0.0,0.0,0.0,0.0,0.0,0.0,0.0,0.0,0.0,0.0,0.0,0.0,0.0,0.0,0.0,0.0,0.0,0.0,0.0,0.0,0.0,0.0,0.0,0.0,0.0,0.0,0.0,0.0,0.0,0.0,0.0,0.0,0.0,0.0,0.0,0.0,0.0,0.0,0.0,0.0,0.0,0.0,0.0,0.0,0.0,0.0,0.0,0.0,0.0,0.0,0.0,0.0,0.0,0.0,0.0,0.0,0.0,0.0,0.0,0.0,0.0,0.0,0.0,0.0,0.0,0.0,0.0,0.0,0.0,0.0,0.0,0.0,0.0,0.0,0.0,0.0,0.0,0.0,0.0,0.0,0.0,0.0,0.0,0.0,0.0,-3.2386,-3.2342,-3.3457,-3.7414,-3.621,-3.5357,-3.5843,-3.4483,-3.3123,-3.2054,0.0,0.0,0.0,0.0,0.0,0.0,0.0,0.0,0.0,0.0,0.0,0.0,0.0,0.0,0.0,0.0,0.0,0.0,0.0,0.0,0.0,0.0,0.0,0.0,0.0,0.0,0.0,0.0,0.0,0.0,0.0,0.0,0.0,0.0,0.0,0.0,0.0,0.0,0.0,0.0,0.0,0.0,0.0,0.0,0.0,0.0,0.0,0.0,0.0,0.0,0.0,0.0,0.0,0.0,0.0,0.0,0.0,0.0,0.0,0.0,-2.6267,-2.6301,0.0,0.0,0.0,0.0,0.0,0.0,0.0,0.0,0.0,0.0,0.0,0.0,0.0,0.0,0.0,0.0,0.0,0.0,0.0,0.0,0.0,0.0,0.0,0.0,0.0,0.0,0.0,0.0,0.0,0.0,0.0,0.0,0.0,0.0,0.0,0.0,0.0,0.0,0.0,0.0,-3.166,-3.1834,-3.2702,-3.5235,-3.5137,-3.492,-3.504,-3.4028,-3.2919,-3.1834,-3.073,0.0,0.0,0.0,0.0,0.0,0.0,0.0,0.0,0.0,0.0,0.0,0.0,0.0,0.0,0.0,0.0,0.0,0.0,0.0,0.0,0.0,0.0,0.0,0.0,0.0,0.0,0.0,0.0,0.0,0.0,0.0,0.0,0.0,0.0,0.0,0.0,0.0,0.0,0.0,0.0,0.0,0.0,0.0,0.0,0.0,0.0,0.0,0.0,0.0,0.0,0.0,0.0,0.0,0.0,0.0,0.0,0.0,0.0,0.0,-2.9197,-2.8503,0.0,0.0,0.0,0.0,0.0,0.0,0.0,0.0,0.0,0.0,0.0,0.0,0.0,0.0,0.0,0.0,0.0,0.0,0.0,0.0,0.0,0.0,0.0,0.0,0.0,0.0,0.0,0.0,0.0,0.0,0.0,0.0,0.0,0.0,0.0,0.0,0.0,0.0,0.0,0.0,-3.2039,-3.2364,-3.3256,-3.5357,-3.5453,-3.5308,-3.5211,-3.47,-3.3876,-3.2672,-3.1409,0.0,0.0,0.0,0.0,0.0,0.0,0.0,0.0,0.0,0.0,0.0,0.0,0.0,0.0,0.0,0.0,0.0,0.0,0.0,0.0,0.0,0.0,0.0,0.0,0.0,0.0,0.0,0.0,0.0,0.0,0.0,0.0,0.0,0.0,0.0,0.0,0.0,0.0,0.0,0.0,0.0,0.0,0.0,0.0,0.0,0.0,0.0,0.0,0.0,0.0,0.0,0.0,0.0,-3.3944,-3.4769,-3.5592,-3.475,-3.5149,-3.6414,-3.3612,-3.2104,-3.1553,-3.0606,0.0,0.0,0.0,0.0,0.0,0.0,0.0,0.0,0.0,0.0,0.0,0.0,0.0,0.0,0.0,0.0,0.0,0.0,0.0,0.0,0.0,0.0,-3.0879,-3.1312,-3.1769,-3.1697,-3.0302,0.0,0.0,0.0,0.0,0.0,0.0,0.0,0.0,0.0,0.0,0.0,-3.2487,-3.294,-3.3929,-3.5917,-3.5941,-3.5746,-3.5696,-3.5549,-3.4964,-3.3825,-3.2342,-3.1137,0.0,0.0,0.0,0.0,0.0,0.0,0.0,0.0,0.0,0.0,0.0,0.0,0.0,0.0,0.0,0.0,0.0,0.0,0.0,0.0,0.0,0.0,0.0,0.0,0.0,0.0,0.0,0.0,0.0,0.0,0.0,0.0,-2.7293,-2.751,0.0,0.0,0.0,0.0,0.0,0.0,0.0,0.0,0.0,0.0,0.0,0.0,0.0,-3.2724,-3.4064,-3.4102,-3.4902,-3.6403,-3.7478,-3.8559,-3.9666,-3.9938,-4.0497,-4.1105,-4.0645,0.0,-3.341,-3.0897,0.0,0.0,0.0,0.0,0.0,0.0,0.0,0.0,0.0,0.0,0.0,0.0,0.0,0.0,0.0,0.0,0.0,0.0,0.0,0.0,0.0,0.0,-3.3478,-3.355,-3.3622,-3.3549,-3.2899,-3.1673,-3.0374,-2.9388,-2.9244,-2.9124,0.0,0.0,0.0,0.0,0.0,0.0,-3.1665,-3.2295,-3.3212,-3.4872,-3.4992,-3.5259,-3.5965,-3.5356,-3.4751,-3.4407,-3.3083,-3.1886,-3.085,-2.9749,0.0,0.0,0.0,0.0,0.0,0.0,0.0,0.0,0.0,0.0,0.0,0.0,0.0,0.0,0.0,0.0,0.0,0.0,0.0,0.0,0.0,0.0,0.0,0.0,0.0,0.0,0.0,0.0,0.0,-2.8147,-2.8762,-2.8829,-2.9696,-2.9899,0.0,0.0,0.0,0.0,0.0,0.0,0.0,0.0,0.0,-3.1334,-3.421,-3.5995,-3.6341,-3.7659,-3.8986,-4.0269,-4.1046,-4.1971,-4.3048,-4.3,-4.3409,-4.4178,-4.389,-4.2086,-3.9043,-3.5756,-3.3707,-3.2417,0.0,0.0,0.0,0.0,-3.0571,-3.1518,-3.2889,-3.3625,-3.4078,-3.4727,0.0,0.0,0.0,0.0,0.0,0.0,0.0,-3.1913,-3.2515,-3.3789,-3.5064,-3.5665,-3.5809,-3.5665,-3.516,-3.4246,-3.2875,-3.0615,-3.0182,-2.9917,-2.91,-2.8715,0.0,0.0,0.0,-3.0999,-3.201,-3.3116,-3.4125,-3.4945,-3.5308,-3.5745,-3.6211,-3.6185,-3.5941,-3.5405,-3.4241,-3.3037,-3.1841,-3.0759,-2.9977,0.0,0.0,0.0,0.0,0.0,0.0,0.0,0.0,0.0,0.0,0.0,0.0,0.0,0.0,0.0,0.0,0.0,0.0,0.0,0.0,0.0,0.0,0.0,0.0,0.0,0.0,0.0,0.0,-2.9326,-2.9999,-2.9731,-3.0941,-3.129,0.0,0.0,0.0,0.0,0.0,0.0,-3.1547,-3.3595,-3.4411,-3.3578,-3.7402,-3.9443,-3.9394,-4.1389,-4.2856,-4.377,-4.4275,-4.4948,-4.5718,-4.5269,-4.551,-4.6295,-4.591,-4.5213,-4.4034,-4.0331,-3.7781,-3.6074,-3.4487,-3.3573,-3.3164,-3.3693,-3.4054,-3.4535,-3.6218,-3.6916,-3.7012,-3.6867,-3.593,-3.4438,-3.2491,0.0,0.0,0.0,0.0,-3.3741,-3.4775,-3.6026,-3.7228,-3.8022,-3.8214,-3.8022,-3.7372,-3.6819,-3.5449,-3.213,-3.148,-3.1144,-3.0086,-2.9581,0.0,-2.9845,-3.111,-3.2192,-3.2702,-3.4075,-3.5114,-3.5454,-3.6064,-3.6554,-3.6924,-3.6948,-3.6799,-3.6431,-3.5185,-3.4046,-3.3015,-3.1854,-3.081,-3.0031,0.0,0.0,0.0,0.0,0.0,0.0,0.0,0.0,0.0,0.0,0.0,0.0,0.0,0.0,0.0,0.0,0.0,0.0,0.0,0.0,0.0,0.0,0.0,0.0,0.0,0.0,0.0,0.0,0.0,-2.9431,-3.1522,0.0,0.0,0.0,0.0,-3.435,-3.2555,-3.2765,-3.5986,-3.6248,-3.7346,-3.9651,-4.159,-4.3265,-4.4702,-4.5342,-4.5958,-4.6511,-4.704,-4.7329,-4.7377,-4.7353,-4.7377,-4.7425,-4.7401,-4.7064,-4.6271,-4.2543,-3.9777,-3.7709,-3.6122,-3.5184,-3.4727,-3.5304,-3.6146,-3.7084,-3.7685,-3.8262,-3.8864,-3.985,-3.8743,-3.6723,-3.5112,-3.3933,0.0,0.0,-3.4992,-3.6459,-3.7517,-3.9345,-4.0908,-4.098,-4.098,-4.0691,-3.9657,-3.9032,-3.7565,-3.3885,-3.3164,-3.2827,-3.1765,0.0,-3.1548,-3.1597,-3.2232,-3.2949,-3.3463,-3.4719,-3.5768,-3.6284,-3.6874,-3.7541,-3.8314,-3.7196,-3.6752,-3.7469,-3.579,-3.4644,-3.4313,-3.2873,-3.1777,-3.1132,-2.9946,0.0,0.0,0.0,0.0,0.0,0.0,0.0,0.0,0.0,0.0,0.0,0.0,0.0,0.0,0.0,0.0,0.0,0.0,0.0,0.0,0.0,0.0,0.0,0.0,0.0,0.0,0.0,0.0,-3.3308,-3.5917,0.0,-3.509,-3.5572,-3.6416,-3.7448,-3.7298,-3.7669,-3.8722,-4.0491,-4.1592,-4.1756,-4.4384,-4.577,-4.5762,-4.6865,-4.7377,-4.7233,-4.7425,-4.7497,-4.7497,-4.7497,-4.7497,-4.7497,-4.7497,-4.7401,-4.7088,-4.5429,-4.3481,-4.1413,-4.0186,-3.9176,-3.8479,-3.9008,-3.9441,-3.9874,-4.0763,-4.098,-4.0691,-3.9705,-3.8383,-3.7036,-3.6122,-3.5809,-3.5905,-3.6435,-3.7493,-3.8719,-3.9777,-4.086,-4.1774,-4.2169,-4.1677,-4.1076,-4.0691,-3.9946,-3.8839,-3.718,-3.5737,-3.4438,-3.338,-3.2923,-3.2827,-3.314,-3.3692,-3.4149,-3.4342,-3.538,-3.6134,-3.621,-3.665,-3.7288,-3.8158,-3.7096,-3.6505,-3.6826,-3.5178,-3.3857,-3.3081,-3.2196,-3.129,-3.0367,-2.9813,-2.9246,0.0,0.0,0.0,0.0,0.0,0.0,0.0,0.0,0.0,0.0,0.0,0.0,0.0,0.0,0.0,0.0,0.0,0.0,0.0,0.0,0.0,0.0,0.0,0.0,0.0,-3.4035,-3.6162,-3.6724,-3.9209,-4.0324,-3.8916,-3.9552,-4.0314,-4.0789,-4.1613,-4.2296,-4.2747,-4.4347,-4.5061,-4.4778,-4.687,-4.7698,-4.7118,-4.8056,-4.8291,-4.7762,-4.7762,-4.7666,-4.7497,-4.7497,-4.7497,-4.7497,-4.7497,-4.7497,-4.7473,-4.7112,-4.603,-4.4467,-4.3241,-4.223,-4.1485,-4.1846,-4.1966,-4.2086,-4.2976,-4.2928,-4.2206,-4.0451,-3.9272,-3.8407,-3.7709,-3.7733,-3.8142,-3.8864,-3.9705,-4.0643,-4.1701,-4.2495,-4.3024,-4.3024,-4.2471,-4.187,-4.1533,-4.0763,-3.9994,-3.9441,-3.7757,-3.6146,-3.5256,-3.4679,-3.4463,-3.4751,-3.504,-3.5258,-3.5427,-3.6254,-3.6844,-3.6897,-3.7414,-3.7959,-3.8361,-3.7345,-3.6503,-3.6132,-3.47,-3.3489,-3.2487,-3.192,-3.1164,-3.0196,-2.9642,-2.9156,-2.8791,0.0,0.0,0.0,0.0,0.0,0.0,0.0,0.0,0.0,0.0,0.0,0.0,0.0,0.0,0.0,0.0,0.0,0.0,0.0,0.0,0.0,0.0,0.0,-3.3277,-3.6232,-3.8757,-3.9477,-4.1136,-4.1914,-4.1023,-4.2721,-4.3986,-4.4453,-4.5085,-4.6281,-4.8247,-4.7468,-4.7679,-4.9109,-4.9109,-4.9109,-4.9109,-4.9084,-4.882,-4.8315,-4.8291,-4.8002,-4.7521,-4.7521,-4.7497,-4.7497,-4.7497,-4.7497,-4.7497,-4.7497,-4.7209,-4.6583,-4.4957,-4.3997,-4.3577,-4.3553,-4.3529,-4.3625,-4.4093,-4.3925,-4.3337,-4.2327,-4.1629,-4.1004,-3.997,-3.9657,-3.9874,-4.0932,-4.1605,-4.223,-4.3265,-4.4323,-4.4789,-4.3794,-4.3505,-4.3216,-4.2206,-4.1581,-4.1028,-4.0523,-3.9152,-3.7878,-3.7348,-3.6819,-3.6459,-3.6459,-3.6227,0.0,-3.6717,-3.7293,-3.7842,-3.8363,-3.9192,-3.9471,-3.8919,-3.7789,-3.6684,-3.5533,-3.4424,-3.3458,-3.2673,-3.2127,-3.1455,-3.0663,-2.9471,-2.8816,-2.8816,0.0,0.0,0.0,0.0,0.0,0.0,0.0,0.0,0.0,0.0,0.0,0.0,0.0,0.0,0.0,0.0,0.0,0.0,0.0,0.0,0.0,-3.5429,-3.7211,-3.6708,-3.9768,-4.241,-4.3409,-4.5998,-4.7491,-4.6882,-4.7997,-4.8796,-4.894,-4.9123,-4.9268,-4.9445,-4.9577,-4.9626,-4.9662,-5.0046,-5.007,-4.9662,-4.9277,-4.9012,-4.8844,-4.8074,-4.7834,-4.805,-4.7666,-4.7497,-4.7497,-4.7497,-4.7497,-4.7497,-4.7497,-4.7425,-4.7161,-4.5958,-4.5405,-4.5164,-4.4333,-4.4069,-4.4069,-4.4237,-4.3925,-4.3409,-4.276,-4.2241,-4.1629,-4.0956,-4.0739,-4.098,-4.2097,-4.2482,-4.2784,-4.3842,-4.4285,-4.4429,-4.4117,-4.3529,-4.294,-4.2651,-4.1822,-4.1148,-4.1004,-4.0306,-3.9441,-3.8527,-3.7926,-3.7541,-3.7541,-3.7473,-3.7356,-3.7115,-3.774,-3.8197,-3.8181,-3.8908,-3.9265,-3.8919,-3.7111,-3.5658,-3.4956,-3.2792,-3.1395,-3.1163,-3.0678,-3.0184,-2.9747,-2.9711,-2.9665,0.0,0.0,0.0,0.0,0.0,0.0,0.0,0.0,0.0,0.0,0.0,0.0,0.0,0.0,0.0,0.0,0.0,0.0,0.0,0.0,0.0,0.0,-3.8749,-4.1413,-4.2182,-4.3962,-4.5669,-4.6968,-4.894,-5.0095,-4.9782,-5.0744,-5.1273,-5.1056,-5.1441,-5.1465,-5.0912,-5.1177,-5.1225,-5.0888,-5.1201,-5.0984,-5.0215,-4.9902,-4.9517,-4.906,-4.8459,-4.8315,-4.8603,-4.8074,-4.7834,-4.781,-4.7593,-4.7497,-4.7497,-4.7497,-4.7497,-4.7425,0.0,0.0,0.0,0.0,-4.4477,-4.4285,-4.4285,-4.4069,-4.3746,-4.3,-4.2602,-4.2217,-4.1413,-4.1172,-4.1365,-4.2265,-4.2651,-4.3012,-4.377,-4.4285,-4.4501,-4.4045,-4.3529,-4.2952,-4.2578,-4.1774,-4.1172,-4.1172,-4.0763,0.0,-3.9296,-3.8695,-3.8262,-3.8022,-3.7781,-3.7613,-3.7541,-3.7875,-3.8108,-3.8191,-3.8654,-3.8789,-3.8366,-3.6589,0.0,0.0,0.0,-3.1185,-3.0959,-3.0553,0.0,0.0,0.0,-3.0392,-3.0474,-3.0663,0.0,0.0,-2.9391,-2.9366,0.0,0.0,0.0,0.0,0.0,0.0,0.0,0.0,0.0,0.0,0.0,0.0,0.0,0.0,0.0,0.0,-4.2388,-4.5694,-4.8291,-4.8291,-4.8555,-4.9974,-5.0624,-5.096,-5.096,-5.1874,-5.2259,-5.1778,-5.262,-5.2932,-5.2403,-5.2427,0.0,0.0,0.0,-5.1706,-5.072,-5.0576,-5.007,-4.9157,-4.9109,-4.9084,-4.906,-4.8531,-4.8267,-4.8171,-4.7714,-4.7497,-4.7497,-4.7497,-4.7497,-4.7449,-4.6992,-4.6728,-4.6511,-4.5573,-4.4837,-4.4357,-4.4309,0.0,0.0,-4.312,-4.2867,-4.2699,-4.1581,-4.1317,-4.1461,-4.1942,-4.2447,-4.2952,-4.3385,-4.4227,-4.4708,-4.3746,-4.3409,-4.3096,-4.2158,-4.1557,-4.1172,-4.1172,-4.0812,-4.0306,-3.9777,-3.92,-3.8623,-3.807,-3.7589,-3.7445,-3.7926,-3.7851,-3.7938,-3.84,-3.8502,0.0,-3.7767,-3.6418,-3.5132,-3.4073,-3.2817,-3.1913,-3.1411,-3.1248,-3.1231,-3.1486,-3.1208,-3.1158,-3.1398,-3.1281,-3.1223,-3.1223,-3.11,-3.0984,0.0,0.0,0.0,0.0,0.0,0.0,0.0,0.0,0.0,0.0,0.0,0.0,0.0,0.0,0.0,-4.2663,-4.5669,-4.8315,-5.0551,-5.1153,-5.1465,-5.1778,-5.2283,-5.262,-5.262,-5.3173,-5.3485,-5.3365,-5.3558,-5.3437,-5.2932,-5.3293,-5.3149,-5.2307,-5.1874,-5.1345,-5.072,-4.983,-4.9493,-4.971,-4.9277,0.0,-4.906,-4.8531,-4.805,-4.7642,-4.7545,-4.7497,-4.7497,-4.7497,-4.7497,-4.7497,-4.7401,-4.6824,-4.6054,-4.5838,-4.5429,-4.4861,-4.4429,-4.4285,-4.4117,-4.312,-4.3048,-4.3168,-4.2134,-4.2169,0.0,-4.2651,-4.2976,-4.3385,-4.3481,-4.3673,-4.377,-4.3553,-4.288,-4.2206,-4.2014,-4.1557,-4.1172,-4.1172,-4.11,-4.086,-4.0331,-3.9441,-3.8623,-3.807,-3.7902,-3.7853,-3.7974,-3.8323,-3.8613,-3.8712,-3.9158,-3.9244,-3.8693,-3.7161,-3.573,-3.4625,-3.2667,-3.1512,-3.1386,-3.1345,-3.1546,-3.2039,-3.2474,-3.2882,-3.3376,-3.374,-3.394,-3.3915,-3.1819,-3.1058,0.0,0.0,0.0,0.0,0.0,0.0,0.0,0.0,0.0,0.0,0.0,-3.5793,-3.7823,0.0,-4.2951,-4.5501,-4.8387,-5.0576,-5.1369,-5.2187,-5.2572,-5.2307,-5.2524,-5.2788,-5.3053,-5.3293,-5.3558,-5.3798,-5.3822,-5.3702,-5.3461,-5.3197,-5.2932,-5.2692,-5.1898,-5.1105,-5.0287,-5.0287,-5.0022,-4.9469,-4.9758,-4.9734,-4.9445,-4.8916,-4.8387,-4.7882,-4.7617,-4.7497,-4.7497,-4.7696,-4.763,-4.7497,-4.7696,-4.6979,-4.5934,-4.5934,-4.5429,-4.4645,-4.4381,-4.4285,-4.4117,-4.312,-4.3096,-4.3313,-4.2279,-4.241,-4.2819,-4.2819,-4.312,-4.3457,-4.3192,-4.3313,-4.3385,-4.2856,-4.2351,-4.1894,-4.1629,-4.1365,-4.1172,-4.1172,-4.1172,-4.1028,-4.0499,-3.9946,-3.9417,-3.8888,-3.8575,-3.846,-3.8597,-3.8567,-3.8631,-3.8788,-3.8958,-3.8941,-3.8666,-3.7263,-3.6006,-3.5132,-3.3822,-3.3068,-3.3068,-3.3068,-3.3194,-3.347,-3.3746,-3.4048,-3.4299,-3.46,-3.468,-3.4655,-3.3352,-3.2916,0.0,0.0,0.0,0.0,0.0,0.0,0.0,-3.2959,-3.4184,-3.6255,-3.773,-3.934,-4.1711,-4.4106,-4.6295,-4.8002,-5.0527,-5.2163,-5.185,-5.2355,-5.2644,-5.2331,-5.2379,-5.2644,-5.3173,-5.3221,-5.3389,-5.3798,-5.3822,-5.3774,-5.3678,-5.2788,-5.2427,-5.2764,-5.1634,-5.0648,-4.9948,-5.0648,-5.0431,-4.9253,-5.0119,-5.0239,-4.9686,-4.9157,-4.8628,-4.8098,-4.7756,-4.763,-4.763,-4.796,-4.7846,-4.7485,-4.7749,-4.6964,-4.579,-4.5886,-4.5317,-4.4573,-4.4357,-4.4285,-4.4117,-4.3216,-4.3265,-4.3505,-4.2567,-4.2639,-4.3048,-4.2988,-4.3192,-4.3385,-4.294,-4.2976,-4.3,-4.2158,-4.1894,-4.1701,-4.1268,-4.1172,-4.1172,-4.1172,-4.1172,-4.1052,-4.0619,-4.0547,-4.0331,-3.9705,-3.9152,-3.8924,-3.9169,-3.879,-3.8579,-3.8841,-3.8757,-3.8639,-3.854,-3.7415,-3.6408,-3.5708,-3.5132,-3.4781,-3.468,-3.468,-3.4731,-3.4831,-3.4876,-3.4926,-3.5052,-3.5052,-3.5052,-3.5052,-3.5052,-3.4977,-3.0589,-3.0401,-3.0964,-3.1336,-3.2142,-3.3717,0.0,-3.8137,-3.9067,-4.1456,-4.2434,-4.3337,-4.5068,-4.6776,-4.8628,-5.0696,-5.173,-5.2427,-5.2836,-5.2187,-5.1826,-5.2235,-5.2692,-5.3173,-5.3678,-5.3726,-5.375,-5.3822,-5.3822,-5.363,-5.3173,-5.2596,-5.2091,-5.1682,-5.0167,-4.9517,-4.9878,-4.9517,-4.9493,-4.9782,-4.9902,-4.9686,-4.9157,-4.8628,-4.8098,-4.7593,-4.7852,-4.796,-4.796,-4.8379,-4.802,-4.7256,-4.7256,-4.6408,-4.5285,-4.5742,-4.5862,-4.5558,-4.4621,-4.4285,-4.4189,-4.3625,-4.3794,-4.4069,-4.3529,-4.3721,-4.3997,-4.3577,-4.3457,-4.3385,-4.294,-4.2506,-4.211,-4.2014,-4.1629,-4.1244,-4.1196,-4.1172,-4.1172,-4.1172,-4.1172,-4.1172,-4.11,-4.11,-4.0763,-3.9753,-3.9152,-3.8924,-3.9169,-3.8949,-3.8893,-3.9206,-3.9415,-3.9345,-3.8894,-3.8216,-3.7387,-3.638,-3.5755,-3.5182,-3.4751,-3.468,-3.4906,-3.5408,-3.5408,-3.568,-3.6229,-3.6229,-3.6229,-3.6229,-3.6229,-3.5906,-3.173,-3.216,-3.3077,-3.3223,-3.4848,-3.7027,-3.9479,-4.0652,-4.1948,-4.4414,-4.5691,-4.668,-4.7978,-4.9277,-5.0335,-5.0936,-5.173,-5.2139,-5.1754,-5.1586,-5.1345,-5.0912,-5.1369,-5.2018,-5.2836,-5.2932,-5.3053,-5.3365,-5.3389,-5.3149,-5.2644,-5.1513,-5.0768,-5.0551,-4.9589,-4.9181,-4.9397,-4.9493,-4.9631,-4.9765,-4.9765,-4.9475,-4.8942,-4.8926,-4.8603,-4.8116,-4.8313,-4.8379,-4.8355,-4.8386,-4.805,-4.7458,-4.7332,-4.6812,-4.6081,-4.5628,-4.5197,-4.4885,-4.4429,-4.4069,-4.3818,-4.3577,-4.3673,-4.377,-4.3241,-4.3433,-4.3746,-4.3216,-4.3072,-4.2952,-4.2506,-4.2193,-4.1894,-4.1581,-4.1341,-4.1172,-4.1172,-4.1172,-4.1172,-4.1172,-4.1172,-4.1172,-4.1172,-4.1172,-4.1028,-4.0595,-3.9968,-3.9576,-3.9848,-3.9435,-3.9206,-3.949,-3.9645,-3.9597,-3.9371,-3.8843,-3.8165,-3.7362,-3.681,-3.6257,-3.5705,-3.568,-3.578,-3.6006,-3.6006,-3.6132,-3.6405,-3.6405,-3.6405,-3.6405,-3.6241,-3.6021,-3.2203,-3.344,-3.5011,-3.5333,-3.7646,-4.0339,-4.2123,-4.3421,-4.4977,-4.7215,-4.8348,-4.9181,-4.995,-5.0864,-5.1369,-5.0984,-5.1562,-5.1802,-5.1032,-5.0864,-5.0479,-4.9541,-4.9541,-4.9902,-5.0672,-5.1417,-5.2115,-5.2812,-5.2572,-5.2259,-5.1874,-5.0455,-4.9589,-4.9421,-4.906,-4.894,-4.9084,-4.9607,-4.9818,-4.985,-4.9534,-4.9193,-4.8962,-4.9082,-4.8944,-4.86,-4.8706,-4.8632,-4.8525,-4.8451,-4.804,-4.74,-4.7257,-4.6884,-4.6312,-4.5507,-4.5005,-4.4787,-4.4519,-4.4205,-4.3843,-4.3553,-4.3505,-4.3409,-4.2904,-4.3024,-4.3216,-4.2916,-4.2723,-4.2506,-4.2062,-4.187,-4.1653,-4.1268,-4.1172,-4.1172,-4.1172,-4.1172,-4.1172,-4.1172,-4.1172,-4.1172,-4.1172,-4.1172,-4.1172,-4.1172,-4.074,-4.0361,-4.0409,-3.9823,-3.9465,-3.9697,-3.9697,-3.9697,-3.9697,-3.932,-3.8793,-3.804,-3.7638,-3.7086,-3.643,-3.6405,-3.6405,-3.6405,-3.6405,-3.6405,-3.6405,-3.6405,-3.6405,-3.6405,-3.6193,-3.6003,-3.1484,-3.3465,-3.5844,-3.7505,-4.0315,-4.3373,-4.5934,-4.7353,-4.8579,-5.0215,-5.06,-5.0648,-5.0672,-5.1129,-5.1489,-5.1465,-5.1489,-5.1513,-5.1465,-5.0143,-4.894,-4.8411,-4.7449,-4.6848,-4.6872,-4.9229,-5.1177,-5.2235,-5.1345,-5.0768,-5.0744,-4.971,-4.8868,-4.8363,-4.8315,-4.8555,-4.906,-4.9426,-4.9898,-5.0385,-4.9339,-4.8962,-4.9271,-4.8846,-4.86,-4.86,-4.8942,-4.8774,-4.8327,-4.866,-4.7946,-4.6625,-4.66,-4.6093,-4.5319,-4.5294,-4.5613,-4.5919,-4.5072,-4.4755,-4.4596,-4.3758,-4.3505,-4.3409,-4.2904,-4.2819,-4.2843,-4.2819,-4.2458,-4.199,-4.1966,-4.1581,-4.1196,-4.1172,-4.1172,-4.1172,-4.1172,-4.1172,-4.1172,-4.1172,-4.1172,-4.1172,-4.1172,-4.1172,-4.1172,-4.1172,-4.1225,-4.1078,-4.0458,-4.0006,-3.9697,-3.9697,-3.9697,-3.9697,-3.9697,-3.9672,-3.9195,-3.8065,-3.799,-3.7487,-3.6455,-3.6405,-3.6405,-3.6405,-3.6405,-3.6405,-3.6405,-3.6405,-3.6405,-3.6405,-3.6405,-3.6121,-3.3501,-3.6278,-3.9643,-4.1995,-4.4645,-4.7189,-4.9102,-4.9898,-5.0274,-5.0443,-4.9173,-4.7954,-4.7593,-4.7112,-4.6992,-4.769,-4.8676,-4.9493,-4.983,-5.0046,-4.9301,-4.6992,-4.7016,-4.6889,-4.6021,-4.7871,-4.9541,-5.06,-5.0359,-5.0143,-5.0143,-4.9133,-4.8315,-4.7786,-4.8729,-4.9155,-4.8894,-4.9596,-5.0032,-5.0062,-4.9364,-4.9149,-4.9476,-4.9107,-4.9007,-4.9267,-4.9021,-4.881,-4.8609,-4.7921,-4.7394,-4.692,-4.6545,-4.6234,-4.5939,-4.5939,-4.6063,-4.6127,-4.5135,-4.4597,-4.4172,-4.3699,-4.3289,-4.2904,-4.2458,-4.2289,-4.2217,-4.1822,-4.1581,-4.1461,-4.1461,-4.1317,-4.1172,-4.1172,-4.1172,-4.1172,-4.1172,-4.1172,-4.1172,-4.1172,-4.1172,-4.1172,-4.1172,-4.1172,-4.1344,-4.1769,-4.1531,-4.1065,-4.0529,-4.0317,-4.0099,-3.9747,-3.9697,-3.9697,-3.9697,-3.9697,-3.9371,-3.8617,-3.8216,-3.7688,-3.6935,-3.6606,-3.6405,-3.6405,-3.6405,-3.6405,-3.6405,-3.6405,-3.6405,-3.6405,-3.6241,-3.6051,-3.574,-3.9113,-4.2903,-4.5314,-4.7607,-4.953,-5.0754,-5.0892,-5.0468,-4.9547,-4.7461,-4.5645,-4.4924,-4.3625,-4.3012,-4.4299,-4.542,-4.6617,-4.7762,-4.8455,-4.8233,-4.6415,-4.6593,-4.6432,-4.541,-4.6633,-4.8137,-4.9616,-4.9373,-4.9301,-4.9689,-4.8888,-4.8355,-4.8185,-4.9066,-4.9493,-4.9322,-4.9829,-4.9966,-4.9619,-4.9376,-4.9332,-4.9396,-4.9332,-4.9296,-4.9289,-4.9138,-4.8736,-4.8134,-4.7631,-4.7179,-4.6778,-4.6225,-4.6024,-4.5999,-4.5773,-4.5698,-4.5604,-4.5022,-4.4695,-4.4354,-4.3602,-4.3265,-4.2904,-4.2182,-4.1966,-4.1894,-4.1557,-4.1461,-4.1461,-4.1461,-4.1461,-4.1413,-4.122,-4.1172,-4.1172,-4.1172,-4.1172,-4.1172,-4.1172,-4.1172,-4.123,-4.1344,-4.1459,-4.1688,-4.2142,-4.1811,-4.1285,-4.0821,-4.0475,-4.0099,-3.9747,-3.9697,-3.9697,-3.9697,-3.9697,-3.9371,-3.8617,-3.8417,-3.7889,-3.6935,-3.6782,-3.6606,-3.6405,-3.6405,-3.6405,-3.6405,-3.6405,-3.6405,-3.6405,-3.6241,-3.6098,-3.8165,-4.1867,-4.5633,-4.7513,-4.9236,-5.06,-5.1062,-5.0443,-4.9273,-4.7593,-4.5501,-4.3649,-4.2567,-4.0739,-3.9922,-4.1509,-4.2176,-4.3324,-4.5645,-4.5852,-4.5963,-4.6672,-4.6109,-4.5511,-4.4938,-4.5612,-4.6978,-4.9116,-4.833,-4.8166,-4.9222,-4.8871,-4.8821,-4.9355,-4.9338,-4.9608,-5.0124,-4.9983,-4.966,-4.9137,-4.9461,-4.9461,-4.9137,-4.9436,-4.9264,-4.8786,-4.9264,-4.8586,-4.7179,-4.7631,-4.723,-4.625,-4.5698,-4.5497,-4.5447,-4.4844,-4.4644,-4.4686,-4.4867,-4.5116,-4.5049,-4.3636,-4.3336,-4.3373,-4.2338,-4.2049,-4.2073,-4.199,-4.2049,-4.2014,-4.199,-4.1966,-4.1846,-4.1317,-4.1172,-4.1172,-4.1172,-4.1172,-4.1172,-4.1172,-4.1172,-4.1287,-4.1606,-4.1915,-4.2199,-4.2457,-4.2066,-4.1629,-4.1351,-4.04,-3.9722,-3.9697,-3.9697,-3.9697,-3.9697,-3.9697,-3.9245,-3.8165,-3.8542,-3.8165,-3.6556,-3.6933,-3.6933,-3.6405,-3.6405,-3.6405,-3.6405,-3.6405,-3.6405,-3.6405,-3.6405,-3.6288,-4.2323,-4.5654,-4.8735,-5.0097,-5.1038,-5.1426,-5.0419,-4.8944,-4.7076,-4.4742,-4.1514,-3.8575,-3.7132,-3.6723,-3.7156,-3.8743,-4.1735,-4.4577,-4.6776,-4.7395,-4.7503,-4.7102,-4.6576,-4.6197,-4.6217,-4.6415,-4.7184,-4.8832,-4.817,-4.8166,-4.9222,-4.8871,-4.8649,-4.8772,-4.943,-4.9636,-4.9364,-4.9541,-4.9611,-4.9461,-4.9525,-4.9525,-4.9436,-4.9163,-4.8912,-4.8736,-4.8058,-4.7469,-4.7043,-4.6828,-4.6552,-4.625,-4.5698,-4.5748,-4.5974,-4.4995,-4.4895,-4.5171,-4.4352,-4.4519,-4.4918,-4.387,-4.3899,-4.3999,-4.2749,-4.2642,-4.2743,-4.2204,-4.2313,-4.253,-4.2062,-4.1966,-4.1846,-4.1317,-4.1172,-4.1172,-4.1172,-4.1172,-4.1172,-4.1172,-4.1344,-4.1606,-4.1915,-4.2199,-4.2425,-4.2457,-4.2288,-4.1902,-4.1351,-4.0727,-4.0149,-3.9747,-3.9697,-3.9697,-3.9697,-3.9697,-3.9572,-3.927,-3.8617,-3.804,-3.7613,-3.6983,-3.6556,-3.6405,-3.6405,-3.6405,-3.6405,-3.6405,-3.6405,-3.6405,-3.6405,-3.6358,-4.5698,-4.836,-5.0544,-5.1423,-5.154,-5.098,-4.8898,-4.7131,-4.4877,-4.1289,-3.8007,-3.5235,-3.352,-3.3201,-3.3758,-3.5643,-3.9104,-4.25,-4.5271,-4.6811,-4.7734,-4.7808,-4.7905,-4.7819,-4.7432,-4.7546,-4.7983,-4.8711,-4.8444,-4.8561,-4.9429,-4.9181,-4.9131,-4.938,-4.9626,-4.9631,-4.9332,-4.9525,-4.959,-4.959,-4.959,-4.959,-4.959,-4.9264,-4.8862,-4.836,-4.8008,-4.7431,-4.6753,-4.6702,-4.6376,-4.5899,-4.5321,-4.5296,-4.5447,-4.4317,-4.4267,-4.4644,-4.4016,-4.4252,-4.4668,-4.3829,-4.4112,-4.4607,-4.3409,-4.3374,-4.3657,-4.3033,-4.2925,-4.2842,-4.2458,-4.2252,-4.2055,-4.1523,-4.1459,-4.1516,-4.1402,-4.1402,-4.1402,-4.1402,-4.1631,-4.1915,-4.2199,-4.2538,-4.2737,-4.2737,-4.2399,-4.1957,-4.1351,-4.0852,-4.03,-3.9747,-3.9697,-3.9697,-3.9697,-3.9697,-3.9597,-3.9346,-3.8969,-3.8517,-3.8015,-3.7412,-3.696,-3.6782,-3.6531,-3.6405,-3.6405,-3.6405,-3.6405,-3.6405,-3.6405,-3.6405,-4.836,-5.0218,-5.1498,-5.19,-5.1247,-4.9709,-4.6898,-4.4833,-4.2176,-3.7461,-3.4789,-3.2759,-3.1022,-3.0457,-3.0898,-3.3059,-3.6112,-3.9472,-4.3037,-4.5343,-4.7199,-4.8493,-4.9248,-4.9411,-4.854,-4.876,-4.8887,-4.8887,-4.8887,-4.9088,-4.9565,-4.959,-4.9816,-5.0293,-4.9841,-4.959,-4.959,-4.959,-4.959,-4.959,-4.959,-4.959,-4.959,-4.9515,-4.8912,-4.7933,-4.836,-4.7707,-4.6351,-4.6828,-4.6451,-4.5547,-4.497,-4.4744,-4.4593,-4.3489,-4.3388,-4.379,-4.3714,-4.4066,-4.4385,-4.3696,-4.4299,-4.5157,-4.4087,-4.4136,-4.447,-4.417,-4.3709,-4.3284,-4.2938,-4.2646,-4.2263,-4.1728,-4.1802,-4.1972,-4.172,-4.1663,-4.1663,-4.172,-4.1972,-4.2256,-4.2513,-4.2793,-4.2986,-4.2986,-4.2615,-4.2057,-4.153,-4.0902,-4.03,-3.9747,-3.9697,-3.9697,-3.9697,-3.9697,-3.9496,-3.907,-3.9371,-3.9145,-3.8165,-3.804,-3.7789,-3.7312,-3.6883,-3.6631,-3.6631,-3.6556,-3.6505,-3.6505,-3.643,-3.6405,-5.0218,-5.1398,-5.1875,-5.1523,-5.0293,-4.8297,-4.5062,-4.1404,-3.7766,-3.4222,-3.1575,-2.9582,-2.8366,-2.9852,-3.1841,-3.3567,-3.6922,-4.063,-4.4375,-4.5294,-4.6401,-4.8655,-4.8685,-4.8779,-4.9311,-4.9464,-4.9464,-4.9464,-4.9464,-4.949,-4.959,-4.959,-4.964,-4.9741,-4.964,-4.959,-4.959,-4.959,-4.959,-4.959,-4.959,-4.959,-4.9565,-4.9113,-4.8535,-4.7883,-4.7556,-4.7004,-4.6326,-4.6426,-4.6351,-4.6125,-4.5547,-4.5347,-4.5196,-4.4066,-4.3714,-4.374,-4.3288,-4.3489,-4.3991,-4.431,-4.4878,-4.526,-4.4376,-4.4516,-4.4819,-4.4495,-4.4361,-4.4094,-4.3333,-4.2739,-4.2263,-4.1728,-4.1663,-4.172,-4.1972,-4.2029,-4.2086,-4.2287,-4.24,-4.2513,-4.2874,-4.2986,-4.2986,-4.2986,-4.2886,-4.2635,-4.2082,-4.1128,-4.03,-3.9747,-3.9697,-3.9697,-3.9697,-3.9697,-3.9647,-3.9546,-3.922,-3.8919,-3.8718,-3.8266,-3.7965,-3.7864,-3.7764,-3.7713,-3.7713,-3.7262,-3.7036,-3.7036,-3.6631,-3.6405,-5.1172,-5.19,-5.1975,-5.1423,-4.959,-4.6753,-4.2258,-3.8792,-3.5344,-3.1173,-2.9397,-2.8313,-2.7421,-2.8845,-3.0712,-3.2425,-3.525,-3.8748,-4.3169,-4.4526,-4.6068,-4.8593,-4.9182,-4.9421,-4.959,-4.959,-4.959,-4.959,-4.959,-4.959,-4.959,-4.959,-4.959,-4.959,-4.959,-4.959,-4.959,-4.959,-4.959,-4.959,-4.959,-4.959,-4.959,-4.9314,-4.8887,-4.8335,-4.7782,-4.723,-4.6702,-4.6426,-4.615,-4.5824,-4.5246,-4.5221,-4.5321,-4.389,-4.3915,-4.4593,-4.4041,-4.4016,-4.4267,-4.4543,-4.502,-4.5372,-4.4644,-4.4985,-4.55,-4.4606,-4.4339,-4.4156,-4.3238,-4.2757,-4.2381,-4.211,-4.2061,-4.2118,-4.2256,-4.2199,-4.2142,-4.2481,-4.2513,-4.2625,-4.293,-4.2986,-4.2986,-4.2986,-4.2986,-4.2841,-4.2288,-4.1706,-4.1053,-4.0224,-3.9873,-3.9697,-3.9697,-3.9697,-3.9697,-3.9697,-3.9446,-3.9295,-3.9295,-3.8768,-3.8467,-3.8467,-3.8165,-3.8015,-3.8015,-3.7739,-3.7613,-3.7613,-3.7337,-3.7061,-5.1322,-5.1925,-5.195,-5.1272,-4.8736,-4.5095,-4.0023,-3.6684,-3.3376,-2.9001,-2.7921,-2.7584,-2.6991,-2.7887,-2.9274,0.0,-3.3063,-3.6104,-4.1026,-4.3216,-4.5301,-4.7958,-4.9414,-5.0067,-4.964,-4.959,-4.959,-4.959,-4.959,-4.959,-4.959,-4.959,-4.959,-4.959,-4.959,-4.959,-4.959,-4.959,-4.959,-4.959,-4.959,-4.959,-4.959,-4.959,-4.9289,-4.8736,-4.8284,-4.7732,-4.7043,-4.6677,-4.61,-4.5447,-4.5121,-4.5045,-4.4995,-4.3915,-4.4192,-4.507,-4.4744,-4.4543,-4.4493,-4.4719,-4.4945,-4.5045,-4.4593,-4.507,-4.5563,-4.4577,-4.422,-4.3962,-4.3193,-4.2765,-4.2513,-4.2513,-4.2513,-4.2625,-4.2625,-4.2425,-4.2369,-4.2594,-4.2625,-4.2681,-4.2986,-4.2986,-4.2986,-4.2986,-4.2986,-4.2866,-4.2439,-4.2288,-4.1886,-4.0953,-4.0275,-3.9823,-3.9697,-3.9697,-3.9697,-3.9697,-3.9697,-3.9697,-3.9697,-3.927,-3.9095,-3.9095,-3.8592,-3.8366,-3.8366,-3.8241,-3.8191,-3.8191,-3.8065,-3.7764,-5.0268,-5.1322,-5.185,-5.077,-4.728,-4.3187,-3.9724,-3.5177,-3.1085,-2.8624,-2.7354,-2.6625,-2.654,-2.7444,0.0,0.0,0.0,-3.4053,-3.8617,-4.1103,-4.3463,-4.62,-4.8385,-4.964,-4.959,-4.959,-4.959,-4.959,-4.959,-4.959,-4.959,-4.959,-4.959,-4.959,-4.959,-4.959,-4.959,-4.959,-4.959,-4.959,-4.959,-4.959,-4.959,-4.959,-4.9289,-4.8761,-4.8711,-4.8109,-4.7068,-4.7079,-4.6426,-4.5522,-4.5974,-4.5246,-4.4066,-4.4945,-4.4694,-4.4016,-4.4468,-4.4292,-4.4041,-4.507,-4.4744,-4.394,-4.389,-4.394,-4.4116,-4.446,-4.4209,-4.3751,-4.344,-4.296,-4.2513,-4.2513,-4.2737,-4.2986,-4.2986,-4.293,-4.293,-4.2986,-4.2986,-4.2986,-4.2961,-4.2986,-4.2986,-4.2986,-4.2986,-4.2961,-4.2911,-4.2514,-4.2162,-4.2062,-4.1078,-4.0249,-3.9747,-3.9697,-3.9697,-3.9697,-3.9697,-3.9697,-3.9697,-3.9647,-3.9622,-3.9622,-3.9572,-3.9546,-3.9546,-3.9019,-3.8844,-3.8768,-3.8241,-3.799,-4.8435,-5.0218,-5.1172,-4.9364,-4.5824,-4.1835,-3.7789,-3.3796,-3.0206,-2.7645,-2.7052,-2.6876,-2.6549,-2.7128,0.0,0.0,0.0,0.0,-3.6759,-3.8417,-4.0676,-4.4794,-4.6677,-4.8134,-4.9464,-4.959,-4.959,-4.959,-4.959,-4.959,-4.959,-4.959,-4.959,-4.959,-4.959,-4.959,-4.959,-4.959,-4.959,-4.959,-4.959,-4.959,-4.959,-4.959,-4.9464,-4.9238,-4.856,-4.8008,-4.7556,-4.6903,-4.6376,-4.5974,-4.5849,-4.5623,-4.5271,-4.5045,-4.5121,-4.5296,-4.5171,-4.4769,-4.4367,-4.4819,-4.4217,-4.3438,-4.4091,-4.4292,-4.4192,-4.3765,-4.3714,-4.3714,-4.3275,-4.2969,-4.2818,-4.2818,-4.293,-4.2986,-4.2986,-4.2986,-4.2986,-4.2986,-4.2986,-4.2986,-4.2986,-4.2986,-4.2986,-4.2986,-4.2986,-4.2986,-4.2986,-4.2785,-4.259,-4.2238,-4.148,-4.0724,-4.0249,-4.0199,-4.0049,-3.9722,-3.9697,-3.9697,-3.9697,-3.9697,-3.9697,-3.9697,-3.9697,-3.9697,-3.9697,-3.9471,-3.9371,-3.9371,-3.9145,-3.8843,-4.5707,-4.7958,-4.9389,-4.7631,-4.4166,-4.0302,-3.6681,0.0,-2.9779,-2.7656,-2.7369,-2.7394,-2.7052,0.0,0.0,0.0,0.0,-3.116,-3.5102,-3.6408,-3.8442,-4.2434,-4.4192,-4.5949,-4.8159,-4.9113,-4.959,-4.959,-4.959,-4.959,-4.959,-4.959,-4.959,-4.959,-4.959,-4.959,-4.959,-4.959,-4.959,-4.959,-4.959,-4.959,-4.959,-4.959,-4.959,-4.954,-4.8586,-4.8058,-4.7832,-4.6928,-4.6351,-4.605,-4.5824,-4.5773,-4.5748,-4.5296,-4.5522,-4.6024,-4.5799,-4.5246,-4.4644,-4.4819,-4.4016,-4.3162,-4.4091,-4.4267,-4.3966,-4.3187,-4.3263,-4.3463,-4.3087,-4.2986,-4.2986,-4.2986,-4.2986,-4.2986,-4.2986,-4.2986,-4.2986,-4.2986,-4.2986,-4.2986,-4.2986,-4.2986,-4.2986,-4.2986,-4.2986,-4.2986,-4.2986,-4.2986,-4.2891,-4.2489,-4.2057,-4.148,-4.0601,-4.0526,-4.0275,-3.9722,-3.9697,-3.9697,-3.9697,-3.9697,-3.9697,-3.9697,-3.9697,-3.9697,-3.9697,-3.9697,-3.9697,-3.9697,-3.9697,-3.9396,-4.1973,-4.4242,-4.6225,-4.5648,-4.2183,-3.8517,0.0,0.0,-2.9628,-2.8988,-2.8473,-2.8097,-2.8097,0.0,0.0,0.0,0.0,0.0,-3.3545,-3.5353,-3.7036,-3.8793,-4.0905,-4.3143,-4.5321,-4.7983,-4.959,-4.959,-4.959,-4.959,-4.959,-4.959,-4.959,-4.959,-4.959,-4.959,-4.959,-4.959,-4.959,-4.959,-4.959,-4.959,-4.959,-4.959,-4.959,-4.9565,-4.9012,-4.8435,-4.7857,-4.733,-4.6476,-4.5547,-4.61,-4.5623,-4.4769,-4.5899,-4.5949,-4.5573,-4.6125,-4.5573,-4.4719,-4.5296,-4.4342,-4.3087,-4.3639,-4.3438,-4.2986,-4.2986,-4.2986,-4.2986,-4.2986,-4.2986,-4.2986,-4.2986,-4.2986,-4.2986,-4.2986,-4.2986,-4.2986,-4.2986,-4.2986,-4.2986,-4.2986,-4.2986,-4.2986,-4.2986,-4.2986,-4.2986,-4.2986,-4.2986,-4.2986,-4.2961,-4.2961,-4.2308,-4.0651,-4.0526,-4.0275,-3.9722,-3.9697,-3.9697,-3.9697,-3.9697,-3.9697,-3.9697,-3.9697,-3.9697,-3.9697,-3.9697,-3.9697,-3.9697,-3.9697,-3.9396,-3.7335,-3.9396,-4.1003,-4.0049,-3.7638,-3.5027,-3.3345,0.0,-2.8825,-2.7519,-2.7695,-2.7996,-2.762,0.0,0.0,0.0,0.0,0.0,0.0,-3.5429,-3.7839,-4.0275,-4.4518,-4.7506,-4.8234,-4.9088,-4.959,-4.959,-4.959,-4.959,-4.959,-4.959,-4.959,-4.959,-4.959,-4.959,-4.959,-4.959,-4.959,-4.959,-4.959,-4.959,-4.959,-4.959,-4.959,-4.954,-4.8586,-4.8083,-4.7832,-4.6928,-4.6376,-4.6075,-4.625,-4.61,-4.5824,-4.6175,-4.62,-4.6075,-4.625,-4.5824,-4.5171,-4.497,-4.4292,-4.3514,-4.3288,-4.3112,-4.2986,-4.2986,-4.2986,-4.2986,-4.2986,-4.2986,-4.2986,-4.2986,-4.2986,-4.2986,-4.2986,-4.2986,-4.2986,-4.2986,-4.2986,-4.2986,-4.2986,-4.2986,-4.2986,-4.2986,-4.2986,-4.2986,-4.2986,-4.2986,-4.2986,-4.2986,-4.2986,-4.2459,-4.1125,-4.1025,-4.0676,-3.9747,-3.9697,-3.9697,-3.9697,-3.9697,-3.9697,-3.9697,-3.9697,-3.9697,-3.9697,-3.9697,-3.9697,-3.9697,-3.9697,-3.9396,0.0,-3.5454,-3.6835,-3.6132,-3.4424,0.0,0.0,0.0,0.0,0.0,0.0,0.0,0.0,0.0,0.0,0.0,0.0,0.0,-3.3011,-3.5324,-3.799,-4.0924,-4.5321,-4.8134,-4.8335,-4.9113,-4.959,-4.959,-4.959,-4.959,-4.959,-4.959,-4.959,-4.959,-4.959,-4.959,-4.959,-4.959,-4.959,-4.959,-4.959,-4.959,-4.959,-4.9389,-4.9289,-4.9213,-4.8109,-4.7606,0.0,-4.6677,-4.6301,-4.6301,-4.6301,-4.6301,-4.6301,-4.6301,-4.6301,-4.6301,-4.6301,-4.5799,-4.5095,-4.4744,-4.4116,-4.3413,-4.3087,-4.2986,-4.2986,-4.2986,-4.2986,-4.2986,-4.2986,-4.2986,-4.2986,-4.2986,-4.2986,-4.2986,-4.2986,-4.2986,-4.2986,-4.2986,-4.2986,-4.2986,-4.2986,-4.2986,-4.2986,-4.2986,-4.2986,-4.2986,-4.2986,-4.2986,-4.2986,-4.2986,-4.2841,-4.2384,-4.1706,-4.1401,-4.0824,-3.9772,-3.9697,-3.9697,-3.9697,-3.9697,-3.9697,-3.9697,-3.9697,-3.9697,-3.9697,-3.9697,-3.9697,-3.9697,-3.9697,-3.9521,0.0,-3.2315,-3.3507,-3.355,-3.2323,-3.0999,0.0,0.0,0.0,0.0,0.0,0.0,0.0,0.0,0.0,-3.0583,-3.111,-3.1838,-3.3011,-3.5273,-3.7965,-4.115,-4.4066,-4.5924,-4.6326,-4.8335,-4.959,-4.959,-4.959,-4.959,-4.959,-4.959,-4.959,-4.959,-4.959,-4.959,-4.959,-4.959,-4.959,-4.959,-4.9565,-4.954,-4.9515,-4.8962,-4.8711,-4.8661,-4.7581,-4.7068,-4.7043,-4.6552,-4.6301,-4.6301,-4.6301,-4.6301,-4.6301,-4.6301,-4.6301,-4.6301,-4.6276,-4.5573,-4.4669,-4.4593,-4.384,-4.2986,-4.2986,-4.2986,-4.2986,-4.3037,-4.3037,-4.3037,-4.3037,-4.3037,-4.3037,-4.2986,-4.2986,-4.2986,-4.3037,-4.3011,-4.2986,-4.3037,-4.3011,-4.2986,-4.2986,-4.2986,-4.2986,-4.2986,-4.2986,-4.2986,-4.2986,-4.2986,-4.2986,-4.2986,-4.2564,-4.2238,-4.2162,-4.1605,-4.0852,-3.9823,-3.9722,-3.9697,-3.9697,-3.9697,-3.9697,-3.9697,-3.9697,-3.9697,-3.9697,-3.9697,-3.9697,-3.9697,-3.9697,-3.9697,-2.9215,0.0,-2.9736,-3.0253,-2.9305,-2.8344,0.0,0.0,0.0,0.0,0.0,0.0,0.0,0.0,-3.0105,-3.106,-3.1662,-3.2416,-3.3545,-3.7838,-4.1555,-4.3614,-4.6677,-4.8184,-4.7054,-4.856,-4.959,-4.959,-4.959,-4.959,-4.959,-4.959,-4.959,-4.959,-4.959,-4.959,-4.959,-4.959,-4.959,-4.959,-4.9163,-4.8962,-4.8937,-4.836,-4.8109,-4.8083,-4.7405,-4.7068,-4.7043,-4.6552,-4.6301,-4.6301,-4.6301,-4.6301,-4.6301,-4.6301,-4.6301,-4.625,-4.5824,-4.5497,-4.5146,-4.4267,-4.3539,-4.2986,-4.2986,-4.2986,-4.3062,-4.3489,-4.3614,-4.3614,-4.3614,-4.3614,-4.3514,-4.3087,-4.2986,-4.3087,-4.3514,-4.3263,-4.3112,-4.3539,-4.3263,-4.2986,-4.2986,-4.2986,-4.2986,-4.2986,-4.2986,-4.2986,-4.2986,-4.2986,-4.2986,-4.2986,-4.2861,-4.2434,-4.1605,-4.1028,-4.0601,-4.035,-3.9923,-3.9697,-3.9697,-3.9697,-3.9697,-3.9697,-3.9697,-3.9697,-3.9697,-3.9697,-3.9697,-3.9697,-3.9697,-3.9697,-2.9563,-2.9181,-2.8999,-2.9639,-2.9031,-2.8481,0.0,0.0,0.0,0.0,0.0,0.0,0.0,-2.9378,-2.9829,-3.116,-3.1863,-3.3144,-3.5805,-3.9421,-4.2685,-4.5095,-4.7205,-4.841,-4.8284,-4.9063,-4.959,-4.959,-4.959,-4.959,-4.959,-4.9364,-4.9339,-4.959,-4.9088,-4.9063,-4.959,-4.959,-4.9464,-4.9213,-4.8912,-4.8636,-4.836,-4.7807,-4.7556,-4.7531,-4.7004,-4.6753,-4.6728,-4.6426,-4.6301,-4.6301,-4.6301,-4.6301,-4.6276,-4.6024,-4.5924,-4.5849,-4.5271,-4.492,-4.4568,-4.3714,-4.3212,-4.2986,-4.2986,-4.2986,-4.3037,-4.3338,-4.3614,-4.374,-4.3489,-4.3614,-4.374,-4.3438,-4.3162,-4.3137,-4.3689,-4.3363,-4.3062,-4.3363,-4.3187,-4.2986,-4.2986,-4.2986,-4.2986,-4.2986,-4.2986,-4.2986,-4.2986,-4.2986,-4.2986,-4.2986,-4.2816,-4.2359,-4.1756,-4.0978,-4.04,-4.0149,-3.9848,-3.9697,-3.9697,-3.9697,-3.9697,-3.9697,-3.9697,-3.9697,-3.9697,-3.9697,-3.9697,-3.9697,-3.9697,-3.9697,-3.0714,-3.0457,-3.0141,-3.0388,-2.9974,-2.9623,-3.0159,0.0,0.0,0.0,0.0,0.0,0.0,-2.9871,-2.974,-3.1286,-3.2416,-3.46,-3.8944,-4.0927,-4.3062,-4.5974,-4.7029,-4.7958,-4.9113,-4.9439,-4.959,-4.959,-4.959,-4.959,-4.959,-4.9063,-4.8987,-4.9464,-4.846,-4.836,-4.9314,-4.9339,-4.9113,-4.8636,-4.856,-4.8259,-4.7782,-4.7255,-4.7004,-4.6918,-4.6527,-4.6301,-4.6301,-4.6301,-4.625,-4.6175,-4.6175,-4.6125,-4.5999,-4.5522,-4.5347,-4.5271,-4.4694,-4.4141,-4.3589,-4.3137,-4.2986,-4.2986,-4.2986,-4.2986,-4.2986,-4.2986,-4.3363,-4.3689,-4.3212,-4.3438,-4.379,-4.3689,-4.3313,-4.3162,-4.379,-4.3438,-4.3037,-4.3187,-4.3087,-4.2986,-4.2986,-4.2986,-4.2986,-4.2986,-4.2986,-4.2986,-4.2986,-4.2986,-4.2986,-4.2986,-4.2615,-4.2313,-4.2213,-4.1304,-4.0501,-3.9848,-3.9747,-3.9697,-3.9697,-3.9697,-3.9697,-3.9697,-3.9697,-3.9697,-3.9697,-3.9697,-3.9697,-3.9697,-3.9697,-3.9697,-3.1235,-3.2124,-3.2515,-3.0958,-3.0023,-2.9537,-2.9672,0.0,0.0,0.0,0.0,0.0,0.0,-3.0279,-3.126,-3.1964,-3.4926,-3.8341,-4.1856,-4.379,-4.5221,-4.62,-4.8033,-4.8761,-4.7631,-4.8786,-4.959,-4.959,-4.959,-4.959,-4.959,-4.9063,-4.8812,-4.8887,-4.8259,-4.7983,-4.8159,-4.8159,-4.8134,-4.8033,-4.7606,-4.733,-4.7168,-4.6677,-4.6426,-4.6426,-4.6351,-4.6301,-4.6301,-4.6301,-4.6024,-4.5623,-4.5623,-4.5321,-4.4869,-4.4794,-4.4744,-4.4669,-4.4116,-4.3564,-4.3087,-4.3011,-4.2986,-4.2986,-4.2986,-4.2986,-4.2986,-4.2986,-4.3363,-4.379,-4.3689,-4.374,-4.3689,-4.3212,-4.3037,-4.3263,-4.4267,-4.3689,-4.3263,-4.4192,-4.3614,-4.2986,-4.2986,-4.2986,-4.2986,-4.2986,-4.2986,-4.2986,-4.2986,-4.2986,-4.2986,-4.2986,-4.2911,-4.266,-4.2263,-4.2062,-4.148,-4.045,-3.9948,-3.9697,-3.9697,-3.9697,-3.9697,-3.9697,-3.9697,-3.9697,-3.9697,-3.9697,-3.9697,-3.9697,-3.9697,-3.9697,-3.0945,-3.17,-3.2193,-3.1322,-3.1632,-3.197,-3.1223,-3.0278,0.0,0.0,0.0,0.0,0.0,-3.1628,-3.2883,-3.542,-3.8316,-4.1003,-4.3112,-4.4948,-4.6243,-4.6663,-4.8502,-4.9713,-4.9471,-4.9837,-5.0114,-5.0178,-4.9584,-4.9012,-4.8711,-4.8184,-4.8008,-4.8284,-4.7481,-4.7179,-4.7481,-4.7179,-4.7205,-4.7481,-4.7255,-4.6979,-4.6677,-4.6426,-4.615,-4.5874,-4.5874,-4.5673,-4.5397,-4.5397,-4.5246,-4.502,-4.502,-4.4844,-4.4593,-4.4292,-4.3991,-4.3689,-4.3438,-4.3187,-4.2986,-4.2986,-4.2986,-4.2986,-4.2986,-4.2986,-4.2986,-4.2986,-4.3363,-4.374,-4.3438,-4.3589,-4.3815,-4.3865,-4.3639,-4.3639,-4.4443,-4.3991,-4.3489,-4.3689,-4.3313,-4.2986,-4.2986,-4.2986,-4.2986,-4.2986,-4.2986,-4.2986,-4.2986,-4.2986,-4.2986,-4.2986,-4.2986,-4.276,-4.2263,-4.2213,-4.1681,-4.0576,-3.9998,-3.9697,-3.9697,-3.9697,-3.9697,-3.9697,-3.9697,-3.9697,-3.9697,-3.9697,-3.9697,-3.9697,-3.9697,-3.9697,-3.0772,-3.1264,-3.1698,-3.1524,0.0,-3.3594,-3.3112,-3.2388,-3.2005,0.0,0.0,0.0,0.0,-3.3554,-3.5046,-3.9539,-4.1845,-4.3538,-4.5005,-4.6851,-4.7937,-4.7716,-4.9386,-5.0785,-5.1475,-5.0883,-5.0538,-5.0698,-4.9492,-4.8636,-4.8368,-4.7529,-4.7428,-4.8114,-4.6924,-4.6527,-4.6928,-4.6527,-4.6527,-4.6892,-4.6892,-4.6652,-4.6125,-4.6125,-4.5824,-4.5296,-4.5296,-4.502,-4.4618,-4.4618,-4.4543,-4.4443,-4.4443,-4.4342,-4.4192,-4.3765,-4.3338,-4.2986,-4.2986,-4.2986,-4.2986,-4.2986,-4.2986,-4.2986,-4.2986,-4.2986,-4.2986,-4.2986,-4.3363,-4.3714,-4.3288,-4.3589,-4.4091,-4.4518,-4.4292,-4.4141,-4.4694,-4.4292,-4.3714,-4.3413,-4.3162,-4.2986,-4.2986,-4.2986,-4.2986,-4.2986,-4.2986,-4.2986,-4.2986,-4.2986,-4.2986,-4.2986,-4.2986,-4.2811,-4.2439,-4.2288,-4.1861,-4.0953,-4.0149,-3.9697,-3.9697,-3.9697,-3.9697,-3.9697,-3.9697,-3.9697,-3.9697,-3.9697,-3.9697,-3.9697,-3.9697,-3.9697,-3.1293,-3.1901,-3.2278,-3.164,-3.1613,-3.2307,-3.4656,-3.4174,-3.4122,-3.7119,-3.6578,-3.5664,-3.5853,-3.6222,-3.8227,-4.3413,-4.497,-4.6481,-4.908,-5.0996,-5.1489,-4.9634,-5.1163,-5.2091,-5.1564,-5.0976,-5.0601,-5.0707,-4.9492,-4.9075,-4.9629,-4.8019,-4.7592,-4.8771,-4.718,-4.6326,-4.6376,-4.6326,-4.6326,-4.6376,-4.6376,-4.6075,-4.5547,-4.5547,-4.5221,-4.4694,-4.4694,-4.4669,-4.4618,-4.4618,-4.4317,-4.3865,-4.3865,-4.3539,-4.3087,-4.3062,-4.3011,-4.2986,-4.2986,-4.2986,-4.2986,-4.2986,-4.2986,-4.2986,-4.2986,-4.2986,-4.2986,-4.2986,-4.3363,-4.379,-4.374,-4.4141,-4.4568,-4.4618,-4.4593,-4.4719,-4.5296,-4.4568,-4.394,-4.4418,-4.3689,-4.2986,-4.2986,-4.2986,-4.2986,-4.2986,-4.2986,-4.2986,-4.2986,-4.2986,-4.2986,-4.2986,-4.2986,-4.2961,-4.2911,-4.2514,-4.2162,-4.2087,-4.0551,-3.9697,-3.9697,-3.9697,-3.9697,-3.9697,-3.9697,-3.9697,-3.9697,-3.9697,-3.9697,-3.9697,-3.9697,-3.9697,-3.0858,-3.1409,-3.1814,-3.1553,-3.1785,0.0,0.0,-3.5504,-3.6618,-3.7823,-3.8883,-3.9578,-3.9466,-4.0039,-4.1657,-4.5051,-4.7109,-4.9063,-5.1228,-5.3166,-5.375,-5.2201,-5.3326,-5.4027,-5.3389,-5.1702,-5.0638,-5.0827,-4.961,-4.8834,-4.874,-4.8773,-4.8726,-4.8407,-4.7419,-4.6729,-4.6301,-4.5974,-4.5974,-4.6301,-4.6301,-4.6024,-4.5497,-4.5497,-4.4995,-4.4116,-4.4116,-4.3915,-4.3614,-4.3614,-4.3489,-4.3288,-4.3288,-4.3162,-4.2986,-4.2986,-4.2986,-4.2986,-4.2986,-4.2986,-4.2986,-4.2986,-4.2986,-4.2986,-4.2986,-4.2986,-4.2986,-4.2986,-4.3614,-4.4242,-4.389,-4.4217,-4.4719,-4.507,-4.5171,-4.5121,-4.497,-4.4618,-4.4166,-4.3689,-4.3263,-4.2986,-4.2986,-4.2986,-4.2986,-4.2986,-4.2986,-4.2986,-4.2986,-4.2986,-4.2986,-4.2986,-4.2986,-4.2986,-4.2986,-4.2539,-4.2213,-4.2213,-4.0927,-4.0199,-4.0199,-4.0199,-4.0049,-3.9697,-4.0023,-4.0049,-3.9697,-3.9697,-3.9873,-4.0199,-3.9848,-3.9873,-3.0598,-3.0887,-3.1264,-3.1437,0.0,0.0,-3.5609,-3.7557,-3.9418,-4.1055,-4.211,-4.2794,-4.2874,-4.2888,-4.3897,-4.6837,-4.906,-5.0982,-5.2599,-5.431,-5.4764,-5.312,-5.419,-5.4799,-5.4231,-5.2361,-5.1282,-5.1422,-5.022,-4.9213,-4.8656,-4.9241,-4.8967,-4.7589,-4.7197,-4.6527,-4.5522,-4.5321,-4.5397,-4.5773,-4.6129,-4.5927,-4.5221,-4.5045,-4.4443,-4.3539,-4.3539,-4.3313,-4.2986,-4.2986,-4.2986,-4.2986,-4.2986,-4.2986,-4.2986,-4.2986,-4.2986,-4.2986,-4.2986,-4.2986,-4.2986,-4.2986,-4.2986,-4.2986,-4.2986,-4.2986,-4.2986,-4.2986,-4.3639,-4.4317,-4.4116,-4.4593,-4.5246,-4.5648,-4.5748,-4.5598,-4.502,-4.4744,-4.4342,-4.3413,-4.3087,-4.2986,-4.2986,-4.2986,-4.2986,-4.2986,-4.2986,-4.2986,-4.2986,-4.2986,-4.2986,-4.2986,-4.2986,-4.2986,-4.2986,-4.269,-4.2464,-4.2464,-4.1555,-4.0953,-4.0777,-4.0724,-4.0526,-3.9973,-4.0325,-4.0325,-3.9948,-3.9772,-3.9973,-4.0501,-3.9948,-3.9898,-3.0598,-3.0627,-3.0772,-3.138,0.0,0.0,-3.9247,-4.0641,-4.2557,-4.7695,-4.6708,-4.514,-4.5779,-4.4487,-4.4686,-4.9001,-5.0886,-5.2234,-5.3332,-5.4591,-5.448,-5.1953,-5.333,-5.4233,-5.3557,-5.2911,-5.2546,-5.2685,-5.1453,-5.0432,-4.9855,-4.9309,-4.8192,-4.6401,-4.6319,-4.5515,-4.3872,-4.4342,-4.4618,-4.4618,-4.5773,-4.5716,-4.4593,-4.4041,-4.3545,-4.3042,-4.3042,-4.3042,-4.3042,-4.2986,-4.2986,-4.2986,-4.2986,-4.2986,-4.2986,-4.2986,-4.2986,-4.2986,-4.2986,-4.2986,-4.2986,-4.2986,-4.2986,-4.2986,-4.2986,-4.2986,-4.2986,-4.2986,-4.3363,-4.3915,-4.4493,-4.5447,-4.6301,-4.6301,-4.6301,-4.615,-4.5598,-4.502,-4.4443,-4.389,-4.3338,-4.2986,-4.2986,-4.2986,-4.2986,-4.2986,-4.2986,-4.2986,-4.2986,-4.2986,-4.2986,-4.2986,-4.2986,-4.2986,-4.2986,-4.2986,-4.2986,-4.2986,-4.2514,-4.1907,-4.13,-4.13,-4.1025,-4.0526,-4.0526,-4.0526,-4.0526,-3.9973,-3.9973,-4.0501,-3.9948,-3.9697,-3.0598,-3.1235,-3.2106,-3.2745,0.0,0.0,0.0,-4.2295,0.0,-4.842,-4.842,-4.7637,-4.784,-4.7817,-4.8211,-4.9504,-5.1186,-5.2795,-5.4035,-5.4909,-5.497,-5.3799,-5.4172,-5.4066,-5.2967,-5.1909,-5.1115,-5.0719,-5.0288,-5.0011,-4.9823,-5.0412,-5.0166,-4.8792,-4.8393,-4.7729,-4.68,-4.6561,-4.6641,-4.6983,-4.697,-4.6319,-4.5236,-4.5886,-4.5845,-4.5342,-4.5342,-4.4859,-4.4152,-4.3351,-4.2986,-4.2986,-4.2986,-4.2986,-4.2986,-4.2986,-4.2986,-4.2986,-4.2986,-4.2986,-4.2986,-4.2986,-4.2986,-4.2986,-4.2986,-4.2986,-4.2986,-4.2986,-4.3363,-4.3915,-4.4493,-4.4869,-4.5221,-4.5623,-4.5723,-4.5472,-4.4518,-4.4166,-4.389,-4.3338,-4.3087,-4.2986,-4.2986,-4.2986,-4.2986,-4.2986,-4.2986,-4.2986,-4.2986,-4.2986,-4.2986,-4.2986,-4.2986,-4.2986,-4.2986,-4.2986,-4.2986,-4.2986,-4.2866,-4.2484,-4.1932,-4.1907,-4.1656,-4.105,-4.148,-4.148,-4.105,-4.0551,-4.0551,-4.1025,-4.0526,-4.0475,-3.1206,-3.1932,0.0,-3.4574,-3.6809,-3.9567,-4.3282,-4.5518,-4.7724,-5.0946,-5.0481,-4.9582,-4.9843,-4.9785,-4.9785,-5.0046,-5.1497,-5.2746,-5.3297,-5.3675,-5.3762,-5.3413,-5.3355,-5.3065,-5.2281,-5.1546,-5.0844,-5.0189,-5.0161,-4.9819,-4.9051,-4.991,-4.958,-4.7684,-4.7769,-4.7323,-4.6269,-4.6134,-4.6269,-4.6568,-4.6712,-4.6392,-4.5765,-4.6514,-4.662,-4.6267,-4.6267,-4.5926,-4.5235,-4.4152,-4.3657,-4.3628,-4.3184,-4.2986,-4.2986,-4.2986,-4.2986,-4.2986,-4.2986,-4.2986,-4.2986,-4.2986,-4.2986,-4.2986,-4.2986,-4.2986,-4.2986,-4.2986,-4.3212,-4.3614,-4.4141,-4.4292,-4.4493,-4.5296,-4.5321,-4.4895,-4.3991,-4.379,-4.3639,-4.3087,-4.2986,-4.2986,-4.2986,-4.2986,-4.2986,-4.2986,-4.2986,-4.2986,-4.2986,-4.2986,-4.2986,-4.2986,-4.2986,-4.2986,-4.2986,-4.2986,-4.2986,-4.2986,-4.2986,-4.2836,-4.2539,-4.2539,-4.2233,-4.1681,-4.2037,-4.2037,-4.1656,-4.1103,-4.0949,-4.1275,-4.0949,-4.0902,-3.2106,-3.2597,-3.3583,-3.6722,-3.8783,-4.1192,-4.543,-4.9553,-5.2775,-5.3849,-5.2339,-5.1004,-5.1439,-5.0627,-5.0046,-5.0598,-5.1701,-5.2252,-5.1614,-5.1527,-5.1497,-5.1381,-5.141,-5.141,-5.1294,-5.1323,-5.1091,-5.0452,-5.0473,-4.964,-4.7869,-4.8333,-4.7386,-4.4678,-4.5673,-4.5546,-4.4015,-4.4484,-4.4706,-4.4706,-4.5748,-4.6236,-4.6292,-4.6385,-4.6444,-4.6499,-4.634,-4.6342,-4.6372,-4.5183,-4.4699,-4.4561,-4.3496,-4.3048,-4.2986,-4.2986,-4.2986,-4.2986,-4.2986,-4.2986,-4.2986,-4.2986,-4.2986,-4.2986,-4.2986,-4.2986,-4.2986,-4.2986,-4.2986,-4.3112,-4.3664,-4.3765,-4.3991,-4.507,-4.492,-4.4392,-4.384,-4.374,-4.3589,-4.3062,-4.2986,-4.2986,-4.2986,-4.2986,-4.2986,-4.2986,-4.2986,-4.2986,-4.2986,-4.2986,-4.2986,-4.2986,-4.2986,-4.2986,-4.2986,-4.2986,-4.2986,-4.2986,-4.2986,-4.2986,-4.2986,-4.2986,-4.2791,-4.2288,-4.2288,-4.2288,-4.2288,-4.1681,-4.1351,-4.1351,-4.1351,-4.11,-3.1756,-3.3587,0.0,-3.8231,-4.276,-4.7317,-4.9814,-5.112,-5.1614,-5.0859,-5.1497,-5.1955,-5.1033,-5.1062,-5.1091,-5.0743,-5.1323,-5.1614,-5.0975,-5.0888,-5.0481,-4.9465,-4.9785,-4.9698,-4.8711,-4.9059,-4.9088,-4.8449,-4.8391,-4.8217,-4.7811,-4.7898,-4.7688,-4.7066,-4.7279,-4.7242,-4.6909,-4.7005,-4.7062,-4.7062,-4.7328,-4.7423,-4.7423,-4.7444,-4.7749,-4.813,-4.6757,-4.6696,-4.748,-4.5343,-4.4571,-4.4643,-4.3851,-4.3304,-4.2986,-4.2986,-4.2986,-4.2986,-4.2986,-4.2986,-4.2986,-4.2986,-4.2986,-4.2986,-4.2986,-4.2986,-4.2986,-4.2986,-4.2986,-4.3112,-4.3664,-4.3489,-4.3313,-4.4016,-4.4066,-4.384,-4.3263,-4.3162,-4.3112,-4.3011,-4.2986,-4.2986,-4.2986,-4.2986,-4.2986,-4.2986,-4.2986,-4.2986,-4.2986,-4.2986,-4.2986,-4.2986,-4.2986,-4.2986,-4.2986,-4.2986,-4.2986,-4.2986,-4.2986,-4.2986,-4.2986,-4.2986,-4.2911,-4.2811,-4.2866,-4.2866,-4.2866,-4.2313,-4.2037,-4.2037,-4.2037,-4.1907,-3.2832,0.0,0.0,-4.0699,0.0,-4.9059,-5.0423,-5.0946,-5.0888,-4.9901,-5.0743,-5.1403,-5.0415,-5.0481,-5.0481,-4.9843,-5.0017,-5.0017,-4.9378,-4.9291,-4.903,-4.8362,-4.8566,-4.8508,-4.784,-4.8072,-4.8014,-4.7375,-4.7317,-4.7201,-4.6882,-4.6882,-4.6882,-4.6882,-4.6882,-4.6882,-4.6882,-4.6882,-4.6882,-4.6882,-4.6882,-4.6882,-4.6882,-4.7491,-4.7956,-4.8199,-4.7301,-4.729,-4.7763,-4.5977,-4.529,-4.5272,-4.4125,-4.3534,-4.33,-4.3083,-4.2986,-4.2986,-4.2986,-4.2986,-4.2986,-4.2986,-4.2986,-4.2986,-4.2986,-4.2986,-4.2986,-4.2986,-4.2986,-4.3037,-4.3338,-4.3187,-4.3062,-4.3338,-4.3413,-4.3338,-4.3037,-4.2986,-4.2986,-4.2986,-4.2986,-4.2986,-4.2986,-4.2986,-4.2986,-4.2986,-4.2986,-4.2986,-4.2986,-4.2986,-4.2986,-4.2986,-4.2986,-4.2986,-4.2986,-4.2986,-4.2986,-4.2986,-4.2986,-4.2986,-4.2986,-4.2986,-4.2986,-4.2986,-4.2986,-4.2986,-4.2986,-4.274,-4.2464,-4.2213,-4.2489,-4.2464,-3.3935,0.0,-3.8928,-4.2992,-4.6214,0.0,-4.9233,-4.9785,-4.9988,-4.9349,-4.9814,-5.0133,-4.9465,-4.9349,-4.9175,-4.8653,-4.8566,-4.8333,-4.7695,-4.7608,-4.7579,-4.7462,-4.7462,-4.7462,-4.7462,-4.7462,-4.723,-4.6708,-4.665,-4.6446,-4.5924,-4.5895,-4.5895,-4.5895,-4.5895,-4.5895,-4.5895,-4.5895,-4.5895,-4.5895,-4.5895,-4.5895,-4.5924,-4.6969,-4.7521,-4.7608,-4.7491,-4.7579,-4.7706,-4.6519,-4.6067,-4.5972,-4.453,-4.3967,-4.3939,-4.3351,-4.3219,-4.324,-4.3098,-4.2986,-4.2986,-4.2986,-4.2986,-4.2986,-4.2986,-4.2986,-4.2986,-4.2986,-4.2986,-4.2986,-4.2986,-4.2986,-4.2986,-4.2986,-4.2986,-4.2986,-4.2986,-4.2986,-4.2986,-4.2986,-4.2986,-4.2986,-4.2986,-4.2986,-4.2986,-4.2986,-4.2986,-4.2986,-4.2986,-4.2986,-4.2986,-4.2986,-4.2986,-4.2986,-4.2986,-4.2986,-4.2986,-4.2986,-4.2986,-4.2986,-4.2986,-4.2986,-4.2986,-4.2986,-4.2986,-4.2986,-4.2986,-4.2986,-4.2791,-4.2363,-4.276,-4.2791,-3.3445,0.0,-4.1134,0.0,-4.5547,-4.7259,-4.7898,-4.8101,-4.7985,-4.7346,-4.8159,-4.8798,-4.8159,-4.8043,-4.8014,-4.7927,-4.7898,-4.7695,-4.7056,-4.6923,-4.6766,-4.6214,-4.6127,-4.6127,-4.6127,-4.6127,-4.6098,-4.6011,-4.6011,-4.5982,-4.5895,-4.5895,-4.5895,-4.5895,-4.5895,-4.5895,-4.5895,-4.5895,-4.5895,-4.5895,-4.5895,-4.5895,-4.5895,-4.6069,-4.6446,-4.6865,-4.6388,-4.6766,-4.7695,-4.6425,-4.5995,-4.6062,-4.5275,-4.5056,-4.5039,-4.3965,-4.3957,-4.4315,-4.3351,-4.2986,-4.2986,-4.2986,-4.2986,-4.2986,-4.2986,-4.2986,-4.2986,-4.2986,-4.2986,-4.2986,-4.2986,-4.2986,-4.2986,-4.2986,-4.2986,-4.2986,-4.2986,-4.2986,-4.2986,-4.2986,-4.2986,-4.2986,-4.2986,-4.2986,-4.2986,-4.2986,-4.2986,-4.2986,-4.2986,-4.2986,-4.2986,-4.2986,-4.2986,-4.2986,-4.2986,-4.2986,-4.2986,-4.2986,-4.2986,-4.2986,-4.2986,-4.2986,-4.2986,-4.2986,-4.2986,-4.2986,-4.2986,-4.2986,-4.2936,-4.2861,-4.2936,-4.2936,-3.5154,-3.7796,-4.0495,0.0,-4.4095,-4.5488,-4.6505,-4.6417,-4.6069,-4.5808,-4.5924,-4.6214,-4.665,-4.6737,-4.6737,-4.6737,-4.6737,-4.6621,-4.633,-4.6301,-4.6214,-4.5924,-4.5895,-4.5895,-4.5895,-4.5895,-4.5895,-4.5895,-4.5895,-4.5895,-4.5895,-4.5895,-4.5895,-4.5895,-4.5518,-4.5314,-4.5314,-4.4995,-4.4821,-4.4821,-4.4821,-4.4821,-4.485,-4.5169,-4.5692,-4.6272,-4.6011,-4.6214,-4.6679,-4.6127,-4.5912,-4.5938,-4.5382,-4.5267,-4.5255,-4.4797,-4.4835,-4.5076,-4.4915,-4.4453,-4.3932,-4.3932,-4.3517,-4.2986,-4.2986,-4.2986,-4.2986,-4.2986,-4.2986,-4.2986,-4.2986,-4.2986,-4.2986,-4.2986,-4.2986,-4.2986,-4.2986,-4.2986,-4.2986,-4.2986,-4.2986,-4.2986,-4.2986,-4.2986,-4.2986,-4.2986,-4.2986,-4.2986,-4.2986,-4.2986,-4.2986,-4.2986,-4.2986,-4.2986,-4.2986,-4.2986,-4.2986,-4.2986,-4.2986,-4.2986,-4.2986,-4.2986,-4.2986,-4.2986,-4.2986,-4.2986,-4.2986,-4.2986,-4.2986,-4.2986,-4.2986,-4.2986,-3.5996,0.0,-3.9131,-4.0931,-4.2324,-4.3602,-4.485,-4.4763,-4.4414,-4.4414,-4.4182,-4.424,-4.4995,-4.5285,-4.5401,-4.5401,-4.5401,-4.5459,-4.5605,-4.5634,-4.5634,-4.5634,-4.5634,-4.5634,-4.5634,-4.5634,-4.5692,-4.5866,-4.5721,-4.5634,-4.5634,-4.5488,-4.5401,-4.5401,-4.4908,-4.4647,-4.4647,-4.4211,-4.3979,-4.3979,-4.3979,-4.3979,-4.4008,-4.4443,-4.5024,-4.5634,-4.5808,-4.5895,-4.5895,-4.5895,-4.5895,-4.5879,-4.5484,-4.5487,-4.5571,-4.5443,-4.5454,-4.5594,-4.5774,-4.5419,-4.4863,-4.4863,-4.424,-4.3462,-4.3462,-4.3462,-4.3351,-4.3073,-4.3184,-4.3351,-4.3098,-4.2986,-4.2986,-4.2986,-4.2986,-4.2986,-4.2986,-4.2986,-4.2986,-4.2986,-4.2986,-4.2986,-4.2986,-4.2986,-4.2986,-4.2986,-4.2986,-4.2986,-4.2986,-4.2986,-4.2986,-4.2986,-4.2986,-4.2986,-4.2986,-4.2986,-4.2986,-4.2986,-4.2986,-4.2986,-4.2986,-4.2986,-4.2986,-4.2986,-4.2986,-4.2986,-4.2986,-4.2986,-4.2986,-4.2986,-4.2986,-4.2986,-3.437,-3.5938,0.0,-3.9015,-4.0321,-4.157,-4.2847,-4.3108,-4.3079,-4.3079,-4.3573,-4.3805,-4.3253,-4.366,-4.4095,-4.4095,-4.4095,-4.4298,-4.485,-4.4937,-4.4937,-4.4937,-4.4937,-4.4937,-4.4937,-4.4937,-4.5198,-4.5837,-4.5285,-4.4937,-4.4937,-4.4385,-4.4095,-4.4095,-4.4066,-4.4037,-4.4037,-4.4008,-4.3979,-4.3979,-4.3979,-4.3979,-4.3979,-4.4037,-4.4356,-4.4966,-4.5605,-4.5895,-4.5895,-4.5895,-4.5895,-4.5895,-4.5879,-4.621,-4.6593,-4.559,-4.5573,-4.5902,-4.4838,-4.4864,-4.5324,-4.5324,-4.4996,-4.4615,-4.4615,-4.4615,-4.437,-4.3295,-4.3768,-4.437,-4.3295,-4.2986,-4.2986,-4.2986,-4.2986,-4.2986,-4.2986,-4.2986,-4.2986,-4.2986,-4.2986,-4.2986,-4.2986,-4.2986,-4.2986,-4.2986,-4.2986,-4.2986,-4.2986,-4.2986,-4.2986,-4.2986,-4.2986,-4.2986,-4.2986,-4.2986,-4.2986,-4.2986,-4.2986,-4.2986,-4.2986,-4.2986,-4.2986,-4.2986,-4.2986,-4.2986,-4.2986,-4.2986,-4.2986,-4.2986,-4.2986,-4.2986,-3.4254,0.0,0.0,-3.7651,-3.8609,-3.9567,-4.0844,-4.1134,-4.1134,-4.1134,-4.1337,-4.1541,-4.1744,-4.2992,-4.3979,-4.3979,-4.3979,-4.4066,-4.4269,-4.4298,-4.4298,-4.4298,-4.4298,-4.4298,-4.4298,-4.4298,-4.4414,-4.4647,-4.4443,-4.4298,-4.4298,-4.4095,-4.3979,-4.3979,-4.3573,-4.3166,-4.2789,-4.2789,-4.2789,-4.2789,-4.2789,-4.2789,-4.2789,-4.3166,-4.3456,-4.3718,-4.4385,-4.514,-4.5895,-4.5895,-4.5895,-4.5895,-4.5895,-4.6011,-4.6227,-4.6235,-4.6641,-4.711,-4.6727,-4.6792,-4.6994,-4.6606,-4.6117,-4.5714,-4.5714,-4.5714,-4.5661,-4.5235,-4.494,-4.4615,-4.4206,-4.3572,-4.2986,-4.2986,-4.2986,-4.2986,-4.2986,-4.2986,-4.2986,-4.2986,-4.2986,-4.2986,-4.2986,-4.2986,-4.2986,-4.2986,-4.2986,-4.2986,-4.2986,-4.2986,-4.2986,-4.2986,-4.2986,-4.2986,-4.2986,-4.2986,-4.2986,-4.2986,-4.2986,-4.2986,-4.2986,-4.2986,-4.2986,-4.2986,-4.2986,-4.2986,-4.2986,-4.2986,-4.2986,-4.2986,-4.2986,-4.2986,-3.4254,-3.4719,-3.5357,-3.6664,-3.7273,-3.7912,-3.916,-3.945,-3.945,-3.945,-3.9973,-4.0437,-4.0466,-4.2034,-4.334,-4.334,-4.334,-4.3427,-4.3631,-4.366,-4.366,-4.366,-4.366,-4.366,-4.366,-4.366,-4.3747,-4.3979,-4.3776,-4.3573,-4.3369,-4.334,-4.334,-4.334,-4.2498,-4.1947,-4.1773,-4.1541,-4.1541,-4.1773,-4.1773,-4.1889,-4.2121,-4.2498,-4.2789,-4.3021,-4.3456,-4.4269,-4.5256,-4.5459,-4.5547,-4.5576,-4.5808,-4.5895,-4.5924,-4.6359,-4.6766,-4.7172,-4.7375,-4.7655,-4.79,-4.7673,-4.7315,-4.6867,-4.6867,-4.6867,-4.6816,-4.6424,-4.582,-4.5154,-4.4778,-4.4152,-4.3657,-4.4016,-4.4126,-4.4126,-4.4126,-4.3492,-4.2986,-4.2986,-4.2986,-4.2986,-4.2986,-4.2986,-4.2986,-4.2986,-4.2986,-4.2986,-4.2986,-4.2986,-4.2986,-4.2986,-4.2986,-4.2986,-4.2986,-4.2986,-4.2986,-4.2986,-4.2986,-4.2986,-4.2986,-4.2986,-4.2986,-4.2986,-4.2986,-4.2986,-4.2986,-4.2986,-4.2986,-4.2986,-4.2986,-4.2986,0.0,0.0,0.0,-3.5967,-3.6286,-3.6606,-3.7854,-3.8144,-3.8144,-3.8173,-3.9654,-4.0583,-3.9392,-4.0699,-4.1947,-4.1976,-4.2034,-4.2266,-4.2818,-4.2905,-4.2905,-4.2905,-4.2905,-4.2905,-4.2905,-4.2905,-4.3166,-4.3834,-4.3282,-4.2644,-4.2063,-4.2034,-4.2034,-4.2034,-4.0786,-4.0408,-4.1047,-4.0437,-4.0437,-4.1105,-4.1105,-4.1453,-4.2092,-4.2092,-4.2411,-4.2963,-4.2963,-4.334,-4.3979,-4.4618,-4.4879,-4.4966,-4.5634,-4.5895,-4.5895,-4.5895,-4.5895,-4.6011,-4.6592,-4.7259,-4.7898,-4.8508,-4.8387,-4.8072,-4.8072,-4.8072,-4.7819,-4.6684,-4.6372,-4.611,-4.5047,-4.4724,-4.4993,-4.6057,-4.6267,-4.6267,-4.6267,-4.4615,-4.3073,-4.3042,-4.3017,-4.3042,-4.3042,-4.2986,-4.2986,-4.2986,-4.2986,-4.2986,-4.2986,-4.2986,-4.2986,-4.2986,-4.2986,-4.2986,-4.2986,-4.2986,-4.2986,-4.2986,-4.2986,-4.3011,-4.3011,-4.3011,-4.3011,-4.3011,-4.2986,-4.2986,-4.2986,-4.2986,-4.2986,-4.2986,-4.2986,-4.2986,-3.437,0.0,0.0,0.0,0.0,0.0,-3.6664,-3.6838,-3.6954,-3.7447,-3.7593,-3.7796,-3.8376,-3.858,-3.8783,-3.9218,-4.0466,-4.1279,-4.0931,-4.0902,-4.0902,-4.0902,-4.0902,-4.0902,-4.0902,-4.0902,-4.0989,-4.1163,-4.0989,-4.0815,-4.067,-4.0641,-4.0641,-4.0641,-4.0292,-4.0176,-4.0379,-4.0176,-4.0437,-4.1105,-4.1105,-4.1453,-4.2092,-4.2092,-4.2179,-4.2353,-4.2353,-4.244,-4.2731,-4.4269,-4.4879,-4.4966,-4.5634,-4.5895,-4.5895,-4.5895,-4.6185,-4.6534,-4.6243,-4.7172,-4.842,-4.813,-4.8577,-4.9198,-4.9198,-4.9198,-4.9149,-4.8852,-4.8173,-4.728,-4.6137,-4.5873,-4.5926,-4.6215,-4.6267,-4.6267,-4.6267,-4.582,-4.5182,-4.4344,-4.4261,-4.3987,-4.3129,-4.2986,-4.2986,-4.2986,-4.3313,-4.3438,-4.3037,-4.3313,-4.3413,-4.3011,-4.2986,-4.2986,-4.2986,-4.2986,-4.2986,-4.2986,-4.3363,-4.3564,-4.3564,-4.3564,-4.3564,-4.3564,-4.3187,-4.2986,-4.2986,-4.2986,-4.2986,-4.2986,-4.2986,-4.2986,-3.4806,-3.4603,-3.4632,-3.5532,0.0,0.0,-3.5764,-3.5909,-3.6025,-3.6431,-3.6606,-3.6867,-3.7331,-3.7564,-3.7622,-3.7447,-3.858,-3.9479,-3.9334,-3.9305,-3.9305,-3.9305,-3.9305,-3.9305,-3.9305,-3.9567,-3.9712,-3.9712,-3.9944,-4.0089,-4.0089,-3.9596,-3.9538,-4.0089,-3.9567,-3.945,-3.9712,-3.945,-3.9625,-4.0321,-4.0554,-4.1018,-4.1686,-4.1976,-4.2092,-4.2092,-4.2092,-4.2092,-4.2208,-4.3544,-4.4269,-4.4589,-4.5227,-4.5634,-4.5895,-4.5895,-4.6127,-4.6417,-4.633,-4.6998,-4.7927,-4.7811,-4.8449,-4.9291,-4.9291,-4.9465,-4.9717,-4.9717,-4.8902,-4.7869,-4.7177,-4.7023,-4.7126,-4.7587,-4.774,-4.774,-4.774,-4.774,-4.728,-4.5661,-4.5342,-4.5128,-4.4507,-4.4398,-4.4235,-4.3768,-4.3994,-4.3873,-4.3123,-4.3263,-4.3338,-4.3011,-4.2986,-4.2986,-4.2986,-4.2986,-4.3087,-4.3313,-4.3614,-4.3915,-4.4141,-4.3915,-4.379,-4.379,-4.3263,-4.2986,-4.2986,-4.2986,-4.2986,-4.2986,-4.2986,-4.2986,-3.5479,-3.5009,-3.4806,-3.5996,-3.5415,0.0,-3.5276,-3.5334,-3.5305,-3.5392,-3.6228,-3.6838,-3.6315,-3.707,-3.7418,-3.6286,-3.6606,-3.7215,-3.7883,-3.7999,-3.7999,-3.7999,-3.7999,-3.8028,-3.8086,-3.858,-3.8899,-3.8986,-3.9421,-3.9683,-3.9683,-3.8609,-3.8522,-3.9625,-3.858,-3.8289,-3.887,-3.8376,-3.8434,-3.9102,-3.9712,-4.0379,-4.1105,-4.1715,-4.2034,-4.2092,-4.2092,-4.2092,-4.215,-4.2673,-4.3311,-4.4037,-4.4647,-4.5285,-4.5895,-4.5895,-4.5895,-4.5982,-4.6534,-4.672,-4.6865,-4.7491,-4.8159,-4.8663,-4.8663,-4.9175,-4.9717,-4.9717,-4.8951,-4.8173,-4.8173,-4.8173,-4.8424,-4.9473,-4.9717,-4.9717,-4.9717,-4.9717,-4.91,-4.7047,-4.6608,-4.6424,-4.6319,-4.6267,-4.5979,-4.5047,-4.4938,-4.4585,-4.3517,-4.329,-4.326,-4.3209,-4.3098,-4.2986,-4.2986,-4.2986,-4.3212,-4.3765,-4.3865,-4.4141,-4.4694,-4.4192,-4.389,-4.389,-4.3288,-4.2986,-4.2986,-4.2986,-4.2986,-4.2986,-4.2986,-4.2986,-3.5996,-3.5648,-3.5392,-3.6112,-3.5735,0.0,-3.5363,-3.498,-3.4748,-3.5305,-3.5154,-3.5096,-3.5508,-3.5328,-3.5067,-3.4835,-3.4893,-3.5357,-3.6519,-3.6664,-3.6664,-3.6664,-3.6664,-3.6896,-3.7418,-3.7099,-3.7099,-3.7651,-3.7273,-3.7041,-3.7041,-3.6809,-3.678,-3.7041,-3.6809,-3.6751,-3.6867,-3.7273,-3.7796,-3.8405,-3.9073,-3.9973,-4.1105,-4.1221,-4.1599,-4.2092,-4.2092,-4.2092,-4.2121,-4.2237,-4.2963,-4.4037,-4.4647,-4.5285,-4.5895,-4.5895,-4.5895,-4.5895,-4.6011,-4.6388,-4.6807,-4.6969,-4.7735,-4.8663,-4.8663,-4.9175,-4.9717,-4.9717,-4.9522,-4.9375,-4.9375,-4.9375,-4.9424,-4.9669,-4.9717,-4.9717,-4.9717,-4.9717,-4.9571,-4.91,-4.8324,-4.7383,-4.6424,-4.6267,-4.6215,-4.6032,-4.6383,-4.6491,-4.5768,-4.528,-4.4863,-4.4396,-4.3572,-4.2986,-4.2986,-4.2986,-4.3212,-4.3765,-4.4217,-4.4719,-4.5296,-4.4769,-4.4468,-4.4468,-4.3489,-4.2986,-4.2986,-4.2986,-4.2986,-4.2986,-4.2986,-4.2986,-3.6722,-3.6315,-3.5909,-3.6228,-3.6054,0.0,0.0,-3.4893,-3.4893,-3.4893,-3.4632,-3.4516,-3.4835,-3.4632,-3.4399,-3.4399,-3.4399,-3.4516,-3.4864,-3.5154,-3.5357,-3.5357,-3.5357,-3.5503,-3.5822,-3.5851,-3.6112,-3.6751,-3.6489,-3.6315,-3.6315,-3.6315,-3.6315,-3.6315,-3.6315,-3.6315,-3.6315,-3.6983,-3.7447,-3.7767,-3.8725,-3.9683,-4.0612,-4.0931,-4.1453,-4.2092,-4.2092,-4.2092,-4.2092,-4.2092,-4.2644,-4.3544,-4.4182,-4.4821,-4.543,-4.5779,-4.5895,-4.5895,-4.5895,-4.6098,-4.6359,-4.6359,-4.723,-4.8246,-4.8246,-4.8914,-4.9717,-4.9717,-4.9717,-4.9717,-4.9717,-4.9717,-4.9717,-4.9717,-4.9717,-4.9717,-4.9717,-4.9717,-4.9717,-4.9717,-4.9248,-4.8674,-4.8094,-4.7993,-4.7791,-4.7229,-4.7402,-4.7276,-4.6426,-4.6062,-4.5768,-4.5529,-4.4967,-4.4453,-4.3878,-4.3823,-4.3857,-4.3822,-4.4066,-4.4468,-4.502,-4.4518,-4.4091,-4.3815,-4.3263,-4.2986,-4.2986,-4.2986,-4.2986,-4.2986,-4.2986,-4.2986,-3.7418,-3.6983,-3.6519,-3.6635,-3.6577,-3.6199,0.0,0.0,0.0,-3.4545,-3.4399,-3.4399,-3.4399,-3.4399,-3.437,-3.4254,-3.4225,-3.4022,-3.3416,-3.3732,-3.4051,-3.4051,-3.4051,-3.408,-3.4225,-3.4806,-3.5363,-3.5735,-3.588,-3.5938,-3.5938,-3.5938,-3.5938,-3.5938,-3.5938,-3.5938,-3.5938,-3.6722,-3.7128,-3.7128,-3.8405,-3.9334,-3.9944,-4.0612,-4.1279,-4.1918,-4.2034,-4.2092,-4.2092,-4.2092,-4.2382,-4.2876,-4.3544,-4.424,-4.4966,-4.5488,-4.5779,-4.5895,-4.5895,-4.5895,-4.5895,-4.5895,-4.6737,-4.7811,-4.7927,-4.8769,-4.9717,-4.9717,-4.9717,-4.9717,-4.9717,-4.9717,-4.9717,-4.9717,-4.9717,-4.9717,-4.9717,-4.9717,-4.9717,-4.9717,-4.9717,-4.9717,-4.9717,-4.9717,-4.9424,-4.8474,-4.8324,-4.8021,-4.7047,-4.6736,-4.6632,-4.6632,-4.6424,-4.5979,-4.5101,-4.4993,-4.4767,-4.4136,-4.413,-4.4269,-4.4593,-4.4091,-4.3539,-4.2986,-4.2986,-4.2986,-4.2986,-4.2986,-4.2986,-4.2986,-4.2986,-4.2986,-3.7796,-3.7651,-3.7331,-3.7854,-3.7593,-3.6983,-3.6257,0.0,-3.5218,-3.4545,0.0,-3.4399,-3.4399,0.0,0.0,-3.3707,-3.362,-3.3387,-3.2716,-3.2655,-3.2745,-3.2745,-3.2745,-3.2948,-3.3561,-3.4138,-3.4312,-3.3852,-3.4312,-3.4632,-3.4632,-3.4632,-3.4632,-3.4632,-3.4632,-3.4632,-3.4632,-3.5822,-3.6431,-3.6431,-3.7709,-3.8667,-3.9334,-3.9915,-4.0583,-4.125,-4.1831,-4.2092,-4.2092,-4.2092,-4.215,-4.2266,-4.2876,-4.3834,-4.4908,-4.4966,-4.5372,-4.5895,-4.5895,-4.5895,-4.5895,-4.5895,-4.6737,-4.7898,-4.8449,-4.9117,-4.9717,-4.9717,-4.9717,-4.9717,-4.9717,-4.9717,-4.9717,-4.9717,-4.9717,-4.9717,-4.9717,-4.9717,-4.9717,-4.9717,-4.9717,-4.9717,-4.9717,-4.9717,-4.9669,-4.9522,-4.9522,-4.9473,-4.9297,-4.8424,-4.7819,-4.7819,-4.6919,-4.6267,-4.611,-4.611,-4.5902,-4.534,-4.5311,-4.5093,-4.4593,-4.4091,-4.3539,-4.2986,-4.2986,-4.2986,-4.2986,-4.2986,-4.2986,-4.2986,-4.2986,-4.2986,-3.8057,-3.8289,-3.8289,-3.7796,-3.8057,-3.8028,-3.6635,-3.6402,-3.6199,-3.5218,0.0,0.0,0.0,0.0,0.0,0.0,-3.3736,-3.3271,-3.2568,-3.2481,-3.2481,-3.2481,-3.2832,-3.3325,-3.3964,-3.3906,-3.3906,-3.3993,-3.4254,-3.4399,-3.4399,-3.4399,-3.4399,-3.4399,-3.4399,-3.4399,-3.4399,-3.5299,-3.5938,-3.6315,-3.7244,-3.8202,-3.9218,-3.945,-4.0118,-4.1105,-4.1395,-4.1744,-4.2092,-4.2092,-4.2092,-4.2121,-4.2382,-4.3021,-4.3863,-4.4618,-4.5053,-4.5372,-4.575,-4.5895,-4.5953,-4.633,-4.6795,-4.7346,-4.7985,-4.8362,-4.8613,-4.8613,-4.8613,-4.8613,-4.8613,-4.8613,-4.8682,-4.903,-4.9117,-4.9233,-4.9582,-4.9717,-4.9717,-4.9717,-4.9717,-4.9717,-4.9717,-4.9717,-4.9717,-4.9717,-4.9717,-4.9717,-4.9717,-4.9248,-4.9001,-4.9001,-4.8574,-4.7993,-4.7331,-4.728,-4.6925,-4.6009,-4.5982,-4.5549,-4.4682,-4.4476,-4.3913,-4.3042,-4.2986,-4.2986,-4.2986,-4.2986,-4.2986,-4.2986,-4.2986,-4.2986,-3.8173,-3.8551,-3.8696,-3.7796,-3.8231,-3.8522,-3.6925,-3.7099,-3.7186,-3.5915,-3.5654,0.0,0.0,0.0,-3.437,-3.4196,0.0,-3.3213,-3.2367,-3.2251,-3.2251,-3.2251,-3.2658,-3.3035,-3.3325,-3.3267,-3.3325,-3.3616,-3.4109,-3.4341,-3.4167,-3.4312,-3.4399,-3.4399,-3.4399,-3.4399,-3.4399,-3.5072,-3.5712,-3.6315,-3.6983,-3.7883,-3.8928,-3.9131,-3.9712,-4.0583,-4.0931,-4.1366,-4.1831,-4.2005,-4.2092,-4.2092,-4.2092,-4.2353,-4.2905,-4.4182,-4.4734,-4.4995,-4.5663,-4.5895,-4.5953,-4.6417,-4.6662,-4.6865,-4.7375,-4.7637,-4.7782,-4.7782,-4.7782,-4.7782,-4.7782,-4.7782,-4.7927,-4.8566,-4.8663,-4.8885,-4.9524,-4.9717,-4.9717,-4.9717,-4.9717,-4.9717,-4.9717,-4.9717,-4.9717,-4.9717,-4.9717,-4.9717,-4.9717,-4.9717,-4.9717,-4.9717,-4.9717,-4.9375,-4.8553,-4.8474,-4.7971,-4.6867,-4.6476,-4.5979,-4.5208,-4.4886,-4.4315,-4.3462,-4.3129,-4.2986,-4.2986,-4.2986,-4.2986,-4.2986,-4.2986,-4.2986,-3.8057,-3.8231,-3.8231,-3.8173,-3.8202,-3.8057,-3.7418,-3.7738,-3.7825,-3.6548,-3.6286,-3.6083,-3.5479,-3.4835,-3.4225,-3.362,-3.3503,0.0,0.0,-3.1524,-3.1524,-3.1524,-3.1524,-3.1351,-3.0801,-3.1816,-3.2249,-3.164,-3.3354,-3.4138,-3.3561,-3.408,-3.4399,-3.4399,-3.4399,-3.4399,-3.4399,-3.5072,-3.5712,-3.6315,-3.6983,-3.7622,-3.826,-3.8899,-3.9218,-3.9334,-4.0554,-4.1105,-4.1163,-4.1831,-4.2092,-4.2092,-4.2092,-4.2121,-4.2266,-4.3544,-4.4385,-4.4995,-4.5663,-4.5895,-4.5895,-4.5895,-4.633,-4.6778,-4.6807,-4.7288,-4.7782,-4.7782,-4.7782,-4.7782,-4.7782,-4.7782,-4.7927,-4.8566,-4.8663,-4.8885,-4.9524,-4.9717,-4.9717,-4.9717,-4.9717,-4.9717,-4.9717,-4.9717,-4.9717,-4.9717,-4.9717,-4.9717,-4.9717,-4.9717,-4.9717,-4.9717,-4.9717,-4.9669,-4.9669,-4.9669,-4.9149,-4.8021,-4.6919,-4.6267,-4.6267,-4.5235,-4.467,-4.4615,-4.3572,-4.2986,-4.2986,-4.2986,-4.2986,-4.2986,-4.2986,-4.2986,-3.9082,-3.9466,-3.9556,-3.9186,-3.9275,-3.9189,-3.8144,-3.8405,-3.8492,-3.7215,-3.6983,-3.6635,-3.5595,-3.4835,-3.4341,-3.4138,-3.3765,-3.3213,0.0,-3.2162,-3.2162,-3.2162,-3.2162,-3.2251,-3.2515,-3.2513,-3.2394,-3.2162,-3.318,-3.3736,-3.3503,-3.408,-3.4399,-3.4399,-3.4399,-3.4399,-3.4399,-3.4632,-3.5038,-3.5712,-3.6487,-3.7164,-3.7843,-3.8567,-3.9094,-3.9448,-3.9857,-4.0217,-4.0495,-4.1163,-4.1424,-4.1482,-4.1918,-4.2092,-4.2208,-4.3021,-4.3747,-4.4443,-4.5518,-4.5895,-4.5895,-4.5895,-4.604,-4.6214,-4.6214,-4.6359,-4.6534,-4.6534,-4.6534,-4.6534,-4.6534,-4.6534,-4.6679,-4.7317,-4.7416,-4.7637,-4.8275,-4.874,-4.9059,-4.9059,-4.9378,-4.9717,-4.9717,-4.9717,-4.9717,-4.9717,-4.9717,-4.9717,-4.9717,-4.9717,-4.9717,-4.9717,-4.9717,-4.9717,-4.9717,-4.9717,-4.9522,-4.9149,-4.8724,-4.8223,-4.7434,-4.6347,-4.5395,-4.4724,-4.3572,-4.2986,-4.2986,-4.2986,-4.2986,-4.2986,-4.2986,-4.2986,-3.9327,-3.9803,-4.007,-3.9698,-3.9925,-3.9945,-3.8897,-3.9082,-3.9218,-3.8202,-3.7622,-3.7041,-3.6235,-3.5154,-3.4399,-3.4399,-3.408,-3.3499,0.0,-3.2481,-3.2394,-3.2162,-3.2571,-3.2832,-3.2774,-3.2629,-3.2338,-3.1874,-3.2629,-3.3122,-3.3122,-3.3732,-3.4196,-3.4399,-3.4399,-3.4399,-3.4399,-3.4496,-3.4816,-3.5392,-3.6073,-3.6787,-3.7601,-3.8193,-3.8686,-3.9174,-3.9613,-3.9935,-4.0176,-4.1076,-4.1453,-4.1482,-4.1918,-4.2092,-4.2179,-4.276,-4.3544,-4.4472,-4.5518,-4.5895,-4.5895,-4.5895,-4.5895,-4.5895,-4.5895,-4.5895,-4.5895,-4.5895,-4.5895,-4.5895,-4.5895,-4.5895,-4.604,-4.6633,-4.6778,-4.6952,-4.7637,-4.8275,-4.8663,-4.8663,-4.9233,-4.9717,-4.9717,-4.9717,-4.9717,-4.9717,-4.9717,-4.9717,-4.9717,-4.9717,-4.9717,-4.9717,-4.9717,-4.9717,-4.9717,-4.9717,-4.9717,-4.9717,-4.9717,-4.9375,-4.8653,-4.7485,-4.6589,-4.5871,-4.4358,-4.3584,-4.3564,-4.3162,-4.2986,-4.2986,-4.2986,-4.2986]},{"header":{"parameterUnit":"m.s-1","parameterCategory":1,"la1":30.6,"la2":29.2853,"lo1":-89.7004,"lo2":-87.6739,"dy":0.0162,"dx":0.0183,"nx":112,"ny":82,"refTime":"2023-08-08T06:00:00:Z","depth":0,"parameterNumber":3,"parameterNumberName":"V-component_of_WINDS"},"data":[0.0,0.0,0.0,0.0,0.0,0.0,0.0,0.0,0.0,0.0,0.0,0.0,0.0,0.0,0.0,0.0,0.0,0.0,0.0,0.0,0.0,0.0,0.0,0.0,0.0,0.0,0.0,0.0,0.0,0.0,0.0,0.0,0.0,0.0,0.0,0.0,0.0,0.0,0.0,0.0,0.0,0.0,0.0,0.0,0.0,0.0,0.0,0.0,0.0,0.0,0.0,0.0,0.0,0.0,0.0,0.0,0.0,0.0,0.0,0.0,0.0,0.0,0.0,0.0,0.0,0.0,0.0,0.0,0.0,0.0,0.0,0.0,0.0,0.0,0.0,0.0,0.0,0.0,0.0,0.0,0.0,0.0,0.0,0.0,0.0,0.0,0.0,0.0,0.0,0.0,-3.2465,-3.7017,-4.2788,-4.6591,-4.7249,-4.701,-4.4747,-3.9926,0.0,0.0,0.0,0.0,0.0,0.0,0.0,0.0,0.0,0.0,0.0,0.0,0.0,0.0,0.0,0.0,0.0,0.0,0.0,0.0,0.0,0.0,0.0,0.0,0.0,0.0,0.0,0.0,0.0,0.0,0.0,0.0,0.0,0.0,0.0,0.0,0.0,0.0,0.0,0.0,0.0,0.0,0.0,0.0,0.0,0.0,0.0,0.0,0.0,0.0,0.0,0.0,0.0,0.0,0.0,0.0,0.0,0.0,0.0,0.0,0.0,0.0,0.0,0.0,0.0,0.0,0.0,0.0,0.0,0.0,0.0,0.0,0.0,0.0,0.0,0.0,0.0,0.0,0.0,0.0,0.0,0.0,0.0,0.0,0.0,0.0,0.0,0.0,0.0,0.0,0.0,0.0,0.0,0.0,0.0,0.0,0.0,0.0,0.0,0.0,0.0,0.0,0.0,0.0,-3.4,-4.0087,-4.4047,-4.6591,-4.7249,-4.5753,-4.3279,-3.9836,0.0,0.0,0.0,0.0,0.0,0.0,0.0,0.0,0.0,0.0,0.0,0.0,0.0,0.0,0.0,0.0,0.0,0.0,0.0,0.0,0.0,0.0,0.0,0.0,0.0,0.0,0.0,0.0,0.0,0.0,0.0,0.0,0.0,0.0,0.0,0.0,0.0,0.0,0.0,0.0,0.0,0.0,0.0,0.0,0.0,0.0,0.0,0.0,0.0,0.0,0.0,0.0,0.0,0.0,0.0,0.0,0.0,0.0,0.0,0.0,0.0,0.0,0.0,0.0,0.0,0.0,0.0,0.0,0.0,0.0,0.0,0.0,0.0,0.0,0.0,0.0,0.0,0.0,0.0,0.0,0.0,0.0,0.0,0.0,0.0,0.0,0.0,0.0,0.0,0.0,0.0,0.0,0.0,0.0,0.0,0.0,0.0,0.0,0.0,0.0,0.0,0.0,0.0,-3.3397,-3.6496,-4.1833,-4.4766,-4.6591,-4.7249,-4.5783,-4.3528,-4.0347,-3.9652,0.0,0.0,0.0,0.0,0.0,0.0,0.0,0.0,0.0,0.0,0.0,0.0,0.0,0.0,0.0,0.0,0.0,0.0,0.0,0.0,0.0,0.0,0.0,0.0,0.0,0.0,0.0,0.0,0.0,0.0,0.0,0.0,0.0,0.0,0.0,0.0,0.0,0.0,0.0,0.0,0.0,0.0,0.0,0.0,0.0,0.0,0.0,0.0,0.0,0.0,0.0,0.0,0.0,0.0,0.0,0.0,0.0,0.0,0.0,0.0,0.0,0.0,0.0,0.0,0.0,0.0,0.0,0.0,0.0,0.0,0.0,0.0,0.0,0.0,0.0,0.0,0.0,0.0,0.0,0.0,0.0,0.0,0.0,0.0,0.0,0.0,0.0,0.0,0.0,0.0,0.0,0.0,0.0,0.0,0.0,0.0,0.0,0.0,0.0,0.0,0.0,0.0,-3.6403,-3.9073,-4.312,-4.5323,-4.6741,-4.7279,-4.5783,-4.3648,-4.0768,-3.9229,0.0,0.0,0.0,0.0,0.0,0.0,0.0,0.0,0.0,0.0,0.0,0.0,0.0,0.0,0.0,0.0,0.0,0.0,0.0,0.0,0.0,0.0,0.0,0.0,0.0,0.0,0.0,0.0,0.0,0.0,0.0,0.0,0.0,0.0,0.0,0.0,0.0,0.0,0.0,0.0,0.0,0.0,0.0,0.0,0.0,0.0,0.0,0.0,0.0,0.0,0.0,0.0,0.0,0.0,0.0,0.0,0.0,0.0,0.0,0.0,0.0,0.0,0.0,0.0,0.0,0.0,0.0,0.0,0.0,0.0,0.0,0.0,0.0,0.0,0.0,0.0,0.0,0.0,0.0,0.0,0.0,0.0,0.0,0.0,0.0,0.0,0.0,0.0,0.0,0.0,0.0,0.0,0.0,0.0,0.0,0.0,0.0,0.0,0.0,0.0,0.0,0.0,-3.8465,-4.1295,-4.3958,-4.6052,-4.7249,-4.7309,-4.4975,-4.2689,-4.0708,-3.8353,0.0,0.0,0.0,0.0,0.0,0.0,0.0,0.0,0.0,0.0,0.0,0.0,0.0,0.0,0.0,0.0,0.0,0.0,0.0,0.0,0.0,0.0,0.0,0.0,0.0,0.0,0.0,0.0,0.0,0.0,0.0,0.0,0.0,0.0,0.0,0.0,0.0,0.0,0.0,0.0,0.0,0.0,0.0,0.0,0.0,0.0,0.0,0.0,0.0,0.0,0.0,0.0,0.0,0.0,0.0,0.0,0.0,0.0,0.0,0.0,0.0,0.0,0.0,0.0,0.0,0.0,0.0,0.0,0.0,0.0,0.0,0.0,0.0,0.0,0.0,0.0,0.0,0.0,0.0,0.0,0.0,0.0,0.0,0.0,0.0,0.0,0.0,0.0,0.0,0.0,0.0,0.0,0.0,0.0,0.0,0.0,0.0,0.0,0.0,0.0,0.0,0.0,-3.8296,-4.086,-4.5095,-4.6232,-4.6681,-4.6681,-4.5518,-4.3557,-4.0768,0.0,0.0,0.0,0.0,0.0,0.0,0.0,0.0,0.0,0.0,0.0,0.0,0.0,0.0,0.0,0.0,0.0,0.0,0.0,0.0,0.0,0.0,0.0,0.0,0.0,0.0,0.0,0.0,0.0,0.0,0.0,0.0,0.0,0.0,0.0,0.0,0.0,0.0,0.0,0.0,0.0,0.0,0.0,0.0,0.0,0.0,0.0,0.0,0.0,0.0,0.0,0.0,0.0,0.0,0.0,0.0,0.0,0.0,0.0,0.0,0.0,0.0,0.0,0.0,0.0,0.0,0.0,0.0,0.0,0.0,0.0,0.0,0.0,0.0,0.0,0.0,0.0,0.0,0.0,0.0,0.0,0.0,0.0,0.0,0.0,0.0,0.0,0.0,0.0,0.0,0.0,0.0,0.0,0.0,0.0,0.0,0.0,0.0,0.0,0.0,0.0,0.0,-3.757,-3.8792,-4.1055,-4.5867,-4.6196,-4.6167,-4.6376,-4.512,-4.3313,-4.0878,0.0,0.0,0.0,0.0,0.0,0.0,0.0,0.0,0.0,0.0,0.0,0.0,0.0,0.0,0.0,0.0,0.0,0.0,0.0,0.0,0.0,0.0,0.0,0.0,0.0,0.0,0.0,0.0,0.0,0.0,0.0,0.0,0.0,0.0,0.0,0.0,0.0,0.0,0.0,0.0,0.0,0.0,0.0,0.0,0.0,0.0,0.0,0.0,0.0,0.0,0.0,0.0,0.0,0.0,0.0,0.0,0.0,0.0,0.0,0.0,0.0,0.0,0.0,0.0,0.0,0.0,0.0,0.0,0.0,0.0,0.0,0.0,0.0,0.0,0.0,0.0,0.0,0.0,0.0,0.0,0.0,0.0,0.0,0.0,0.0,0.0,0.0,0.0,0.0,0.0,0.0,0.0,0.0,0.0,0.0,0.0,0.0,0.0,0.0,0.0,0.0,0.0,-3.8666,-4.0269,-4.2455,-4.6218,-4.5996,-4.5875,-4.6527,-4.3615,-4.1489,0.0,0.0,0.0,0.0,0.0,0.0,0.0,0.0,0.0,0.0,0.0,0.0,0.0,0.0,0.0,0.0,0.0,0.0,0.0,0.0,0.0,0.0,0.0,0.0,0.0,0.0,0.0,0.0,0.0,0.0,0.0,0.0,0.0,0.0,0.0,0.0,0.0,0.0,0.0,0.0,0.0,0.0,0.0,0.0,0.0,0.0,0.0,0.0,0.0,0.0,0.0,0.0,0.0,0.0,0.0,0.0,0.0,0.0,0.0,0.0,0.0,0.0,0.0,0.0,0.0,0.0,0.0,0.0,0.0,0.0,0.0,0.0,0.0,0.0,0.0,0.0,0.0,0.0,0.0,0.0,0.0,0.0,0.0,0.0,0.0,0.0,0.0,0.0,0.0,0.0,0.0,0.0,0.0,0.0,0.0,0.0,0.0,0.0,0.0,0.0,0.0,0.0,0.0,-3.9429,-4.0573,-4.2311,-4.5748,-4.596,-4.5718,-4.5516,-4.3805,-4.2051,-4.0405,0.0,0.0,0.0,0.0,0.0,0.0,0.0,0.0,0.0,0.0,0.0,0.0,0.0,0.0,0.0,0.0,0.0,0.0,0.0,0.0,0.0,0.0,0.0,0.0,0.0,0.0,0.0,0.0,0.0,0.0,0.0,0.0,0.0,0.0,0.0,0.0,0.0,0.0,0.0,0.0,0.0,0.0,0.0,0.0,0.0,0.0,0.0,0.0,0.0,0.0,0.0,0.0,0.0,0.0,0.0,0.0,0.0,0.0,0.0,0.0,0.0,0.0,0.0,0.0,0.0,0.0,0.0,0.0,0.0,0.0,0.0,0.0,0.0,0.0,0.0,0.0,0.0,0.0,0.0,0.0,0.0,0.0,0.0,0.0,0.0,0.0,0.0,0.0,0.0,0.0,0.0,0.0,0.0,0.0,0.0,0.0,0.0,0.0,0.0,0.0,0.0,0.0,-4.013,-4.0675,-4.2149,-4.592,-4.5698,-4.523,-4.5148,-4.3731,-4.2053,-4.0243,0.0,0.0,0.0,0.0,0.0,0.0,0.0,0.0,0.0,0.0,0.0,0.0,0.0,0.0,0.0,0.0,0.0,0.0,0.0,0.0,0.0,0.0,0.0,0.0,0.0,0.0,0.0,0.0,0.0,0.0,0.0,0.0,0.0,0.0,0.0,0.0,0.0,0.0,0.0,0.0,0.0,0.0,0.0,0.0,0.0,0.0,0.0,0.0,0.0,0.0,0.0,0.0,0.0,0.0,0.0,0.0,0.0,0.0,0.0,0.0,0.0,0.0,0.0,0.0,0.0,0.0,0.0,0.0,0.0,0.0,0.0,0.0,0.0,0.0,0.0,0.0,0.0,0.0,0.0,0.0,0.0,0.0,0.0,0.0,0.0,0.0,0.0,0.0,0.0,0.0,0.0,0.0,0.0,0.0,0.0,0.0,0.0,0.0,0.0,0.0,0.0,0.0,-4.0624,-4.0659,-4.1967,-4.6305,-4.5318,-4.4549,-4.5161,-4.3448,-4.1734,-4.0388,0.0,0.0,0.0,0.0,0.0,0.0,0.0,0.0,0.0,0.0,0.0,0.0,0.0,0.0,0.0,0.0,0.0,0.0,0.0,0.0,0.0,0.0,0.0,0.0,0.0,0.0,0.0,0.0,0.0,0.0,0.0,0.0,0.0,0.0,0.0,0.0,0.0,0.0,0.0,0.0,0.0,0.0,0.0,0.0,0.0,0.0,0.0,0.0,0.0,0.0,0.0,0.0,0.0,0.0,0.0,0.0,0.0,0.0,0.0,0.0,-4.1531,-4.1185,0.0,0.0,0.0,0.0,0.0,0.0,0.0,0.0,0.0,0.0,0.0,0.0,0.0,0.0,0.0,0.0,0.0,0.0,0.0,0.0,0.0,0.0,0.0,0.0,0.0,0.0,0.0,0.0,0.0,0.0,0.0,0.0,0.0,0.0,0.0,0.0,0.0,0.0,0.0,0.0,-4.0251,-4.0562,-4.1669,-4.4795,-4.4772,-4.4595,-4.4749,-4.3359,-4.1945,-4.0562,-3.9244,0.0,0.0,0.0,0.0,0.0,0.0,0.0,0.0,0.0,0.0,0.0,0.0,0.0,0.0,0.0,0.0,0.0,0.0,0.0,0.0,0.0,0.0,0.0,0.0,0.0,0.0,0.0,0.0,0.0,0.0,0.0,0.0,0.0,0.0,0.0,0.0,0.0,0.0,0.0,0.0,0.0,0.0,0.0,0.0,0.0,0.0,0.0,0.0,0.0,0.0,0.0,0.0,0.0,0.0,0.0,0.0,0.0,0.0,0.0,-4.3491,-4.2357,0.0,0.0,0.0,0.0,0.0,0.0,0.0,0.0,0.0,0.0,0.0,0.0,0.0,0.0,0.0,0.0,0.0,0.0,0.0,0.0,0.0,0.0,0.0,0.0,0.0,0.0,0.0,0.0,0.0,0.0,0.0,0.0,0.0,0.0,0.0,0.0,0.0,0.0,0.0,0.0,-4.055,-4.1238,-4.2375,-4.4549,-4.4872,-4.4788,-4.4366,-4.3624,-4.2683,-4.1444,-3.9753,0.0,0.0,0.0,0.0,0.0,0.0,0.0,0.0,0.0,0.0,0.0,0.0,0.0,0.0,0.0,0.0,0.0,0.0,0.0,0.0,0.0,0.0,0.0,0.0,0.0,0.0,0.0,0.0,0.0,0.0,0.0,0.0,0.0,0.0,0.0,0.0,0.0,0.0,0.0,0.0,0.0,0.0,0.0,0.0,0.0,0.0,0.0,0.0,0.0,0.0,0.0,0.0,0.0,-4.5147,-4.614,-4.7232,-4.7177,-4.761,-4.8324,-4.6797,-4.4802,-4.2642,-4.2029,0.0,0.0,0.0,0.0,0.0,0.0,0.0,0.0,0.0,0.0,0.0,0.0,0.0,0.0,0.0,0.0,0.0,0.0,0.0,0.0,0.0,0.0,-3.9524,-4.0078,-4.0662,-4.057,-3.8785,0.0,0.0,0.0,0.0,0.0,0.0,0.0,0.0,0.0,0.0,0.0,-4.0842,-4.1879,-4.3039,-4.4752,-4.5083,-4.4939,-4.4278,-4.4096,-4.3564,-4.2524,-4.0659,-3.9321,0.0,0.0,0.0,0.0,0.0,0.0,0.0,0.0,0.0,0.0,0.0,0.0,0.0,0.0,0.0,0.0,0.0,0.0,0.0,0.0,0.0,0.0,0.0,0.0,0.0,0.0,0.0,0.0,0.0,0.0,0.0,0.0,-3.3035,-3.4818,0.0,0.0,0.0,0.0,0.0,0.0,0.0,0.0,0.0,0.0,0.0,0.0,0.0,-4.323,-4.5204,-4.7262,-4.8371,-4.8528,-5.0649,-5.1403,-5.0999,-5.158,-5.2184,-5.2849,-5.2613,0.0,-4.3443,-4.3216,0.0,0.0,0.0,0.0,0.0,0.0,0.0,0.0,0.0,0.0,0.0,0.0,0.0,0.0,0.0,0.0,0.0,0.0,0.0,0.0,0.0,0.0,-4.2946,-4.3039,-4.3131,-4.294,-4.2109,-4.0539,-3.8877,-3.7615,-3.743,-3.7277,0.0,0.0,0.0,0.0,0.0,0.0,-4.0347,-4.1243,-4.2509,-4.4434,-4.4688,-4.4826,-4.5114,-4.4749,-4.4082,-4.3159,-4.1965,-4.072,-3.9398,-3.8077,0.0,0.0,0.0,0.0,0.0,0.0,0.0,0.0,0.0,0.0,0.0,0.0,0.0,0.0,0.0,0.0,0.0,0.0,0.0,0.0,0.0,0.0,0.0,0.0,0.0,0.0,0.0,0.0,0.0,-3.3544,-3.4506,-3.5363,-3.5864,-3.5949,0.0,0.0,0.0,0.0,0.0,0.0,0.0,0.0,0.0,-4.5913,-4.6022,-4.7122,-4.945,-5.0661,-5.1619,-5.2361,-5.3734,-5.4698,-5.5099,-5.5037,-5.5561,-5.6546,-5.6176,-5.3868,-5.0198,-4.745,-4.4934,-4.2727,0.0,0.0,0.0,0.0,-4.0939,-4.1448,-4.3251,-4.3722,-4.3618,-4.4449,0.0,0.0,0.0,0.0,0.0,0.0,0.0,-4.0847,-4.1617,-4.3248,-4.488,-4.5649,-4.5834,-4.5649,-4.5003,-4.3833,-4.2078,-3.9185,-3.8631,-3.8292,-3.7246,-3.6753,0.0,0.0,0.0,-3.9677,-4.097,-4.2386,-4.358,-4.4327,-4.4788,-4.5039,-4.5117,-4.5288,-4.5083,-4.4411,-4.324,-4.2001,-4.0755,-3.937,-3.8196,0.0,0.0,0.0,0.0,0.0,0.0,0.0,0.0,0.0,0.0,0.0,0.0,0.0,0.0,0.0,0.0,0.0,0.0,0.0,0.0,0.0,0.0,0.0,0.0,0.0,0.0,0.0,0.0,-3.5105,-3.6069,-3.5987,-3.7368,-3.779,0.0,0.0,0.0,0.0,0.0,0.0,-4.4432,-4.6134,-4.8243,-5.0851,-5.0316,-5.1172,-5.3604,-5.4061,-5.4853,-5.6023,-5.6669,-5.7531,-5.8516,-5.8073,-5.8381,-5.9255,-5.8762,-5.7869,-5.6361,-5.1621,-4.8358,-4.6172,-4.4141,-4.2971,-4.2448,-4.3125,-4.3587,-4.4202,-4.6357,-4.725,-4.7373,-4.7188,-4.5988,-4.4178,-4.1586,0.0,0.0,0.0,0.0,-4.3187,-4.451,-4.6111,-4.765,-4.8666,-4.8912,-4.8666,-4.7835,-4.7127,-4.5372,-4.1124,-4.0293,-3.9862,-3.8508,-3.7861,0.0,-3.82,-3.964,-4.0927,-4.1669,-4.3322,-4.4442,-4.4472,-4.5035,-4.5443,-4.5395,-4.5627,-4.5647,-4.5392,-4.4037,-4.2897,-4.2068,-4.0497,-3.9082,-3.7755,0.0,0.0,0.0,0.0,0.0,0.0,0.0,0.0,0.0,0.0,0.0,0.0,0.0,0.0,0.0,0.0,0.0,0.0,0.0,0.0,0.0,0.0,0.0,0.0,0.0,0.0,0.0,0.0,0.0,-3.7333,-3.9364,0.0,0.0,0.0,0.0,-4.2704,-4.6064,-4.801,-4.7864,-5.0819,-5.2722,-5.322,-5.3956,-5.5376,-5.7475,-5.8165,-5.8824,-5.9532,-6.0209,-6.0578,-6.064,-6.0609,-6.064,-6.0701,-6.0671,-6.024,-5.9224,-5.4453,-5.0913,-4.8266,-4.6234,-4.5033,-4.4548,-4.5187,-4.6265,-4.7465,-4.8235,-4.8974,-4.9743,-5.1005,-4.9589,-4.7004,-4.4941,-4.3433,0.0,0.0,-4.4787,-4.6665,-4.8019,-5.0359,-5.2359,-5.2452,-5.2452,-5.2082,-5.0759,-4.9959,-4.8081,-4.3371,-4.2448,-4.2017,-4.0566,0.0,-4.029,-4.0351,-4.0795,-4.1423,-4.2163,-4.3259,-4.417,-4.4908,-4.5536,-4.6051,-4.6478,-4.5627,-4.5183,-4.5555,-4.4001,-4.3069,-4.3234,-4.1234,-3.986,-3.9225,-3.8071,0.0,0.0,0.0,0.0,0.0,0.0,0.0,0.0,0.0,0.0,0.0,0.0,0.0,0.0,0.0,0.0,0.0,0.0,0.0,0.0,0.0,0.0,0.0,0.0,0.0,0.0,0.0,0.0,-4.1687,-4.4752,0.0,-4.4312,-4.5325,-4.6401,-4.7079,-4.9272,-5.114,-5.245,-5.4348,-5.6595,-5.922,-5.8899,-5.9513,-6.1283,-6.0938,-6.064,-6.0455,-6.0701,-6.0794,-6.0794,-6.0794,-6.0794,-6.0794,-6.0794,-6.0671,-6.027,-5.8146,-5.5653,-5.3006,-5.1436,-5.0143,-4.9251,-4.9928,-5.0482,-5.1036,-5.2175,-5.2452,-5.2082,-5.082,-4.9127,-4.7404,-4.6234,-4.5834,-4.5957,-4.6634,-4.7989,-4.9558,-5.0913,-5.2298,-5.3468,-5.3853,-5.3345,-5.2575,-5.2082,-5.1128,-4.9712,-4.7588,-4.5741,-4.4079,-4.2725,-4.214,-4.2017,-4.2417,-4.3027,-4.3512,-4.3758,-4.488,-4.5528,-4.5218,-4.5767,-4.6356,-4.6808,-4.5708,-4.508,-4.5173,-4.3441,-4.1997,-4.1218,-4.0025,-3.8899,-3.7836,-3.748,-3.6932,0.0,0.0,0.0,0.0,0.0,0.0,0.0,0.0,0.0,0.0,0.0,0.0,0.0,0.0,0.0,0.0,0.0,0.0,0.0,0.0,0.0,0.0,0.0,0.0,0.0,-4.2406,-4.5057,-4.5757,-4.9072,-5.0581,-4.8706,-4.9947,-5.1138,-5.1857,-5.3987,-5.5875,-5.7246,-5.8584,-6.0344,-6.2632,-6.1917,-6.2022,-6.3099,-6.2486,-6.1809,-6.1132,-6.1132,-6.1009,-6.0794,-6.0794,-6.0794,-6.0794,-6.0794,-6.0794,-6.0763,-6.0301,-5.8916,-5.6915,-5.5345,-5.4052,-5.3098,-5.356,-5.3714,-5.3868,-5.5007,-5.4945,-5.4022,-5.1775,-5.0266,-4.9158,-4.8266,-4.8296,-4.882,-4.9743,-5.082,-5.2021,-5.3375,-5.4391,-5.5068,-5.5068,-5.436,-5.3591,-5.316,-5.2175,-5.119,-5.0482,-4.8327,-4.6265,-4.5126,-4.4387,-4.411,-4.4579,-4.4749,-4.4926,-4.5141,-4.5782,-4.6112,-4.5768,-4.6305,-4.6667,-4.6743,-4.5505,-4.4578,-4.4125,-4.247,-4.0988,-3.994,-3.9243,-3.8398,-3.7372,-3.7016,-3.6654,-3.6196,0.0,0.0,0.0,0.0,0.0,0.0,0.0,0.0,0.0,0.0,0.0,0.0,0.0,0.0,0.0,0.0,0.0,0.0,0.0,0.0,0.0,0.0,0.0,-4.1462,-4.555,-4.8833,-4.9408,-5.2181,-5.3407,-5.1921,-5.4313,-5.63,-5.7025,-6.0376,-6.2261,-6.1893,-6.3422,-6.385,-6.2856,-6.2856,-6.2856,-6.2856,-6.2825,-6.2487,-6.184,-6.1809,-6.144,-6.0824,-6.0824,-6.0794,-6.0794,-6.0794,-6.0794,-6.0794,-6.0794,-6.0424,-5.9624,-5.7672,-5.644,-5.5776,-5.5745,-5.5715,-5.5838,-5.6563,-5.6347,-5.5468,-5.4176,-5.3283,-5.2483,-5.1159,-5.0759,-5.1036,-5.239,-5.3252,-5.4052,-5.5376,-5.673,-5.7457,-5.6053,-5.5684,-5.5315,-5.4022,-5.3221,-5.2513,-5.1867,-5.0112,-4.8481,-4.7804,-4.7127,-4.6665,-4.6665,-4.5953,0.0,-4.6263,-4.595,-4.5906,-4.6539,-4.7019,-4.704,-4.6381,-4.5035,-4.3718,-4.244,-4.1025,-4.0051,-3.9636,-3.8973,-3.8413,-3.795,-3.6802,-3.6226,-3.6226,0.0,0.0,0.0,0.0,0.0,0.0,0.0,0.0,0.0,0.0,0.0,0.0,0.0,0.0,0.0,0.0,0.0,0.0,0.0,0.0,0.0,-4.4941,-4.7415,-4.6668,-5.0672,-5.416,-5.5312,-5.8743,-6.065,-5.9737,-6.1295,-6.2456,-6.2641,-6.3587,-6.3919,-6.3287,-6.4174,-6.4383,-6.3564,-6.4057,-6.4087,-6.3564,-6.3071,-6.2733,-6.2517,-6.1532,-6.1225,-6.1502,-6.1009,-6.0794,-6.0794,-6.0794,-6.0794,-6.0794,-6.0794,-6.0701,-6.0363,-5.8824,-5.8116,-5.7808,-5.6871,-5.6532,-5.6532,-5.6748,-5.6347,-5.5561,-5.473,-5.3945,-5.3283,-5.2421,-5.2144,-5.2452,-5.376,-5.4252,-5.476,-5.6115,-5.681,-5.6994,-5.6594,-5.5715,-5.4837,-5.4468,-5.3529,-5.2667,-5.2483,-5.159,-5.0482,-4.9312,-4.8543,-4.805,-4.805,-4.7855,-4.7599,-4.7292,-4.7446,-4.738,-4.694,-4.7304,-4.7212,-4.6381,-4.4227,-4.259,-4.1752,-3.908,-3.7499,-3.7387,-3.6723,-3.6373,-3.6328,-3.6609,-3.6797,0.0,0.0,0.0,0.0,0.0,0.0,0.0,0.0,0.0,0.0,0.0,0.0,0.0,0.0,0.0,0.0,0.0,0.0,0.0,0.0,0.0,0.0,-4.9485,-5.3006,-5.3991,-5.6269,-5.8454,-6.0116,-6.2641,-6.4118,-6.3718,-6.4949,-6.5626,-6.5349,-6.5842,-6.5873,-6.5165,-6.5503,-6.5565,-6.5134,-6.5534,-6.5257,-6.4272,-6.3872,-6.3379,-6.2794,-6.2025,-6.184,-6.221,-6.1532,-6.1225,-6.1194,-6.0917,-6.0794,-6.0794,-6.0794,-6.0794,-6.0701,0.0,0.0,0.0,0.0,-5.7056,-5.681,-5.681,-5.6532,-5.5992,-5.5037,-5.4406,-5.3914,-5.3006,-5.2698,-5.2944,-5.3976,-5.4468,-5.4929,-5.6023,-5.681,-5.7087,-5.6502,-5.5715,-5.4976,-5.4375,-5.3468,-5.2698,-5.2698,-5.2175,0.0,-5.0297,-4.9528,-4.8974,-4.8666,-4.8358,-4.8142,-4.805,-4.7937,-4.7801,-4.7585,-4.731,-4.6846,-4.613,-4.3798,0.0,0.0,0.0,-3.7165,-3.6896,-3.6573,0.0,0.0,0.0,-3.7364,-3.7298,-3.7698,0.0,0.0,-3.6867,-3.6836,0.0,0.0,0.0,0.0,0.0,0.0,0.0,0.0,0.0,0.0,0.0,0.0,0.0,0.0,0.0,0.0,-5.4376,-5.8485,-6.1809,-6.1809,-6.2148,-6.3964,-6.4795,-6.5226,-6.5226,-6.6396,-6.6888,-6.6273,-6.735,-6.775,-6.7073,-6.7104,0.0,0.0,0.0,-6.618,-6.4918,-6.4734,-6.4087,-6.2918,-6.2856,-6.2825,-6.2794,-6.2117,-6.1779,-6.1656,-6.1071,-6.0794,-6.0794,-6.0794,-6.0794,-6.0732,-6.0147,-5.9809,-5.9532,-5.8331,-5.7518,-5.6902,-5.684,0.0,0.0,-5.5191,-5.4745,-5.4529,-5.3221,-5.2883,-5.3067,-5.3683,-5.433,-5.4976,-5.553,-5.6607,-5.7223,-5.5992,-5.5561,-5.5161,-5.396,-5.3191,-5.2698,-5.2698,-5.2236,-5.159,-5.0913,-5.0174,-4.9435,-4.8727,-4.8112,-4.7927,-4.8543,-4.7906,-4.7588,-4.8168,-4.7334,0.0,-4.5815,-4.3788,-4.1961,-4.0606,-3.911,-3.8033,-3.7434,-3.7571,-3.7635,-3.7524,-3.7858,-3.805,-3.8004,-3.8201,-3.83,-3.83,-3.7896,-3.7839,0.0,0.0,0.0,0.0,0.0,0.0,0.0,0.0,0.0,0.0,0.0,0.0,0.0,0.0,0.0,-5.4607,-5.8454,-6.184,-6.4703,-6.5472,-6.5873,-6.6273,-6.6919,-6.735,-6.735,-6.8058,-6.8458,-6.8304,-6.8551,-6.8397,-6.775,-6.8212,-6.8027,-6.695,-6.6396,-6.5719,-6.4918,-6.3779,-6.3349,-6.3626,-6.3071,0.0,-6.2794,-6.2117,-6.1502,-6.0978,-6.0855,-6.0794,-6.0794,-6.0794,-6.0794,-6.0794,-6.0671,-5.9932,-5.8947,-5.867,-5.8146,-5.7549,-5.6994,-5.681,-5.6594,-5.5191,-5.5099,-5.5253,-5.3929,-5.3853,0.0,-5.4468,-5.5007,-5.553,-5.5653,-5.5899,-5.6023,-5.5745,-5.4884,-5.4022,-5.3775,-5.3191,-5.2698,-5.2698,-5.2606,-5.2298,-5.1621,-5.0482,-4.9435,-4.8727,-4.8512,-4.845,-4.8604,-4.8179,-4.7897,-4.8019,-4.7503,-4.6873,-4.6214,-4.4287,-4.2581,-4.1265,-3.8931,-3.7554,-3.7404,-3.7439,-3.7678,-3.8182,-3.8786,-3.9361,-3.9865,-4.0477,-4.0718,-4.0688,-3.8771,-3.8182,0.0,0.0,0.0,0.0,0.0,0.0,0.0,0.0,0.0,0.0,0.0,-4.52,-4.7978,0.0,-5.4728,-5.8239,-6.1933,-6.4734,-6.575,-6.6796,-6.7289,-6.695,-6.7227,-6.7566,-6.7904,-6.8212,-6.8551,-6.8858,-6.8889,-6.8735,-6.8427,-6.8089,-6.775,-6.7442,-6.6427,-6.5411,-6.4364,-6.4364,-6.4026,-6.3318,-6.3687,-6.3656,-6.3287,-6.261,-6.1933,-6.1286,-6.0948,-6.0794,-6.0794,-6.0638,-6.069,-6.0794,-6.0638,-5.986,-5.8793,-5.8793,-5.8146,-5.7272,-5.6933,-5.681,-5.6594,-5.5191,-5.5161,-5.5438,-5.4114,-5.416,-5.4683,-5.4683,-5.5191,-5.5622,-5.5284,-5.5438,-5.553,-5.4853,-5.4206,-5.3622,-5.3283,-5.2944,-5.2698,-5.2698,-5.2698,-5.2513,-5.1836,-5.1128,-5.0451,-4.9774,-4.9374,-4.9116,-4.8959,-4.8485,-4.8133,-4.8007,-4.7365,-4.6821,-4.6491,-4.4507,-4.291,-4.1961,-4.0307,-3.9409,-3.9409,-3.9409,-3.9559,-3.9888,-4.0217,-4.0576,-4.0876,-4.1235,-4.1422,-4.1392,-4.019,-3.9841,0.0,0.0,0.0,0.0,0.0,0.0,0.0,-4.1066,-4.2687,-4.5681,-4.7753,-5.0015,-5.3268,-5.6453,-5.9255,-6.144,-6.4672,-6.6765,-6.6365,-6.7012,-6.7381,-6.6981,-6.7042,-6.7381,-6.8058,-6.812,-6.8335,-6.8858,-6.8889,-6.8828,-6.8705,-6.7566,-6.7104,-6.7535,-6.6088,-6.4826,-6.3787,-6.4826,-6.4549,-6.3041,-6.4149,-6.4303,-6.3595,-6.2918,-6.224,-6.1563,-6.0988,-6.069,-6.069,-6.0429,-6.042,-6.0506,-6.0298,-5.9574,-5.8608,-5.8731,-5.8134,-5.7179,-5.6902,-5.681,-5.6594,-5.5315,-5.5376,-5.5684,-5.4483,-5.4576,-5.5099,-5.4898,-5.5284,-5.553,-5.4837,-5.5007,-5.5037,-5.396,-5.3622,-5.3375,-5.2821,-5.2698,-5.2698,-5.2698,-5.2698,-5.2544,-5.199,-5.1898,-5.1621,-5.082,-5.0112,-4.9597,-4.9353,-4.8657,-4.8175,-4.7964,-4.7226,-4.6665,-4.6545,-4.4788,-4.3389,-4.265,-4.1961,-4.1542,-4.1422,-4.1422,-4.1482,-4.1602,-4.1564,-4.1624,-4.1773,-4.1773,-4.1773,-4.1773,-4.1773,-4.1683,-3.7607,-3.7458,-3.8409,-3.9661,-4.0318,-4.201,0.0,-4.8377,-4.9335,-5.2823,-5.4191,-5.5468,-5.7685,-5.987,-6.224,-6.4888,-6.6211,-6.7104,-6.7627,-6.6796,-6.6334,-6.6858,-6.7442,-6.8058,-6.8705,-6.8766,-6.8797,-6.8889,-6.8889,-6.8643,-6.8058,-6.7319,-6.6673,-6.615,-6.421,-6.3379,-6.3841,-6.3379,-6.3349,-6.3718,-6.3872,-6.3595,-6.2918,-6.224,-6.1563,-6.0917,-6.0564,-6.0429,-6.0429,-6.0144,-5.9832,-5.9542,-5.9542,-5.8868,-5.7962,-5.8547,-5.8701,-5.8442,-5.7241,-5.681,-5.6686,-5.5838,-5.6053,-5.6532,-5.5715,-5.5961,-5.644,-5.5776,-5.5622,-5.553,-5.4837,-5.4283,-5.3899,-5.3775,-5.3283,-5.279,-5.2729,-5.2698,-5.2698,-5.2698,-5.2698,-5.2698,-5.2606,-5.2606,-5.2175,-5.0882,-5.0112,-4.9597,-4.9353,-4.8529,-4.7922,-4.7666,-4.7392,-4.6993,-4.6352,-4.5544,-4.4556,-4.326,-4.2611,-4.2021,-4.1414,-4.1422,-4.1692,-4.2291,-4.2291,-4.2521,-4.308,-4.308,-4.308,-4.308,-4.308,-4.2791,-3.9096,-3.9803,-4.1121,-4.1954,-4.4105,-4.6864,-4.9855,-5.1567,-5.3331,-5.6212,-5.809,-5.9747,-6.1409,-6.3071,-6.4426,-6.5195,-6.6211,-6.6735,-6.6242,-6.6027,-6.5719,-6.5165,-6.575,-6.6581,-6.7627,-6.775,-6.7904,-6.8304,-6.8335,-6.8027,-6.7381,-6.5934,-6.498,-6.4703,-6.3472,-6.2948,-6.3225,-6.3349,-6.324,-6.2986,-6.2986,-6.2618,-6.1944,-6.1508,-6.0966,-6.0355,-6.0197,-6.0144,-6.0114,-5.9486,-5.9205,-5.9131,-5.858,-5.8196,-5.7931,-5.8139,-5.798,-5.758,-5.6994,-5.6532,-5.6084,-5.5776,-5.5899,-5.6023,-5.5345,-5.5592,-5.5992,-5.5315,-5.513,-5.4976,-5.4283,-5.3883,-5.3622,-5.3221,-5.2914,-5.2698,-5.2698,-5.2698,-5.2698,-5.2698,-5.2698,-5.2698,-5.2698,-5.2698,-5.2513,-5.1959,-5.0813,-4.9978,-4.9761,-4.8589,-4.7666,-4.7482,-4.7352,-4.7189,-4.692,-4.6292,-4.5484,-4.4526,-4.3868,-4.321,-4.2551,-4.2521,-4.2641,-4.291,-4.291,-4.306,-4.329,-4.329,-4.329,-4.329,-4.3478,-4.3407,-3.9768,-4.148,-4.3526,-4.4519,-4.7968,-5.1515,-5.3193,-5.5204,-5.731,-5.9624,-6.1467,-6.2948,-6.3933,-6.5103,-6.575,-6.5257,-6.5996,-6.6304,-6.5319,-6.5103,-6.4611,-6.341,-6.341,-6.3872,-6.4857,-6.5811,-6.6704,-6.7596,-6.7289,-6.6888,-6.6396,-6.458,-6.3472,-6.3256,-6.2794,-6.2641,-6.2825,-6.321,-6.3193,-6.267,-6.2272,-6.1844,-6.1279,-6.0882,-6.0441,-6.0016,-5.988,-5.9789,-5.9524,-5.8776,-5.8406,-5.8274,-5.7583,-5.7384,-5.7446,-5.7339,-5.7089,-5.6813,-5.6726,-5.6326,-5.5865,-5.5745,-5.5684,-5.5561,-5.4914,-5.5068,-5.5315,-5.4806,-5.456,-5.4283,-5.3837,-5.3591,-5.3314,-5.2821,-5.2698,-5.2698,-5.2698,-5.2698,-5.2698,-5.2698,-5.2698,-5.2698,-5.2698,-5.2698,-5.2698,-5.2698,-5.1448,-5.0401,-5.0012,-4.8524,-4.7452,-4.7309,-4.7309,-4.7309,-4.7309,-4.686,-4.6232,-4.5334,-4.4855,-4.4197,-4.3319,-4.329,-4.329,-4.329,-4.329,-4.329,-4.329,-4.329,-4.329,-4.329,-4.3518,-4.3675,-3.8793,-4.1511,-4.4761,-4.7681,-5.1484,-5.539,-5.8793,-6.0609,-6.2179,-6.4272,-6.4764,-6.4826,-6.4857,-6.5442,-6.5903,-6.5873,-6.5903,-6.5934,-6.5873,-6.418,-6.2641,-6.1963,-6.0732,-5.9963,-5.9993,-6.301,-6.5503,-6.6858,-6.5719,-6.498,-6.4949,-6.3626,-6.2548,-6.1902,-6.184,-6.2148,-6.2794,-6.2557,-6.2731,-6.3342,-6.2028,-6.1279,-6.0981,-6.032,-6.0016,-6.0016,-5.9636,-5.9168,-5.8625,-5.8248,-5.7521,-5.6687,-5.6657,-5.6416,-5.6089,-5.6058,-5.6453,-5.6959,-5.6537,-5.639,-5.6317,-5.5882,-5.5684,-5.5561,-5.4914,-5.4683,-5.4714,-5.4683,-5.4222,-5.3745,-5.3714,-5.3221,-5.2729,-5.2698,-5.2698,-5.2698,-5.2698,-5.2698,-5.2698,-5.2698,-5.2698,-5.2698,-5.2698,-5.2698,-5.2698,-5.2698,-5.1711,-5.0727,-5.0073,-4.8424,-4.7309,-4.7309,-4.7309,-4.7309,-4.7309,-4.7279,-4.6711,-4.5364,-4.5274,-4.4676,-4.3349,-4.329,-4.329,-4.329,-4.329,-4.329,-4.329,-4.329,-4.329,-4.329,-4.329,-4.3527,-4.0371,-4.4106,-4.852,-5.1744,-5.5378,-5.8796,-6.1317,-6.2731,-6.3629,-6.3844,-6.2657,-6.1379,-6.0917,-6.0301,-6.0147,-6.104,-6.2302,-6.3349,-6.3779,-6.4057,-6.3102,-6.0147,-6.0178,-5.9881,-5.8377,-6.0997,-6.341,-6.4764,-6.4457,-6.418,-6.418,-6.2887,-6.184,-6.1163,-6.1813,-6.2074,-6.1882,-6.2072,-6.1923,-6.1546,-6.0553,-6.0022,-5.9753,-5.9704,-5.9583,-5.9369,-5.8811,-5.8428,-5.8188,-5.7236,-5.6607,-5.629,-5.584,-5.5591,-5.5481,-5.5481,-5.5631,-5.5832,-5.6237,-5.6066,-5.5656,-5.5681,-5.5407,-5.4914,-5.4222,-5.4006,-5.3914,-5.3529,-5.3221,-5.3067,-5.3067,-5.2883,-5.2698,-5.2698,-5.2698,-5.2698,-5.2698,-5.2698,-5.2698,-5.2698,-5.2698,-5.2698,-5.2698,-5.2698,-5.2563,-5.2276,-5.1516,-5.0486,-4.9056,-4.8369,-4.7788,-4.7369,-4.7309,-4.7309,-4.7309,-4.7309,-4.692,-4.6022,-4.5544,-4.4915,-4.4018,-4.3529,-4.329,-4.329,-4.329,-4.329,-4.329,-4.329,-4.329,-4.329,-4.3478,-4.3636,-4.2878,-4.7237,-5.2162,-5.5338,-5.8659,-6.1575,-6.3097,-6.3837,-6.3875,-6.271,-6.0475,-5.8423,-5.75,-5.5838,-5.5177,-5.67,-5.8005,-5.9399,-6.1132,-6.188,-6.1458,-5.9408,-5.9369,-5.8899,-5.7217,-5.8889,-6.0788,-6.2656,-6.235,-6.2258,-6.2748,-6.1737,-6.1063,-6.0849,-6.1546,-6.1805,-6.1591,-6.1534,-6.102,-6.0193,-5.9633,-5.9315,-5.9261,-5.9315,-5.9141,-5.874,-5.856,-5.8082,-5.7363,-5.6765,-5.6226,-5.5748,-5.5089,-5.485,-5.482,-5.4551,-5.4461,-5.459,-5.5474,-5.5688,-5.5511,-5.5309,-5.5128,-5.4914,-5.3991,-5.3714,-5.3622,-5.3191,-5.3067,-5.3067,-5.3067,-5.3067,-5.3006,-5.276,-5.2698,-5.2698,-5.2698,-5.2698,-5.2698,-5.2698,-5.2698,-5.2653,-5.2563,-5.2473,-5.2291,-5.1926,-5.1289,-5.0306,-4.8865,-4.8237,-4.7788,-4.7369,-4.7309,-4.7309,-4.7309,-4.7309,-4.692,-4.6022,-4.5783,-4.5155,-4.4018,-4.3738,-4.3529,-4.329,-4.329,-4.329,-4.329,-4.329,-4.329,-4.329,-4.3478,-4.3596,-4.6195,-5.0788,-5.548,-5.8282,-6.121,-6.347,-6.4051,-6.3844,-6.2925,-6.0917,-5.8239,-5.5869,-5.4483,-5.2144,-5.1097,-5.3129,-5.35,-5.4833,-5.8423,-5.8162,-5.8174,-5.9604,-5.8358,-5.7087,-5.6494,-5.6705,-5.8013,-6.0654,-5.9682,-5.9613,-6.092,-6.035,-6.0289,-6.0812,-6.0927,-6.1261,-6.1898,-6.0905,-6.0108,-5.9476,-5.9207,-5.9207,-5.9476,-5.9177,-5.871,-5.8141,-5.871,-5.7902,-5.6226,-5.6765,-5.6286,-5.5119,-5.4461,-5.4221,-5.4162,-5.3443,-5.3204,-5.3373,-5.4187,-5.5096,-5.5755,-5.4735,-5.4972,-5.539,-5.4068,-5.3699,-5.373,-5.3745,-5.3699,-5.3775,-5.3745,-5.3714,-5.356,-5.2883,-5.2698,-5.2698,-5.2698,-5.2698,-5.2698,-5.2698,-5.2698,-5.2608,-5.2306,-5.2109,-5.188,-5.1618,-5.103,-5.0276,-4.9389,-4.8147,-4.7339,-4.7309,-4.7309,-4.7309,-4.7309,-4.7309,-4.677,-4.5484,-4.5933,-4.5382,-4.3469,-4.3917,-4.3917,-4.329,-4.329,-4.329,-4.329,-4.329,-4.329,-4.329,-4.329,-4.3438,-5.0663,-5.465,-5.8338,-6.0101,-6.1503,-6.2246,-6.1709,-6.0441,-5.8786,-5.65,-5.2778,-4.9374,-4.7527,-4.7004,-4.7558,-4.9589,-5.3299,-5.6928,-5.987,-6.0527,-6.0392,-5.9614,-5.8685,-5.7689,-5.6567,-5.6556,-5.7239,-5.8714,-5.8957,-5.9613,-6.092,-6.035,-6.0077,-6.0229,-6.0499,-6.0482,-6.015,-5.9699,-5.9387,-5.9207,-5.9153,-5.9153,-5.9177,-5.859,-5.8291,-5.8082,-5.7274,-5.6697,-5.6188,-5.5807,-5.5478,-5.5119,-5.4461,-5.4521,-5.479,-5.3623,-5.3503,-5.3832,-5.3091,-5.3766,-5.4854,-5.4296,-5.4574,-5.4944,-5.3743,-5.3728,-5.4097,-5.3776,-5.4037,-5.4314,-5.3837,-5.3714,-5.356,-5.2883,-5.2698,-5.2698,-5.2698,-5.2698,-5.2698,-5.2698,-5.2563,-5.2306,-5.2109,-5.188,-5.1695,-5.1618,-5.0846,-5.0048,-4.9389,-4.8536,-4.7848,-4.7369,-4.7309,-4.7309,-4.7309,-4.7309,-4.716,-4.68,-4.6022,-4.5334,-4.4825,-4.3977,-4.3469,-4.329,-4.329,-4.329,-4.329,-4.329,-4.329,-4.329,-4.329,-4.3329,-5.4461,-5.7633,-6.0236,-6.1283,-6.1695,-6.1297,-5.9318,-5.7686,-5.5542,-5.156,-4.7782,-4.4596,-4.2615,-4.2021,-4.2726,-4.5518,-4.9604,-5.3791,-5.7426,-5.9246,-6.001,-5.9701,-5.9423,-5.8789,-5.754,-5.7294,-5.7438,-5.8052,-5.8377,-5.904,-6.0096,-5.9794,-5.9734,-6.0036,-5.9934,-5.9675,-5.9315,-5.9153,-5.9099,-5.9099,-5.9099,-5.9099,-5.9099,-5.871,-5.8231,-5.7633,-5.7214,-5.6526,-5.5718,-5.5658,-5.5269,-5.47,-5.4012,-5.3982,-5.4162,-5.2815,-5.2755,-5.3204,-5.2456,-5.2972,-5.3946,-5.3524,-5.4352,-5.5208,-5.3966,-5.4043,-5.4518,-5.4465,-5.4451,-5.4467,-5.4222,-5.3837,-5.3346,-5.2671,-5.2473,-5.2427,-5.2518,-5.2518,-5.2518,-5.2518,-5.2337,-5.2109,-5.188,-5.1602,-5.1386,-5.1386,-5.0753,-5.0002,-4.9389,-4.8686,-4.8027,-4.7369,-4.7309,-4.7309,-4.7309,-4.7309,-4.7189,-4.689,-4.6441,-4.5903,-4.5304,-4.4586,-4.4047,-4.3738,-4.3439,-4.329,-4.329,-4.329,-4.329,-4.329,-4.329,-4.329,-5.7633,-5.9847,-6.1373,-6.1852,-6.1481,-6.0169,-5.6766,-5.4873,-5.22,-4.6468,-4.3153,-4.0725,-3.8913,-3.7864,-3.8412,-4.1935,-4.5196,-4.8961,-5.3863,-5.637,-5.8286,-5.9751,-6.0143,-5.9807,-5.8753,-5.8368,-5.8261,-5.8261,-5.8261,-5.8501,-5.9069,-5.9099,-5.9368,-5.9937,-5.9398,-5.9099,-5.9099,-5.9099,-5.9099,-5.9099,-5.9099,-5.9099,-5.9099,-5.9009,-5.8291,-5.7124,-5.7633,-5.6855,-5.5239,-5.5807,-5.5359,-5.4281,-5.3593,-5.3324,-5.3144,-5.1828,-5.1708,-5.2187,-5.2097,-5.2516,-5.3013,-5.2773,-5.4099,-5.5516,-5.4322,-5.4382,-5.4916,-5.5158,-5.4827,-5.4416,-5.4589,-5.3975,-5.3132,-5.2459,-5.22,-5.2063,-5.2215,-5.2261,-5.2261,-5.2215,-5.2063,-5.1834,-5.1572,-5.1339,-5.1229,-5.1229,-5.0674,-5.0122,-4.9494,-4.8745,-4.8027,-4.7369,-4.7309,-4.7309,-4.7309,-4.7309,-4.707,-4.6459,-4.692,-4.6651,-4.5484,-4.5334,-4.5035,-4.4466,-4.3858,-4.3559,-4.3559,-4.3469,-4.3409,-4.3409,-4.3319,-4.329,-5.9847,-6.1253,-6.1822,-6.1403,-5.9937,-5.7685,-5.3822,-5.0005,-4.6018,-4.17,-3.8819,-3.6613,-3.5185,-3.6947,-3.9408,-4.173,-4.5799,-5.0286,-5.5043,-5.6058,-5.7173,-5.9418,-5.9191,-5.8911,-5.9027,-5.8949,-5.8949,-5.8949,-5.8949,-5.8979,-5.9099,-5.9099,-5.9159,-5.9279,-5.9159,-5.9099,-5.9099,-5.9099,-5.9099,-5.9099,-5.9099,-5.9099,-5.9069,-5.853,-5.7842,-5.7064,-5.6675,-5.6017,-5.5209,-5.5329,-5.5239,-5.497,-5.4281,-5.4042,-5.3862,-5.2516,-5.2097,-5.2127,-5.1588,-5.1828,-5.2426,-5.2923,-5.3721,-5.4419,-5.3833,-5.4122,-5.4733,-5.4947,-5.4904,-5.4818,-5.4477,-5.3851,-5.3132,-5.2459,-5.2261,-5.2215,-5.2063,-5.2017,-5.1972,-5.1757,-5.1665,-5.1572,-5.1323,-5.1229,-5.1229,-5.1229,-5.1109,-5.081,-5.0152,-4.9015,-4.8027,-4.7369,-4.7309,-4.7309,-4.7309,-4.7309,-4.7249,-4.713,-4.6741,-4.6381,-4.6142,-4.5603,-4.5244,-4.5125,-4.5005,-4.4945,-4.4945,-4.4407,-4.4137,-4.4137,-4.3559,-4.329,-6.0984,-6.1852,-6.1942,-6.1283,-5.9099,-5.5718,-5.0361,-4.6436,-4.2496,-3.7481,-3.5503,-3.4422,-3.3487,-3.5148,-3.7506,-4.0041,-4.3433,-4.7637,-5.2954,-5.4619,-5.6134,-5.8557,-5.9135,-5.9291,-5.9099,-5.9099,-5.9099,-5.9099,-5.9099,-5.9099,-5.9099,-5.9099,-5.9099,-5.9099,-5.9099,-5.9099,-5.9099,-5.9099,-5.9099,-5.9099,-5.9099,-5.9099,-5.9099,-5.877,-5.8261,-5.7603,-5.6944,-5.6286,-5.5658,-5.5329,-5.4999,-5.461,-5.3922,-5.3892,-5.4012,-5.2306,-5.2336,-5.3144,-5.2486,-5.2456,-5.2755,-5.3084,-5.3653,-5.4072,-5.356,-5.4089,-5.483,-5.4352,-5.4268,-5.4165,-5.3753,-5.3036,-5.2336,-5.2002,-5.1941,-5.1895,-5.1834,-5.188,-5.1926,-5.1649,-5.1572,-5.1479,-5.1276,-5.1229,-5.1229,-5.1229,-5.1229,-5.0943,-5.0285,-4.9703,-4.8925,-4.7938,-4.7519,-4.7309,-4.7309,-4.7309,-4.7309,-4.7309,-4.701,-4.683,-4.683,-4.6202,-4.5843,-4.5843,-4.5484,-4.5304,-4.5304,-4.4975,-4.4825,-4.4825,-4.4496,-4.4167,-6.1164,-6.1882,-6.1912,-6.1104,-5.8082,-5.3743,-4.7698,-4.3718,-3.9865,-3.4562,-3.3275,-3.2946,-3.2525,-3.3456,-3.5198,0.0,-4.0377,-4.3895,-4.9659,-5.2309,-5.4589,-5.7154,-5.889,-5.9668,-5.9159,-5.9099,-5.9099,-5.9099,-5.9099,-5.9099,-5.9099,-5.9099,-5.9099,-5.9099,-5.9099,-5.9099,-5.9099,-5.9099,-5.9099,-5.9099,-5.9099,-5.9099,-5.9099,-5.9099,-5.874,-5.8082,-5.7543,-5.6885,-5.6188,-5.5628,-5.494,-5.4162,-5.3773,-5.3683,-5.3623,-5.2336,-5.2665,-5.3713,-5.3324,-5.3084,-5.3025,-5.3294,-5.3563,-5.3683,-5.3144,-5.3713,-5.4421,-5.3717,-5.3405,-5.3212,-5.2984,-5.2225,-5.1572,-5.1572,-5.1572,-5.1479,-5.1479,-5.1695,-5.1741,-5.1556,-5.1479,-5.1433,-5.1229,-5.1229,-5.1229,-5.1229,-5.1229,-5.0973,-5.0465,-5.0285,-4.9807,-4.8805,-4.7997,-4.7459,-4.7309,-4.7309,-4.7309,-4.7309,-4.7309,-4.7309,-4.7309,-4.68,-4.6488,-4.6488,-4.5992,-4.5723,-4.5723,-4.5574,-4.5514,-4.5514,-4.5364,-4.5005,-5.9907,-6.1164,-6.1792,-6.0505,-5.6346,-5.1468,-4.7236,-4.1923,-3.7045,-3.4113,-3.2527,-3.166,-3.1629,-3.2706,0.0,0.0,0.0,-4.0673,-4.6022,-4.8985,-5.1798,-5.5059,-5.7663,-5.9159,-5.9099,-5.9099,-5.9099,-5.9099,-5.9099,-5.9099,-5.9099,-5.9099,-5.9099,-5.9099,-5.9099,-5.9099,-5.9099,-5.9099,-5.9099,-5.9099,-5.9099,-5.9099,-5.9099,-5.9099,-5.874,-5.8112,-5.8052,-5.7334,-5.6218,-5.6107,-5.5329,-5.4251,-5.479,-5.3922,-5.2516,-5.3563,-5.3264,-5.2456,-5.2995,-5.2785,-5.2486,-5.3713,-5.3324,-5.2366,-5.2306,-5.2366,-5.2576,-5.3103,-5.2803,-5.2372,-5.258,-5.2115,-5.1572,-5.1572,-5.1386,-5.1229,-5.1229,-5.1276,-5.1276,-5.1229,-5.1229,-5.1229,-5.1199,-5.1229,-5.1229,-5.1229,-5.1229,-5.1199,-5.1139,-5.0554,-5.0136,-5.0016,-4.8955,-4.7967,-4.7369,-4.7309,-4.7309,-4.7309,-4.7309,-4.7309,-4.7309,-4.7249,-4.7219,-4.7219,-4.716,-4.713,-4.713,-4.6501,-4.619,-4.6202,-4.5574,-4.5274,-5.7723,-5.9847,-6.0984,-5.883,-5.461,-4.9747,-4.5035,-4.0277,-3.5998,-3.2946,-3.2168,-3.1959,-3.157,-3.2258,0.0,0.0,0.0,0.0,-4.3808,-4.5783,-4.8476,-5.3384,-5.5628,-5.7363,-5.8949,-5.9099,-5.9099,-5.9099,-5.9099,-5.9099,-5.9099,-5.9099,-5.9099,-5.9099,-5.9099,-5.9099,-5.9099,-5.9099,-5.9099,-5.9099,-5.9099,-5.9099,-5.9099,-5.9099,-5.8949,-5.868,-5.7872,-5.7214,-5.6675,-5.5897,-5.5269,-5.479,-5.464,-5.4371,-5.3952,-5.3683,-5.3773,-5.3982,-5.3832,-5.3354,-5.2875,-5.3414,-5.2695,-5.1768,-5.2546,-5.2785,-5.2665,-5.2157,-5.2097,-5.2097,-5.1802,-5.155,-5.1369,-5.1369,-5.1276,-5.1229,-5.1229,-5.1229,-5.1229,-5.1229,-5.1229,-5.1229,-5.1229,-5.1229,-5.1229,-5.1229,-5.1229,-5.1229,-5.1229,-5.099,-5.0644,-5.0226,-4.9434,-4.864,-4.7967,-4.7908,-4.7728,-4.7339,-4.7309,-4.7309,-4.7309,-4.7309,-4.7309,-4.7309,-4.7309,-4.7309,-4.7309,-4.704,-4.692,-4.692,-4.6651,-4.6292,-5.4351,-5.7154,-5.886,-5.6765,-5.2636,-4.7924,-4.3618,0.0,-3.5489,-3.2886,-3.2617,-3.2647,-3.2168,0.0,0.0,0.0,0.0,-3.7135,-4.1833,-4.3389,-4.5813,-5.0571,-5.2665,-5.476,-5.7393,-5.853,-5.9099,-5.9099,-5.9099,-5.9099,-5.9099,-5.9099,-5.9099,-5.9099,-5.9099,-5.9099,-5.9099,-5.9099,-5.9099,-5.9099,-5.9099,-5.9099,-5.9099,-5.9099,-5.9099,-5.9039,-5.7902,-5.7274,-5.7004,-5.5927,-5.5239,-5.488,-5.461,-5.4551,-5.4521,-5.3982,-5.4251,-5.485,-5.4581,-5.3922,-5.3204,-5.3414,-5.2456,-5.1439,-5.2546,-5.2755,-5.2396,-5.1468,-5.1558,-5.1798,-5.1349,-5.1229,-5.1229,-5.1229,-5.1229,-5.1229,-5.1229,-5.1229,-5.1229,-5.1229,-5.1229,-5.1229,-5.1229,-5.1229,-5.1229,-5.1229,-5.1229,-5.1229,-5.1229,-5.1229,-5.1003,-5.0524,-5.0122,-4.9434,-4.8386,-4.8297,-4.7997,-4.7339,-4.7309,-4.7309,-4.7309,-4.7309,-4.7309,-4.7309,-4.7309,-4.7309,-4.7309,-4.7309,-4.7309,-4.7309,-4.7309,-4.695,-4.958,-5.2725,-5.5089,-5.4401,-5.0272,-4.5801,0.0,0.0,-3.531,-3.4623,-3.3933,-3.3484,-3.3484,0.0,0.0,0.0,0.0,0.0,-3.9978,-4.2132,-4.4137,-4.613,-4.8641,-5.1302,-5.4012,-5.7184,-5.9099,-5.9099,-5.9099,-5.9099,-5.9099,-5.9099,-5.9099,-5.9099,-5.9099,-5.9099,-5.9099,-5.9099,-5.9099,-5.9099,-5.9099,-5.9099,-5.9099,-5.9099,-5.9099,-5.9069,-5.8411,-5.7723,-5.7034,-5.6406,-5.5388,-5.4281,-5.494,-5.4371,-5.3354,-5.47,-5.476,-5.4311,-5.497,-5.4311,-5.3294,-5.3982,-5.2845,-5.1349,-5.2007,-5.1768,-5.1229,-5.1229,-5.1229,-5.1229,-5.1229,-5.1229,-5.1229,-5.1229,-5.1229,-5.1229,-5.1229,-5.1229,-5.1229,-5.1229,-5.1229,-5.1229,-5.1229,-5.1229,-5.1229,-5.1229,-5.1229,-5.1229,-5.1229,-5.1229,-5.1229,-5.1199,-5.1199,-5.0421,-4.8446,-4.8297,-4.7997,-4.7339,-4.7309,-4.7309,-4.7309,-4.7309,-4.7309,-4.7309,-4.7309,-4.7309,-4.7309,-4.7309,-4.7309,-4.7309,-4.7309,-4.695,-4.4396,-4.695,-4.8865,-4.7728,-4.4855,-4.1743,-3.9738,0.0,-3.4352,-3.2796,-3.3006,-3.3365,-3.2916,0.0,0.0,0.0,0.0,0.0,0.0,-4.2222,-4.5095,-4.7997,-5.3054,-5.6615,-5.7483,-5.8501,-5.9099,-5.9099,-5.9099,-5.9099,-5.9099,-5.9099,-5.9099,-5.9099,-5.9099,-5.9099,-5.9099,-5.9099,-5.9099,-5.9099,-5.9099,-5.9099,-5.9099,-5.9099,-5.9099,-5.9039,-5.7902,-5.7304,-5.7004,-5.5927,-5.5269,-5.491,-5.5119,-5.494,-5.461,-5.5029,-5.5059,-5.491,-5.5119,-5.461,-5.3832,-5.3593,-5.2785,-5.1858,-5.1588,-5.1379,-5.1229,-5.1229,-5.1229,-5.1229,-5.1229,-5.1229,-5.1229,-5.1229,-5.1229,-5.1229,-5.1229,-5.1229,-5.1229,-5.1229,-5.1229,-5.1229,-5.1229,-5.1229,-5.1229,-5.1229,-5.1229,-5.1229,-5.1229,-5.1229,-5.1229,-5.1229,-5.1229,-5.0601,-4.912,-4.9,-4.8476,-4.7369,-4.7309,-4.7309,-4.7309,-4.7309,-4.7309,-4.7309,-4.7309,-4.7309,-4.7309,-4.7309,-4.7309,-4.7309,-4.7309,-4.695,0.0,-4.2252,-4.3898,-4.306,-4.1025,0.0,0.0,0.0,0.0,0.0,0.0,0.0,0.0,0.0,0.0,0.0,0.0,0.0,-3.9254,-4.2004,-4.5274,-4.888,-5.4012,-5.7363,-5.7603,-5.853,-5.9099,-5.9099,-5.9099,-5.9099,-5.9099,-5.9099,-5.9099,-5.9099,-5.9099,-5.9099,-5.9099,-5.9099,-5.9099,-5.9099,-5.9099,-5.9099,-5.9099,-5.886,-5.874,-5.865,-5.7334,-5.6735,0.0,-5.5628,-5.5179,-5.5179,-5.5179,-5.5179,-5.5179,-5.5179,-5.5179,-5.5179,-5.5179,-5.4581,-5.3743,-5.3324,-5.2576,-5.1738,-5.1349,-5.1229,-5.1229,-5.1229,-5.1229,-5.1229,-5.1229,-5.1229,-5.1229,-5.1229,-5.1229,-5.1229,-5.1229,-5.1229,-5.1229,-5.1229,-5.1229,-5.1229,-5.1229,-5.1229,-5.1229,-5.1229,-5.1229,-5.1229,-5.1229,-5.1229,-5.1229,-5.1229,-5.0943,-5.0511,-4.9703,-4.9449,-4.876,-4.7399,-4.7309,-4.7309,-4.7309,-4.7309,-4.7309,-4.7309,-4.7309,-4.7309,-4.7309,-4.7309,-4.7309,-4.7309,-4.7309,-4.71,0.0,-3.8256,-3.9755,-3.9719,-3.8351,-3.6862,0.0,0.0,0.0,0.0,0.0,0.0,0.0,0.0,0.0,-3.6447,-3.7075,-3.7943,-3.9254,-4.1944,-4.5244,-4.9149,-5.2516,-5.473,-5.5209,-5.7603,-5.9099,-5.9099,-5.9099,-5.9099,-5.9099,-5.9099,-5.9099,-5.9099,-5.9099,-5.9099,-5.9099,-5.9099,-5.9099,-5.9099,-5.9069,-5.9039,-5.9009,-5.8351,-5.8052,-5.7992,-5.6705,-5.6218,-5.6188,-5.5478,-5.5179,-5.5179,-5.5179,-5.5179,-5.5179,-5.5179,-5.5179,-5.5179,-5.5149,-5.4311,-5.3234,-5.3144,-5.2247,-5.1229,-5.1229,-5.1229,-5.1229,-5.1289,-5.1289,-5.1289,-5.1289,-5.1289,-5.1289,-5.1229,-5.1229,-5.1229,-5.1289,-5.1259,-5.1229,-5.1289,-5.1259,-5.1229,-5.1229,-5.1229,-5.1229,-5.1229,-5.1229,-5.1229,-5.1229,-5.1229,-5.1229,-5.1229,-5.0614,-5.0226,-5.0136,-4.9583,-4.8686,-4.7459,-4.7339,-4.7309,-4.7309,-4.7309,-4.7309,-4.7309,-4.7309,-4.7309,-4.7309,-4.7309,-4.7309,-4.7309,-4.7309,-4.7309,-3.092,0.0,-3.3463,-3.2943,-3.327,-3.3481,0.0,0.0,0.0,0.0,0.0,0.0,0.0,0.0,-3.5878,-3.7015,-3.7734,-3.8631,-3.9978,-4.4994,-4.9523,-5.1977,-5.5628,-5.7423,-5.6077,-5.7872,-5.9099,-5.9099,-5.9099,-5.9099,-5.9099,-5.9099,-5.9099,-5.9099,-5.9099,-5.9099,-5.9099,-5.9099,-5.9099,-5.9099,-5.859,-5.8351,-5.8321,-5.7633,-5.7334,-5.7304,-5.6496,-5.6218,-5.6188,-5.5478,-5.5179,-5.5179,-5.5179,-5.5179,-5.5179,-5.5179,-5.5179,-5.5119,-5.461,-5.4221,-5.3803,-5.2755,-5.1887,-5.1229,-5.1229,-5.1229,-5.1319,-5.1828,-5.1977,-5.1977,-5.1977,-5.1977,-5.1858,-5.1349,-5.1229,-5.1349,-5.1858,-5.1558,-5.1379,-5.1887,-5.1558,-5.1229,-5.1229,-5.1229,-5.1229,-5.1229,-5.1229,-5.1229,-5.1229,-5.1229,-5.1229,-5.1229,-5.1079,-5.0571,-4.9583,-4.8895,-4.8386,-4.8087,-4.7578,-4.7309,-4.7309,-4.7309,-4.7309,-4.7309,-4.7309,-4.7309,-4.7309,-4.7309,-4.7309,-4.7309,-4.7309,-4.7309,-2.8487,-2.976,-3.0962,-3.0894,-3.12,-3.1492,0.0,0.0,0.0,0.0,0.0,0.0,0.0,-3.455,-3.5549,-3.7135,-3.7973,-3.9499,-4.2671,-4.698,-5.087,-5.3743,-5.6256,-5.7693,-5.7543,-5.8471,-5.9099,-5.9099,-5.9099,-5.9099,-5.9099,-5.883,-5.88,-5.9099,-5.8501,-5.8471,-5.9099,-5.9099,-5.8949,-5.865,-5.8291,-5.7962,-5.7633,-5.6974,-5.6675,-5.6645,-5.6017,-5.5718,-5.5688,-5.5329,-5.5179,-5.5179,-5.5179,-5.5179,-5.5149,-5.485,-5.473,-5.464,-5.3952,-5.3533,-5.3114,-5.2097,-5.1498,-5.1229,-5.1229,-5.1229,-5.1289,-5.1648,-5.1977,-5.2127,-5.1828,-5.1977,-5.2127,-5.1768,-5.1439,-5.1409,-5.2067,-5.1678,-5.1319,-5.1678,-5.1468,-5.1229,-5.1229,-5.1229,-5.1229,-5.1229,-5.1229,-5.1229,-5.1229,-5.1229,-5.1229,-5.1229,-5.0913,-5.0481,-4.9763,-4.8835,-4.8147,-4.7848,-4.7489,-4.7309,-4.7309,-4.7309,-4.7309,-4.7309,-4.7309,-4.7309,-4.7309,-4.7309,-4.7309,-4.7309,-4.7309,-4.7309,-2.7594,-2.8966,-3.0405,-3.0654,-3.0569,-3.0475,-3.0825,0.0,0.0,0.0,0.0,0.0,0.0,-3.459,-3.5522,-3.7285,-3.8631,-4.1235,-4.6309,-4.8775,-5.1319,-5.479,-5.6047,-5.7154,-5.853,-5.8919,-5.9099,-5.9099,-5.9099,-5.9099,-5.9099,-5.8471,-5.8381,-5.8949,-5.7752,-5.7633,-5.877,-5.88,-5.853,-5.7962,-5.7872,-5.7513,-5.6944,-5.6316,-5.6017,-5.6038,-5.5448,-5.5179,-5.5179,-5.5179,-5.5119,-5.5029,-5.5029,-5.497,-5.482,-5.4251,-5.4042,-5.3952,-5.3264,-5.2606,-5.1947,-5.1409,-5.1229,-5.1229,-5.1229,-5.1229,-5.1229,-5.1229,-5.1678,-5.2067,-5.1498,-5.1768,-5.2187,-5.2067,-5.1618,-5.1439,-5.2187,-5.1768,-5.1289,-5.1468,-5.1349,-5.1229,-5.1229,-5.1229,-5.1229,-5.1229,-5.1229,-5.1229,-5.1229,-5.1229,-5.1229,-5.1229,-5.0674,-5.0315,-5.0196,-4.9224,-4.8267,-4.7489,-4.7369,-4.7309,-4.7309,-4.7309,-4.7309,-4.7309,-4.7309,-4.7309,-4.7309,-4.7309,-4.7309,-4.7309,-4.7309,-4.7309,-2.8124,-2.918,-2.9795,-2.843,-2.9247,-3.0122,-2.9159,0.0,0.0,0.0,0.0,0.0,0.0,-3.5063,-3.7255,-3.8093,-4.1624,-4.5693,-4.9883,-5.2187,-5.3892,-5.5059,-5.7244,-5.8112,-5.6765,-5.8141,-5.9099,-5.9099,-5.9099,-5.9099,-5.9099,-5.8471,-5.8171,-5.8261,-5.7513,-5.7184,-5.7393,-5.7393,-5.7363,-5.7244,-5.6735,-5.6406,-5.6338,-5.5628,-5.5329,-5.5329,-5.5239,-5.5179,-5.5179,-5.5179,-5.485,-5.4371,-5.4371,-5.4012,-5.3473,-5.3384,-5.3324,-5.3234,-5.2576,-5.1917,-5.1349,-5.1259,-5.1229,-5.1229,-5.1229,-5.1229,-5.1229,-5.1229,-5.1678,-5.2187,-5.2067,-5.2127,-5.2067,-5.1498,-5.1289,-5.1558,-5.2755,-5.2067,-5.1558,-5.2665,-5.1977,-5.1229,-5.1229,-5.1229,-5.1229,-5.1229,-5.1229,-5.1229,-5.1229,-5.1229,-5.1229,-5.1229,-5.1139,-5.084,-5.0255,-5.0016,-4.9434,-4.8207,-4.7608,-4.7309,-4.7309,-4.7309,-4.7309,-4.7309,-4.7309,-4.7309,-4.7309,-4.7309,-4.7309,-4.7309,-4.7309,-4.7309,-2.7863,-2.8543,-2.8987,-2.8203,-2.9369,-3.0605,-3.0086,-3.0212,0.0,0.0,0.0,0.0,0.0,-3.5281,-3.8079,-4.2025,-4.5663,-4.8865,-5.1379,-5.2279,-5.3432,-5.5487,-5.6538,-5.6937,-5.6785,-5.8481,-5.9066,-5.7723,-5.8183,-5.8411,-5.8052,-5.7423,-5.7214,-5.7543,-5.6585,-5.6226,-5.6585,-5.6226,-5.6256,-5.6585,-5.6316,-5.5987,-5.5628,-5.5329,-5.4999,-5.467,-5.467,-5.4431,-5.4102,-5.4102,-5.3922,-5.3653,-5.3653,-5.3443,-5.3144,-5.2785,-5.2426,-5.2067,-5.1768,-5.1468,-5.1229,-5.1229,-5.1229,-5.1229,-5.1229,-5.1229,-5.1229,-5.1229,-5.1678,-5.2127,-5.1768,-5.1947,-5.2217,-5.2276,-5.2007,-5.2007,-5.2965,-5.2426,-5.1828,-5.2067,-5.1618,-5.1229,-5.1229,-5.1229,-5.1229,-5.1229,-5.1229,-5.1229,-5.1229,-5.1229,-5.1229,-5.1229,-5.1229,-5.096,-5.0255,-5.0196,-4.9673,-4.8356,-4.7668,-4.7309,-4.7309,-4.7309,-4.7309,-4.7309,-4.7309,-4.7309,-4.7309,-4.7309,-4.7309,-4.7309,-4.7309,-4.7309,-2.7646,-2.815,-2.8603,-2.8446,0.0,-3.0582,-3.1217,-3.1072,-3.0907,0.0,0.0,0.0,0.0,-3.6061,-3.9352,-4.5285,-4.8456,-5.0864,-5.2694,-5.2377,-5.3239,-5.6489,-5.582,-5.5666,-5.7044,-5.8405,-5.8394,-5.643,-5.7439,-5.7706,-5.6756,-5.6392,-5.6273,-5.6459,-5.5675,-5.5448,-5.5927,-5.5448,-5.5448,-5.6008,-5.6008,-5.5598,-5.497,-5.497,-5.461,-5.3982,-5.3982,-5.3653,-5.3174,-5.3174,-5.3084,-5.2965,-5.2965,-5.2845,-5.2665,-5.2157,-5.1648,-5.1229,-5.1229,-5.1229,-5.1229,-5.1229,-5.1229,-5.1229,-5.1229,-5.1229,-5.1229,-5.1229,-5.1678,-5.2097,-5.1588,-5.1947,-5.2546,-5.3054,-5.2785,-5.2606,-5.3264,-5.2785,-5.2097,-5.1738,-5.1439,-5.1229,-5.1229,-5.1229,-5.1229,-5.1229,-5.1229,-5.1229,-5.1229,-5.1229,-5.1229,-5.1229,-5.1229,-5.102,-5.0465,-5.0285,-4.9777,-4.8805,-4.7848,-4.7309,-4.7309,-4.7309,-4.7309,-4.7309,-4.7309,-4.7309,-4.7309,-4.7309,-4.7309,-4.7309,-4.7309,-4.7309,-2.8177,-2.8786,-2.9127,-2.8551,-2.8464,-2.9153,-3.1273,-3.1798,-3.231,-3.379,-3.5169,-3.582,-3.485,-3.8003,-4.1901,-4.5449,-4.8436,-5.1396,-5.4628,-5.4567,-5.5336,-5.85,-5.6326,-5.5254,-5.7017,-5.6863,-5.6569,-5.6316,-5.7439,-5.7333,-5.5604,-5.5975,-5.5723,-5.4643,-5.4997,-5.5209,-5.5269,-5.5209,-5.5209,-5.5269,-5.5269,-5.491,-5.4281,-5.4281,-5.3892,-5.3264,-5.3264,-5.3234,-5.3174,-5.3174,-5.2815,-5.2276,-5.2276,-5.1887,-5.1349,-5.1319,-5.1259,-5.1229,-5.1229,-5.1229,-5.1229,-5.1229,-5.1229,-5.1229,-5.1229,-5.1229,-5.1229,-5.1229,-5.1678,-5.2187,-5.2127,-5.2606,-5.3114,-5.3174,-5.3144,-5.3294,-5.3982,-5.3114,-5.2366,-5.2935,-5.2067,-5.1229,-5.1229,-5.1229,-5.1229,-5.1229,-5.1229,-5.1229,-5.1229,-5.1229,-5.1229,-5.1229,-5.1229,-5.1199,-5.1139,-5.0554,-5.0136,-5.0046,-4.8327,-4.7309,-4.7309,-4.7309,-4.7309,-4.7309,-4.7309,-4.7309,-4.7309,-4.7309,-4.7309,-4.7309,-4.7309,-4.7309,-2.7785,-2.8281,-2.8708,-2.8472,-2.8682,0.0,0.0,-3.3692,-3.4901,-3.5503,-3.7223,-3.8472,-3.8195,-4.0833,-4.3993,-4.6855,-4.9535,-5.2042,-5.4457,-5.422,-5.4577,-5.6594,-5.51,-5.4027,-5.433,-5.5565,-5.5748,-5.403,-5.5097,-5.5318,-5.425,-5.3695,-5.3526,-5.3762,-5.3597,-5.3993,-5.5179,-5.479,-5.479,-5.5179,-5.5179,-5.485,-5.4221,-5.4221,-5.3623,-5.2576,-5.2576,-5.2336,-5.1977,-5.1977,-5.1828,-5.1588,-5.1588,-5.1439,-5.1229,-5.1229,-5.1229,-5.1229,-5.1229,-5.1229,-5.1229,-5.1229,-5.1229,-5.1229,-5.1229,-5.1229,-5.1229,-5.1229,-5.1977,-5.2725,-5.2306,-5.2695,-5.3294,-5.3713,-5.3832,-5.3773,-5.3593,-5.3174,-5.2636,-5.2067,-5.1558,-5.1229,-5.1229,-5.1229,-5.1229,-5.1229,-5.1229,-5.1229,-5.1229,-5.1229,-5.1229,-5.1229,-5.1229,-5.1229,-5.1229,-5.0584,-5.0196,-5.0196,-4.8775,-4.7908,-4.7908,-4.7908,-4.7728,-4.7309,-4.7698,-4.7728,-4.7309,-4.7309,-4.7519,-4.7908,-4.7489,-4.7519,-2.749,-2.7811,-2.815,-2.8368,0.0,0.0,-3.3352,-3.533,-3.7,-3.8452,-3.944,-4.0081,-4.0509,-4.2238,-4.4379,-4.6633,-4.9382,-5.1766,-5.3408,-5.2907,-5.3,-5.4648,-5.3253,-5.223,-5.2371,-5.375,-5.3922,-5.21,-5.3153,-5.3238,-5.1836,-5.155,-5.1488,-5.1707,-5.196,-5.2821,-5.4251,-5.4012,-5.4102,-5.4551,-5.425,-5.4012,-5.3892,-5.3683,-5.2965,-5.1887,-5.1887,-5.1618,-5.1229,-5.1229,-5.1229,-5.1229,-5.1229,-5.1229,-5.1229,-5.1229,-5.1229,-5.1229,-5.1229,-5.1229,-5.1229,-5.1229,-5.1229,-5.1229,-5.1229,-5.1229,-5.1229,-5.1229,-5.2007,-5.2815,-5.2576,-5.3144,-5.3922,-5.4401,-5.4521,-5.4341,-5.3653,-5.3324,-5.2845,-5.1738,-5.1349,-5.1229,-5.1229,-5.1229,-5.1229,-5.1229,-5.1229,-5.1229,-5.1229,-5.1229,-5.1229,-5.1229,-5.1229,-5.1229,-5.1229,-5.0764,-5.0495,-5.0495,-4.9523,-4.8805,-4.8596,-4.864,-4.8297,-4.7638,-4.8057,-4.8057,-4.7608,-4.7399,-4.7638,-4.8267,-4.7608,-4.7549,-2.749,-2.7516,-2.7646,-2.8255,0.0,0.0,-3.5338,-3.6593,-3.8318,-4.2944,-4.2056,-4.0644,-4.1219,-4.1758,-4.2685,-4.4412,-4.7556,-5.0222,-5.1615,-5.0684,-5.0803,-5.3331,-5.0941,-4.9805,-5.1607,-5.1207,-5.0854,-5.0766,-5.1904,-5.132,-4.8355,-4.985,-4.9904,-4.805,-5.0328,-5.1786,-5.2169,-5.2845,-5.3174,-5.3174,-5.2079,-5.2129,-5.3144,-5.2486,-5.178,-5.1182,-5.1182,-5.1182,-5.1182,-5.1229,-5.1229,-5.1229,-5.1229,-5.1229,-5.1229,-5.1229,-5.1229,-5.1229,-5.1229,-5.1229,-5.1229,-5.1229,-5.1229,-5.1229,-5.1229,-5.1229,-5.1229,-5.1229,-5.1678,-5.2336,-5.3025,-5.4162,-5.5179,-5.5179,-5.5179,-5.4999,-5.4341,-5.3653,-5.2965,-5.2306,-5.1648,-5.1229,-5.1229,-5.1229,-5.1229,-5.1229,-5.1229,-5.1229,-5.1229,-5.1229,-5.1229,-5.1229,-5.1229,-5.1229,-5.1229,-5.1229,-5.1229,-5.1229,-5.0554,-4.9942,-4.9329,-4.9329,-4.9,-4.8297,-4.8297,-4.8297,-4.8297,-4.7638,-4.7638,-4.8267,-4.7608,-4.7309,-2.749,-2.8124,-2.8908,-2.9483,0.0,0.0,0.0,-3.8083,0.0,-4.3598,-4.3598,-4.2892,-4.3075,-4.3624,-4.4177,-4.4671,-4.6596,-4.8484,-4.9732,-4.9876,-5.0041,-5.0388,-4.964,-4.9003,-4.8642,-4.926,-4.9469,-4.8979,-4.931,-4.9146,-4.8219,-4.7944,-4.7919,-4.8157,-4.8393,-4.921,-5.0628,-5.037,-5.0456,-5.0937,-5.015,-5.0328,-5.1355,-5.0406,-4.9595,-4.8944,-4.8944,-4.9386,-5.0124,-5.087,-5.1229,-5.1229,-5.1229,-5.1229,-5.1229,-5.1229,-5.1229,-5.1229,-5.1229,-5.1229,-5.1229,-5.1229,-5.1229,-5.1229,-5.1229,-5.1229,-5.1229,-5.1229,-5.1678,-5.2336,-5.3025,-5.3473,-5.3892,-5.4371,-5.4491,-5.4192,-5.3054,-5.2636,-5.2306,-5.1648,-5.1349,-5.1229,-5.1229,-5.1229,-5.1229,-5.1229,-5.1229,-5.1229,-5.1229,-5.1229,-5.1229,-5.1229,-5.1229,-5.1229,-5.1229,-5.1229,-5.1229,-5.1229,-5.0973,-5.0631,-4.9972,-4.9942,-4.9643,-4.903,-4.9434,-4.9434,-4.903,-4.8327,-4.8327,-4.9,-4.8297,-4.8237,-2.8098,-2.8752,0.0,-3.113,-3.3143,-3.5626,-3.8972,-4.0984,-4.2971,-4.5872,-4.5454,-4.4643,-4.4879,-4.4826,-4.4826,-4.5062,-4.6369,-4.7492,-4.7989,-4.8329,-4.8407,-4.8094,-4.8041,-4.778,-4.7074,-4.7649,-4.7829,-4.7213,-4.7187,-4.6865,-4.6143,-4.5734,-4.5631,-4.6048,-4.613,-4.6809,-4.8122,-4.7982,-4.8122,-4.8539,-4.7638,-4.7623,-4.8226,-4.8483,-4.8381,-4.8016,-4.8016,-4.8396,-4.9042,-5.0124,-5.0555,-5.0632,-5.1011,-5.1229,-5.1229,-5.1229,-5.1229,-5.1229,-5.1229,-5.1229,-5.1229,-5.1229,-5.1229,-5.1229,-5.1229,-5.1229,-5.1229,-5.1229,-5.1498,-5.1977,-5.2606,-5.2785,-5.3025,-5.3982,-5.4012,-5.3503,-5.2426,-5.2187,-5.2007,-5.1349,-5.1229,-5.1229,-5.1229,-5.1229,-5.1229,-5.1229,-5.1229,-5.1229,-5.1229,-5.1229,-5.1229,-5.1229,-5.1229,-5.1229,-5.1229,-5.1229,-5.1229,-5.1229,-5.1229,-5.105,-5.0584,-5.0584,-5.0331,-4.9673,-4.9986,-4.9986,-4.9643,-4.8985,-4.891,-4.9299,-4.891,-4.8745,-2.8908,-2.9415,-3.0304,-3.3064,-3.492,-3.709,-4.0906,-4.4617,-4.7519,-4.8486,-4.7127,-4.5924,-4.6316,-4.5584,-4.5062,-4.5558,-4.6552,-4.7048,-4.6473,-4.6395,-4.6369,-4.6264,-4.629,-4.629,-4.6186,-4.6212,-4.6003,-4.5428,-4.5346,-4.4696,-4.3101,-4.352,-4.3516,-4.2863,-4.3913,-4.4661,-4.5085,-4.5664,-4.5993,-4.5993,-4.4957,-4.4455,-4.4509,-4.6588,-4.7572,-4.7628,-4.7673,-4.778,-4.7915,-4.8878,-4.9426,-4.9708,-5.0591,-5.1075,-5.1229,-5.1229,-5.1229,-5.1229,-5.1229,-5.1229,-5.1229,-5.1229,-5.1229,-5.1229,-5.1229,-5.1229,-5.1229,-5.1229,-5.1229,-5.1379,-5.2037,-5.2157,-5.2426,-5.3713,-5.3533,-5.2905,-5.2247,-5.2127,-5.1947,-5.1319,-5.1229,-5.1229,-5.1229,-5.1229,-5.1229,-5.1229,-5.1229,-5.1229,-5.1229,-5.1229,-5.1229,-5.1229,-5.1229,-5.1229,-5.1229,-5.1229,-5.1229,-5.1229,-5.1229,-5.1229,-5.1229,-5.1229,-5.0883,-5.0285,-5.0285,-5.0285,-5.0285,-4.9673,-4.9389,-4.9389,-4.9389,-4.909,-2.8656,-3.0241,0.0,-3.4424,-3.8501,-4.2605,-4.4853,-4.6029,-4.6473,-4.5794,-4.6369,-4.6678,-4.595,-4.5976,-4.6003,-4.5689,-4.6212,-4.6473,-4.5898,-4.582,-4.5454,-4.4539,-4.4826,-4.4748,-4.3859,-4.4173,-4.4199,-4.3624,-4.3572,-4.3415,-4.3049,-4.3127,-4.3127,-4.294,-4.3228,-4.3384,-4.3457,-4.3641,-4.3694,-4.3694,-4.3463,-4.336,-4.336,-4.3857,-4.4332,-4.4783,-4.5153,-4.5888,-4.6761,-4.6954,-4.8007,-4.9582,-4.9347,-5.0035,-5.1229,-5.1229,-5.1229,-5.1229,-5.1229,-5.1229,-5.1229,-5.1229,-5.1229,-5.1229,-5.1229,-5.1229,-5.1229,-5.1229,-5.1229,-5.1379,-5.2037,-5.1828,-5.1618,-5.2456,-5.2516,-5.2247,-5.1558,-5.1439,-5.1379,-5.1259,-5.1229,-5.1229,-5.1229,-5.1229,-5.1229,-5.1229,-5.1229,-5.1229,-5.1229,-5.1229,-5.1229,-5.1229,-5.1229,-5.1229,-5.1229,-5.1229,-5.1229,-5.1229,-5.1229,-5.1229,-5.1229,-5.1229,-5.1139,-5.102,-5.0973,-5.0973,-5.0973,-5.0315,-4.9986,-4.9986,-4.9986,-4.9942,-2.9562,0.0,0.0,-3.6645,0.0,-4.4173,-4.5401,-4.5872,-4.582,-4.4931,-4.5689,-4.6182,-4.5294,-4.5454,-4.5454,-4.4879,-4.5036,-4.5036,-4.446,-4.4382,-4.4147,-4.3546,-4.3729,-4.3676,-4.3075,-4.3284,-4.3232,-4.2657,-4.2605,-4.25,-4.2213,-4.2213,-4.2213,-4.2213,-4.2213,-4.2213,-4.2213,-4.2213,-4.2213,-4.2213,-4.2213,-4.2213,-4.2213,-4.2762,-4.318,-4.3494,-4.3724,-4.4195,-4.4833,-4.5281,-4.6188,-4.7292,-4.8365,-4.9315,-5.0141,-5.0892,-5.1229,-5.1229,-5.1229,-5.1229,-5.1229,-5.1229,-5.1229,-5.1229,-5.1229,-5.1229,-5.1229,-5.1229,-5.1229,-5.1289,-5.1648,-5.1468,-5.1319,-5.1648,-5.1738,-5.1648,-5.1289,-5.1229,-5.1229,-5.1229,-5.1229,-5.1229,-5.1229,-5.1229,-5.1229,-5.1229,-5.1229,-5.1229,-5.1229,-5.1229,-5.1229,-5.1229,-5.1229,-5.1229,-5.1229,-5.1229,-5.1229,-5.1229,-5.1229,-5.1229,-5.1229,-5.1229,-5.1229,-5.1229,-5.1229,-5.1229,-5.1229,-5.0823,-5.0495,-5.0196,-5.0524,-5.0495,-3.0555,0.0,-3.5051,-3.871,-4.1611,0.0,-4.433,-4.4826,-4.5009,-4.4434,-4.4853,-4.514,-4.4539,-4.4434,-4.4278,-4.3807,-4.3729,-4.352,-4.2944,-4.2866,-4.284,-4.2735,-4.2735,-4.2735,-4.2735,-4.2735,-4.2526,-4.2056,-4.2004,-4.1821,-4.135,-4.1324,-4.1324,-4.1324,-4.1324,-4.1324,-4.1324,-4.1324,-4.1324,-4.1324,-4.1324,-4.1324,-4.135,-4.2291,-4.2788,-4.2866,-4.2762,-4.284,-4.3049,-4.3761,-4.4293,-4.4784,-4.7028,-4.8192,-4.8692,-5.02,-5.0828,-5.0964,-5.1135,-5.1229,-5.1229,-5.1229,-5.1229,-5.1229,-5.1229,-5.1229,-5.1229,-5.1229,-5.1229,-5.1229,-5.1229,-5.1229,-5.1229,-5.1229,-5.1229,-5.1229,-5.1229,-5.1229,-5.1229,-5.1229,-5.1229,-5.1229,-5.1229,-5.1229,-5.1229,-5.1229,-5.1229,-5.1229,-5.1229,-5.1229,-5.1229,-5.1229,-5.1229,-5.1229,-5.1229,-5.1229,-5.1229,-5.1229,-5.1229,-5.1229,-5.1229,-5.1229,-5.1229,-5.1229,-5.1229,-5.1229,-5.1229,-5.1229,-5.0883,-5.0375,-5.096,-5.0883,-3.0048,0.0,-3.7037,0.0,-4.101,-4.2552,-4.3127,-4.331,-4.3206,-4.2631,-4.3363,-4.3938,-4.3363,-4.3258,-4.3232,-4.3154,-4.3127,-4.2944,-4.2369,-4.2342,-4.2108,-4.1611,-4.1533,-4.1533,-4.1533,-4.1533,-4.1507,-4.1428,-4.1428,-4.1402,-4.1324,-4.1324,-4.1324,-4.1324,-4.1324,-4.1324,-4.1324,-4.1324,-4.1324,-4.1324,-4.1324,-4.1324,-4.1324,-4.1481,-4.1821,-4.229,-4.1768,-4.2108,-4.2944,-4.2077,-4.2891,-4.4579,-4.4491,-4.565,-4.7461,-4.8615,-4.9358,-4.9979,-5.087,-5.1229,-5.1229,-5.1229,-5.1229,-5.1229,-5.1229,-5.1229,-5.1229,-5.1229,-5.1229,-5.1229,-5.1229,-5.1229,-5.1229,-5.1229,-5.1229,-5.1229,-5.1229,-5.1229,-5.1229,-5.1229,-5.1229,-5.1229,-5.1229,-5.1229,-5.1229,-5.1229,-5.1229,-5.1229,-5.1229,-5.1229,-5.1229,-5.1229,-5.1229,-5.1229,-5.1229,-5.1229,-5.1229,-5.1229,-5.1229,-5.1229,-5.1229,-5.1229,-5.1229,-5.1229,-5.1229,-5.1229,-5.1229,-5.1229,-5.1169,-5.1079,-5.1169,-5.1169,-3.1653,-3.4031,-3.6462,0.0,-3.9703,-4.0958,-4.1873,-4.1794,-4.1481,-4.1246,-4.135,-4.1611,-4.2004,-4.2082,-4.2082,-4.2082,-4.2082,-4.1977,-4.1716,-4.169,-4.1611,-4.135,-4.1324,-4.1324,-4.1324,-4.1324,-4.1324,-4.1324,-4.1324,-4.1324,-4.1324,-4.1324,-4.1324,-4.1324,-4.0984,-4.0801,-4.0801,-4.0514,-4.0357,-4.0357,-4.0357,-4.0357,-4.0383,-4.0671,-4.1141,-4.1664,-4.1428,-4.1611,-4.203,-4.1533,-4.1887,-4.2838,-4.3539,-4.4387,-4.5453,-4.7206,-4.7975,-4.8338,-4.9124,-4.9805,-5.0316,-5.0316,-5.0728,-5.1229,-5.1229,-5.1229,-5.1229,-5.1229,-5.1229,-5.1229,-5.1229,-5.1229,-5.1229,-5.1229,-5.1229,-5.1229,-5.1229,-5.1229,-5.1229,-5.1229,-5.1229,-5.1229,-5.1229,-5.1229,-5.1229,-5.1229,-5.1229,-5.1229,-5.1229,-5.1229,-5.1229,-5.1229,-5.1229,-5.1229,-5.1229,-5.1229,-5.1229,-5.1229,-5.1229,-5.1229,-5.1229,-5.1229,-5.1229,-5.1229,-5.1229,-5.1229,-5.1229,-5.1229,-5.1229,-5.1229,-5.1229,-5.1229,-3.2411,0.0,-3.5234,-3.6854,-3.8109,-3.9259,-4.0383,-4.0305,-3.9991,-3.9991,-3.9782,-3.9834,-4.0514,-4.0775,-4.088,-4.088,-4.088,-4.0932,-4.1063,-4.1089,-4.1089,-4.1089,-4.1089,-4.1089,-4.1089,-4.1089,-4.1141,-4.1298,-4.1167,-4.1089,-4.1089,-4.0958,-4.088,-4.088,-4.0435,-4.02,-4.02,-3.9808,-3.9599,-3.9599,-3.9599,-3.9599,-3.9625,-4.0017,-4.054,-4.1089,-4.1246,-4.1324,-4.1324,-4.1324,-4.1324,-4.14,-4.2694,-4.326,-4.3625,-4.5542,-4.6355,-4.66,-4.7297,-4.8176,-4.896,-4.896,-4.9785,-5.0775,-5.0775,-5.0775,-5.087,-5.1105,-5.1011,-5.087,-5.1135,-5.1229,-5.1229,-5.1229,-5.1229,-5.1229,-5.1229,-5.1229,-5.1229,-5.1229,-5.1229,-5.1229,-5.1229,-5.1229,-5.1229,-5.1229,-5.1229,-5.1229,-5.1229,-5.1229,-5.1229,-5.1229,-5.1229,-5.1229,-5.1229,-5.1229,-5.1229,-5.1229,-5.1229,-5.1229,-5.1229,-5.1229,-5.1229,-5.1229,-5.1229,-5.1229,-5.1229,-5.1229,-5.1229,-5.1229,-5.1229,-5.1229,-3.0947,-3.2359,0.0,-3.5129,-3.6305,-3.7429,-3.8579,-3.8815,-3.8789,-3.8789,-3.9233,-3.9442,-3.8945,-3.9311,-3.9703,-3.9703,-3.9703,-3.9886,-4.0383,-4.0461,-4.0461,-4.0461,-4.0461,-4.0461,-4.0461,-4.0461,-4.0697,-4.1272,-4.0775,-4.0461,-4.0461,-3.9965,-3.9703,-3.9703,-3.9677,-3.9651,-3.9651,-3.9625,-3.9599,-3.9599,-3.9599,-3.9599,-3.9599,-3.9651,-3.9939,-4.0488,-4.1063,-4.1324,-4.1324,-4.1324,-4.1324,-4.1324,-4.14,-4.1791,-4.2415,-4.3548,-4.4298,-4.4911,-4.6028,-4.6764,-4.7243,-4.7243,-4.8358,-4.9659,-4.9659,-4.9659,-4.9931,-5.0917,-5.046,-4.9931,-5.0917,-5.1229,-5.1229,-5.1229,-5.1229,-5.1229,-5.1229,-5.1229,-5.1229,-5.1229,-5.1229,-5.1229,-5.1229,-5.1229,-5.1229,-5.1229,-5.1229,-5.1229,-5.1229,-5.1229,-5.1229,-5.1229,-5.1229,-5.1229,-5.1229,-5.1229,-5.1229,-5.1229,-5.1229,-5.1229,-5.1229,-5.1229,-5.1229,-5.1229,-5.1229,-5.1229,-5.1229,-5.1229,-5.1229,-5.1229,-5.1229,-5.1229,-3.0843,0.0,0.0,-3.3901,-3.4763,-3.5626,-3.6776,-3.7037,-3.7037,-3.7037,-3.722,-3.7403,-3.7586,-3.871,-3.9599,-3.9599,-3.9599,-3.9677,-3.986,-3.9886,-3.9886,-3.9886,-3.9886,-3.9886,-3.9886,-3.9886,-3.9991,-4.02,-4.0017,-3.9886,-3.9886,-3.9703,-3.9599,-3.9599,-3.9233,-3.8867,-3.8527,-3.8527,-3.8527,-3.8527,-3.8527,-3.8527,-3.8527,-3.8867,-3.9128,-3.9364,-3.9965,-4.0644,-4.1324,-4.1324,-4.1324,-4.1324,-4.1324,-4.1428,-4.1714,-4.2459,-4.3114,-4.3643,-4.4052,-4.5285,-4.6586,-4.6201,-4.7237,-4.8596,-4.8596,-4.8596,-4.8646,-4.9042,-4.9366,-4.9659,-5.0076,-5.068,-5.1229,-5.1229,-5.1229,-5.1229,-5.1229,-5.1229,-5.1229,-5.1229,-5.1229,-5.1229,-5.1229,-5.1229,-5.1229,-5.1229,-5.1229,-5.1229,-5.1229,-5.1229,-5.1229,-5.1229,-5.1229,-5.1229,-5.1229,-5.1229,-5.1229,-5.1229,-5.1229,-5.1229,-5.1229,-5.1229,-5.1229,-5.1229,-5.1229,-5.1229,-5.1229,-5.1229,-5.1229,-5.1229,-5.1229,-5.1229,-3.0843,-3.1261,-3.1836,-3.3012,-3.3561,-3.4136,-3.526,-3.5521,-3.5521,-3.5521,-3.5992,-3.641,-3.6436,-3.7848,-3.9024,-3.9024,-3.9024,-3.9102,-3.9285,-3.9311,-3.9311,-3.9311,-3.9311,-3.9311,-3.9311,-3.9311,-3.939,-3.9599,-3.9416,-3.9233,-3.905,-3.9024,-3.9024,-3.9024,-3.8266,-3.7769,-3.7612,-3.7403,-3.7403,-3.7612,-3.7612,-3.7717,-3.7926,-3.8266,-3.8527,-3.8736,-3.9128,-3.986,-4.0749,-4.0932,-4.101,-4.1036,-4.1246,-4.1324,-4.135,-4.1742,-4.2108,-4.2474,-4.2657,-4.3859,-4.5257,-4.5042,-4.6092,-4.7485,-4.7485,-4.7485,-4.7536,-4.7864,-4.8496,-4.917,-4.9513,-5.0124,-5.0555,-5.0191,-5.0095,-5.0095,-5.0095,-5.0698,-5.1229,-5.1229,-5.1229,-5.1229,-5.1229,-5.1229,-5.1229,-5.1229,-5.1229,-5.1229,-5.1229,-5.1229,-5.1229,-5.1229,-5.1229,-5.1229,-5.1229,-5.1229,-5.1229,-5.1229,-5.1229,-5.1229,-5.1229,-5.1229,-5.1229,-5.1229,-5.1229,-5.1229,-5.1229,-5.1229,-5.1229,-5.1229,-5.1229,-5.1229,0.0,0.0,0.0,-3.2385,-3.2672,-3.296,-3.4084,-3.4345,-3.4345,-3.4371,-3.5704,-3.6541,-3.5469,-3.6645,-3.7769,-3.7795,-3.7848,-3.8057,-3.8553,-3.8632,-3.8632,-3.8632,-3.8632,-3.8632,-3.8632,-3.8632,-3.8867,-3.9468,-3.8972,-3.8397,-3.7874,-3.7848,-3.7848,-3.7848,-3.6724,-3.6384,-3.6959,-3.641,-3.641,-3.7011,-3.7011,-3.7325,-3.79,-3.79,-3.8187,-3.8684,-3.8684,-3.9024,-3.9599,-4.0174,-4.0409,-4.0488,-4.1089,-4.1324,-4.1324,-4.1324,-4.1324,-4.1428,-4.1951,-4.2552,-4.3127,-4.3676,-4.5023,-4.6321,-4.6321,-4.6321,-4.6583,-4.761,-4.7915,-4.8167,-4.9268,-4.9562,-4.9317,-4.8217,-4.8016,-4.8016,-4.8016,-4.9659,-5.1105,-5.1182,-5.1152,-5.1182,-5.1182,-5.1229,-5.1229,-5.1229,-5.1229,-5.1229,-5.1229,-5.1229,-5.1229,-5.1229,-5.1229,-5.1229,-5.1229,-5.1229,-5.1229,-5.1229,-5.1229,-5.1259,-5.1259,-5.1259,-5.1259,-5.1259,-5.1229,-5.1229,-5.1229,-5.1229,-5.1229,-5.1229,-5.1229,-5.1229,-3.0947,0.0,0.0,0.0,0.0,0.0,-3.3012,-3.3169,-3.3273,-3.3718,-3.3849,-3.4031,-3.4554,-3.4737,-3.492,-3.5312,-3.6436,-3.7168,-3.6854,-3.6828,-3.6828,-3.6828,-3.6828,-3.6828,-3.6828,-3.6828,-3.6907,-3.7063,-3.6907,-3.675,-3.6619,-3.6593,-3.6593,-3.6593,-3.6279,-3.6175,-3.6358,-3.6175,-3.641,-3.7011,-3.7011,-3.7325,-3.79,-3.79,-3.7978,-3.8135,-3.8135,-3.8214,-3.8475,-3.986,-4.0409,-4.0488,-4.1089,-4.1324,-4.1324,-4.1324,-4.1585,-4.1899,-4.1638,-4.2474,-4.3598,-4.3337,-4.4124,-4.5181,-4.5181,-4.5181,-4.5235,-4.5555,-4.6216,-4.7074,-4.8195,-4.8446,-4.8396,-4.8066,-4.8016,-4.8016,-4.8016,-4.8496,-4.9092,-4.9902,-5.0028,-5.0268,-5.1058,-5.1229,-5.1229,-5.1229,-5.1618,-5.1768,-5.1289,-5.1618,-5.1738,-5.1259,-5.1229,-5.1229,-5.1229,-5.1229,-5.1229,-5.1229,-5.1678,-5.1917,-5.1917,-5.1917,-5.1917,-5.1917,-5.1468,-5.1229,-5.1229,-5.1229,-5.1229,-5.1229,-5.1229,-5.1229,-3.1339,-3.1156,-3.1182,-3.1993,0.0,0.0,-3.2202,-3.2333,-3.2437,-3.2803,-3.296,-3.3195,-3.3613,-3.3822,-3.3875,-3.3718,-3.4737,-3.5547,-3.5417,-3.5391,-3.5391,-3.5391,-3.5391,-3.5391,-3.5391,-3.5626,-3.5757,-3.5757,-3.5966,-3.6096,-3.6096,-3.5652,-3.56,-3.6096,-3.5626,-3.5521,-3.5757,-3.5521,-3.5678,-3.6305,-3.6515,-3.6933,-3.7534,-3.7795,-3.79,-3.79,-3.79,-3.79,-3.8004,-3.9207,-3.986,-4.0148,-4.0723,-4.1089,-4.1324,-4.1324,-4.1533,-4.1794,-4.1716,-4.2317,-4.3154,-4.3049,-4.3624,-4.4382,-4.4382,-4.4539,-4.4668,-4.4668,-4.5502,-4.6531,-4.7177,-4.7331,-4.7229,-4.6764,-4.6608,-4.6608,-4.6608,-4.6608,-4.7074,-4.8646,-4.8944,-4.9141,-4.9757,-4.9854,-4.9999,-5.046,-5.0833,-5.1143,-5.1165,-5.1558,-5.1648,-5.1259,-5.1229,-5.1229,-5.1229,-5.1229,-5.1349,-5.1618,-5.1977,-5.2336,-5.2606,-5.2336,-5.2187,-5.2187,-5.1558,-5.1229,-5.1229,-5.1229,-5.1229,-5.1229,-5.1229,-5.1229,-3.1876,-3.1522,-3.1339,-3.2411,-3.1888,0.0,-3.1693,-3.1745,-3.1719,-3.1797,-3.262,-3.3169,-3.2698,-3.3378,-3.3692,-3.2672,-3.296,-3.3509,-3.411,-3.4214,-3.4214,-3.4214,-3.4214,-3.4241,-3.4293,-3.4737,-3.5025,-3.5103,-3.5495,-3.573,-3.573,-3.4763,-3.4685,-3.5678,-3.4737,-3.4476,-3.4999,-3.4554,-3.4607,-3.5208,-3.5757,-3.6358,-3.7011,-3.756,-3.7848,-3.79,-3.79,-3.79,-3.7952,-3.8423,-3.8998,-3.9651,-4.02,-4.0775,-4.1324,-4.1324,-4.1324,-4.1402,-4.1899,-4.2159,-4.229,-4.2762,-4.3363,-4.3912,-4.3912,-4.4278,-4.4668,-4.4668,-4.5449,-4.6216,-4.6216,-4.6216,-4.5953,-4.4938,-4.4668,-4.4668,-4.4668,-4.4668,-4.5288,-4.7252,-4.774,-4.7864,-4.7965,-4.8016,-4.8346,-4.9268,-4.9473,-4.9844,-5.0728,-5.1024,-5.1101,-5.1041,-5.1135,-5.1229,-5.1229,-5.1229,-5.1498,-5.2157,-5.2276,-5.2606,-5.3264,-5.2665,-5.2306,-5.2306,-5.1588,-5.1229,-5.1229,-5.1229,-5.1229,-5.1229,-5.1229,-5.1229,-3.2411,-3.2097,-3.1797,-3.2515,-3.2176,0.0,-3.1771,-3.1496,-3.1287,-3.1719,-3.1653,-3.1601,-3.1902,-3.181,-3.1575,-3.1365,-3.1418,-3.1836,-3.2881,-3.3012,-3.3012,-3.3012,-3.3012,-3.3221,-3.3692,-3.3404,-3.3404,-3.3901,-3.3561,-3.3352,-3.3352,-3.3143,-3.3117,-3.3352,-3.3143,-3.3091,-3.3195,-3.3561,-3.4031,-3.458,-3.5182,-3.5992,-3.7011,-3.7116,-3.7456,-3.79,-3.79,-3.79,-3.7926,-3.8031,-3.8684,-3.9651,-4.02,-4.0775,-4.1324,-4.1324,-4.1324,-4.1324,-4.1428,-4.1768,-4.2238,-4.2291,-4.3075,-4.3912,-4.3912,-4.4278,-4.4668,-4.4668,-4.4884,-4.5046,-4.5046,-4.5046,-4.4992,-4.4722,-4.4668,-4.4668,-4.4668,-4.4668,-4.483,-4.5288,-4.6058,-4.6971,-4.7864,-4.8016,-4.8066,-4.8296,-4.877,-4.8991,-4.8653,-4.9849,-5.0486,-4.996,-5.068,-5.1229,-5.1229,-5.1229,-5.1498,-5.2157,-5.2695,-5.3294,-5.3982,-5.3354,-5.2995,-5.2995,-5.1828,-5.1229,-5.1229,-5.1229,-5.1229,-5.1229,-5.1229,-5.1229,-3.3064,-3.2698,-3.2333,-3.262,-3.2463,0.0,0.0,-3.1418,-3.1418,-3.1418,-3.1182,-3.1078,-3.1365,-3.1182,-3.0973,-3.0973,-3.0973,-3.1078,-3.1392,-3.1653,-3.1836,-3.1836,-3.1836,-3.1967,-3.2254,-3.228,-3.2515,-3.3091,-3.2855,-3.2698,-3.2698,-3.2698,-3.2698,-3.2698,-3.2698,-3.2698,-3.2698,-3.33,-3.3718,-3.4005,-3.4868,-3.573,-3.6567,-3.6854,-3.7325,-3.79,-3.79,-3.79,-3.79,-3.79,-3.8397,-3.9207,-3.9782,-4.0357,-4.0906,-4.1219,-4.1324,-4.1324,-4.1324,-4.1507,-4.1742,-4.1742,-4.2526,-4.3441,-4.3441,-4.4042,-4.4668,-4.4668,-4.4668,-4.4668,-4.4668,-4.4668,-4.4668,-4.4668,-4.4668,-4.4668,-4.4668,-4.4668,-4.4668,-4.4668,-4.5127,-4.5688,-4.6242,-4.6347,-4.6556,-4.7126,-4.7505,-4.7795,-4.7971,-4.8752,-4.9188,-4.8823,-4.9288,-4.9805,-5.0364,-5.0412,-5.0899,-5.2109,-5.2516,-5.2995,-5.3653,-5.3054,-5.2546,-5.2217,-5.1558,-5.1229,-5.1229,-5.1229,-5.1229,-5.1229,-5.1229,-5.1229,-3.3692,-3.33,-3.2881,-3.2986,-3.2934,-3.2594,0.0,0.0,0.0,-3.1104,-3.0973,-3.0973,-3.0973,-3.0973,-3.0947,-3.0843,-3.0817,-3.0634,-3.0022,-3.0372,-3.066,-3.066,-3.066,-3.0686,-3.0817,-3.1339,-3.1771,-3.2176,-3.2306,-3.2359,-3.2359,-3.2359,-3.2359,-3.2359,-3.2359,-3.2359,-3.2359,-3.3064,-3.343,-3.343,-3.458,-3.5417,-3.5966,-3.6567,-3.7168,-3.7743,-3.7848,-3.79,-3.79,-3.79,-3.8161,-3.8606,-3.9207,-3.9834,-4.0488,-4.0958,-4.1219,-4.1324,-4.1324,-4.1324,-4.1324,-4.1324,-4.2082,-4.3049,-4.3154,-4.3912,-4.4668,-4.4668,-4.4668,-4.4668,-4.4668,-4.4668,-4.4668,-4.4668,-4.4668,-4.4668,-4.4668,-4.4668,-4.4668,-4.4668,-4.4668,-4.4668,-4.4668,-4.4668,-4.4992,-4.59,-4.6058,-4.6374,-4.7252,-4.7559,-4.7661,-4.7661,-4.7864,-4.8346,-4.9219,-4.9317,-5.0048,-5.1791,-5.1899,-5.2293,-5.3144,-5.2546,-5.1887,-5.1229,-5.1229,-5.1229,-5.1229,-5.1229,-5.1229,-5.1229,-5.1229,-5.1229,-3.4031,-3.3901,-3.3613,-3.4084,-3.3849,-3.33,-3.2646,0.0,-3.1641,-3.1104,0.0,-3.0973,-3.0973,0.0,0.0,-3.0283,-3.0205,-2.9996,-2.9457,-2.9467,-2.9483,-2.9483,-2.9483,-2.9666,-3.0153,-3.0738,-3.0895,-3.0414,-3.0895,-3.1182,-3.1182,-3.1182,-3.1182,-3.1182,-3.1182,-3.1182,-3.1182,-3.2254,-3.2803,-3.2803,-3.3953,-3.4816,-3.5417,-3.594,-3.6541,-3.7142,-3.7665,-3.79,-3.79,-3.79,-3.7952,-3.8057,-3.8606,-3.9468,-4.0435,-4.0488,-4.0853,-4.1324,-4.1324,-4.1324,-4.1324,-4.1324,-4.2082,-4.3127,-4.3624,-4.4225,-4.4668,-4.4668,-4.4668,-4.4668,-4.4668,-4.4668,-4.4668,-4.4668,-4.4668,-4.4668,-4.4668,-4.4668,-4.4668,-4.4668,-4.4668,-4.4668,-4.4668,-4.4668,-4.4722,-4.4884,-4.4884,-4.4938,-4.5073,-4.5953,-4.6583,-4.6583,-4.7434,-4.8016,-4.8167,-4.8167,-4.8902,-5.0688,-5.0767,-5.1533,-5.3144,-5.2546,-5.1887,-5.1229,-5.1229,-5.1229,-5.1229,-5.1229,-5.1229,-5.1229,-5.1229,-5.1229,-3.4267,-3.4476,-3.4476,-3.4031,-3.4267,-3.4241,-3.2986,-3.2777,-3.2594,-3.1641,0.0,0.0,0.0,0.0,0.0,0.0,-3.0309,-2.9892,-2.9388,-2.931,-2.931,-2.931,-2.9562,-3.0006,-3.0581,-3.0529,-3.0529,-3.0607,-3.0843,-3.0973,-3.0973,-3.0973,-3.0973,-3.0973,-3.0973,-3.0973,-3.0973,-3.1784,-3.2359,-3.2698,-3.3535,-3.4397,-3.5312,-3.5521,-3.6123,-3.7011,-3.7273,-3.7586,-3.79,-3.79,-3.79,-3.7926,-3.8161,-3.8736,-3.9494,-4.0174,-4.0566,-4.0853,-4.1193,-4.1324,-4.1376,-4.1716,-4.2134,-4.2631,-4.3206,-4.3546,-4.3676,-4.3676,-4.3676,-4.3676,-4.3676,-4.3676,-4.3833,-4.4147,-4.4225,-4.433,-4.4643,-4.4668,-4.4668,-4.4668,-4.4668,-4.4668,-4.4668,-4.4668,-4.4668,-4.4668,-4.4668,-4.4668,-4.4668,-4.5127,-4.5395,-4.5395,-4.5794,-4.6347,-4.7023,-4.7074,-4.7647,-4.9016,-4.9095,-4.9709,-5.1062,-5.0827,-5.0851,-5.1182,-5.1229,-5.1229,-5.1229,-5.1229,-5.1229,-5.1229,-5.1229,-5.1229,-3.4371,-3.4711,-3.4842,-3.4031,-3.4424,-3.4685,-3.3247,-3.3404,-3.3483,-3.2267,-3.2032,0.0,0.0,0.0,-3.0947,-3.079,0.0,-2.9839,-2.9144,-2.9039,-2.9039,-2.9039,-2.9405,-2.9745,-3.0006,-2.9954,-3.0006,-3.0268,-3.0712,-3.0921,-3.0764,-3.0895,-3.0973,-3.0973,-3.0973,-3.0973,-3.0973,-3.151,-3.2084,-3.2698,-3.33,-3.411,-3.5051,-3.5234,-3.5757,-3.6541,-3.6854,-3.7246,-3.7665,-3.7821,-3.79,-3.79,-3.79,-3.8135,-3.8632,-3.9782,-4.0278,-4.0514,-4.1115,-4.1324,-4.1376,-4.1794,-4.2107,-4.229,-4.2657,-4.2892,-4.3023,-4.3023,-4.3023,-4.3023,-4.3023,-4.3023,-4.3154,-4.3729,-4.3912,-4.4016,-4.4591,-4.4668,-4.4668,-4.4668,-4.4668,-4.4668,-4.4668,-4.4668,-4.4668,-4.4668,-4.4668,-4.4668,-4.4668,-4.4668,-4.4668,-4.4668,-4.4668,-4.5046,-4.5874,-4.59,-4.6426,-4.7485,-4.7813,-4.8346,-4.912,-4.9415,-4.9979,-5.0775,-5.1058,-5.1229,-5.1229,-5.1229,-5.1229,-5.1229,-5.1229,-5.1229,-3.4267,-3.4424,-3.4424,-3.4371,-3.4397,-3.4267,-3.3692,-3.3979,-3.4058,-3.2908,-3.2672,-3.2489,-3.1876,-3.1365,-3.0817,-3.0205,-3.01,0.0,0.0,-2.8446,-2.8446,-2.8446,-2.8446,-2.8229,-2.7673,-2.8647,-2.91,-2.8551,-3.0032,-3.0738,-3.0153,-3.0686,-3.0973,-3.0973,-3.0973,-3.0973,-3.0973,-3.151,-3.2084,-3.2698,-3.33,-3.3875,-3.445,-3.5025,-3.5312,-3.5417,-3.6515,-3.7011,-3.7063,-3.7665,-3.79,-3.79,-3.79,-3.7926,-3.8057,-3.9207,-3.9965,-4.0514,-4.1115,-4.1324,-4.1324,-4.1324,-4.1716,-4.2211,-4.2238,-4.2579,-4.3023,-4.3023,-4.3023,-4.3023,-4.3023,-4.3023,-4.3154,-4.3729,-4.3912,-4.4016,-4.4591,-4.4668,-4.4668,-4.4668,-4.4668,-4.4668,-4.4668,-4.4668,-4.4668,-4.4668,-4.4668,-4.4668,-4.4668,-4.4668,-4.4668,-4.4668,-4.4668,-4.4722,-4.4722,-4.4722,-4.5235,-4.6374,-4.7434,-4.8016,-4.8016,-4.9042,-4.9611,-4.9659,-5.068,-5.1229,-5.1229,-5.1229,-5.1229,-5.1229,-5.1229,-5.1229,-3.4349,-3.4917,-3.5228,-3.4821,-3.5132,-3.5286,-3.4345,-3.458,-3.4659,-3.3509,-3.33,-3.2986,-3.198,-3.1365,-3.0921,-3.0738,-3.0335,-2.9839,0.0,-2.9022,-2.9022,-2.9022,-2.9022,-2.9039,-2.9213,-2.9274,-2.9231,-2.9022,-2.9876,-3.0309,-3.01,-3.0686,-3.0973,-3.0973,-3.0973,-3.0973,-3.0973,-3.1182,-3.1548,-3.2084,-3.2566,-3.3097,-3.3628,-3.4047,-3.4512,-3.5055,-3.5418,-3.5895,-3.6462,-3.7063,-3.7299,-3.7351,-3.7743,-3.79,-3.8004,-3.8736,-3.939,-4.0017,-4.0984,-4.1324,-4.1324,-4.1324,-4.1455,-4.1611,-4.1611,-4.1742,-4.1899,-4.1899,-4.1899,-4.1899,-4.1899,-4.1899,-4.203,-4.2605,-4.2787,-4.2892,-4.3467,-4.3885,-4.4173,-4.4173,-4.446,-4.4668,-4.4668,-4.4668,-4.4668,-4.4668,-4.4668,-4.4668,-4.4668,-4.4668,-4.4668,-4.4668,-4.4668,-4.4668,-4.4668,-4.4668,-4.4884,-4.5235,-4.5635,-4.6164,-4.6919,-4.7993,-4.8894,-4.9562,-5.068,-5.1229,-5.1229,-5.1229,-5.1229,-5.1229,-5.1229,-5.1229,-3.4187,-3.483,-3.5295,-3.4891,-3.54,-3.5731,-3.4793,-3.5113,-3.5312,-3.4397,-3.3875,-3.3352,-3.2554,-3.1653,-3.0973,-3.0973,-3.0686,-3.0163,0.0,-2.931,-2.9231,-2.9022,-2.9327,-2.9562,-2.951,-2.9379,-2.9118,-2.8699,-2.9379,-2.9823,-2.9823,-3.0372,-3.079,-3.0973,-3.0973,-3.0973,-3.0973,-3.0924,-3.1211,-3.1797,-3.1914,-3.2404,-3.3193,-3.3348,-3.3852,-3.4658,-3.5046,-3.5565,-3.6175,-3.6985,-3.7325,-3.7351,-3.7743,-3.79,-3.7978,-3.8501,-3.9207,-4.0043,-4.0984,-4.1324,-4.1324,-4.1324,-4.1324,-4.1324,-4.1324,-4.1324,-4.1324,-4.1324,-4.1324,-4.1324,-4.1324,-4.1324,-4.1455,-4.2081,-4.2211,-4.2368,-4.2892,-4.3467,-4.3912,-4.3912,-4.433,-4.4668,-4.4668,-4.4668,-4.4668,-4.4668,-4.4668,-4.4668,-4.4668,-4.4668,-4.4668,-4.4668,-4.4668,-4.4668,-4.4668,-4.4668,-4.4668,-4.4668,-4.4668,-4.5046,-4.5768,-4.6867,-4.8139,-4.9731,-5.0359,-5.103,-5.1917,-5.1439,-5.1229,-5.1229,-5.1229,-5.1229]}]]